[[{"header":{"parameterUnit":"m.s-1","parameterCategory":1,"la1":30.6,"la2":28.766,"lo1":-90.7593,"lo2":-88.6598,"dy":0.0162,"dx":0.0183,"nx":116,"ny":114,"refTime":"2024-05-08T12:00:00:Z","depth":0,"parameterNumber":2,"parameterNumberName":"U-component_of_WINDS"},"data":[0.0,0.0,0.0,0.0,0.0,0.0,0.0,0.0,0.0,0.0,0.0,0.0,0.0,0.0,0.0,0.0,0.0,0.0,0.0,0.0,0.0,0.0,0.0,0.0,0.0,0.0,0.0,0.0,0.0,0.0,0.0,0.0,0.0,0.0,0.0,0.0,0.0,0.0,0.0,0.0,0.0,0.0,0.0,0.0,0.0,0.0,0.0,0.0,0.0,0.0,0.0,0.0,0.0,0.0,0.0,0.0,0.0,0.0,0.0,0.0,0.0,0.0,0.0,0.0,0.0,0.0,0.0,0.0,0.0,0.0,0.0,0.0,0.0,0.0,0.0,0.0,0.0,0.0,0.0,0.0,0.0,0.0,0.0,0.0,0.0,0.0,0.0,0.0,0.0,0.0,0.0,0.0,0.0,0.0,0.0,0.0,0.0,0.0,0.0,0.0,0.0,0.0,0.0,0.0,0.0,0.0,0.0,0.0,0.0,0.0,0.0,0.0,0.0,0.0,0.0,0.0,0.0,0.0,0.0,0.0,0.0,0.0,0.0,0.0,0.0,0.0,0.0,0.0,0.0,0.0,0.0,0.0,0.0,0.0,0.0,0.0,0.0,0.0,0.0,0.0,0.0,0.0,0.0,0.0,0.0,0.0,0.0,0.0,0.0,0.0,0.0,0.0,0.0,0.0,0.0,0.0,0.0,0.0,0.0,0.0,0.0,0.0,0.0,0.0,0.0,0.0,0.0,0.0,0.0,0.0,0.0,0.0,0.0,0.0,0.0,0.0,0.0,0.0,0.0,0.0,0.0,0.0,0.0,0.0,0.0,0.0,0.0,0.0,0.0,0.0,0.0,0.0,0.0,0.0,0.0,0.0,0.0,0.0,0.0,0.0,0.0,0.0,0.0,0.0,0.0,0.0,0.0,0.0,0.0,0.0,0.0,0.0,0.0,0.0,0.0,0.0,0.0,0.0,0.0,0.0,0.0,0.0,0.0,0.0,0.0,0.0,0.0,0.0,0.0,0.0,0.0,0.0,0.0,0.0,0.0,0.0,0.0,0.0,0.0,0.0,0.0,0.0,0.0,0.0,0.0,0.0,0.0,0.0,0.0,0.0,0.0,0.0,0.0,0.0,0.0,0.0,0.0,0.0,0.0,0.0,0.0,0.0,0.0,0.0,0.0,0.0,0.0,0.0,0.0,0.0,0.0,0.0,0.0,0.0,0.0,0.0,0.0,0.0,0.0,0.0,0.0,0.0,0.0,0.0,0.0,0.0,0.0,0.0,0.0,0.0,0.0,0.0,0.0,0.0,0.0,0.0,0.0,0.0,0.0,0.0,0.0,0.0,0.0,0.0,0.0,0.0,0.0,0.0,0.0,0.0,0.0,0.0,0.0,0.0,0.0,0.0,0.0,0.0,0.0,0.0,0.0,0.0,0.0,0.0,0.0,0.0,0.0,0.0,0.0,0.0,0.0,0.0,0.0,0.0,0.0,0.0,0.0,0.0,0.0,0.0,0.0,0.0,0.0,0.0,0.0,0.0,0.0,0.0,0.0,0.0,0.0,0.0,0.0,0.0,0.0,0.0,0.0,0.0,0.0,0.0,0.0,0.0,0.0,0.0,0.0,0.0,0.0,0.0,0.0,0.0,0.0,0.0,0.0,0.0,0.0,0.0,0.0,0.0,0.0,0.0,0.0,0.0,0.0,0.0,0.0,0.0,0.0,0.0,0.0,0.0,0.0,0.0,0.0,0.0,0.0,0.0,0.0,0.0,0.0,0.0,0.0,0.0,0.0,0.0,0.0,0.0,0.0,0.0,0.0,0.0,0.0,0.0,0.0,0.0,0.0,0.0,0.0,0.0,0.0,0.0,0.0,0.0,0.0,0.0,0.0,0.0,0.0,0.0,0.0,0.0,0.0,0.0,0.0,0.0,0.0,0.0,0.0,0.0,0.0,0.0,0.0,0.0,0.0,0.0,0.0,0.0,0.0,0.0,0.0,0.0,0.0,0.0,0.0,0.0,0.0,0.0,0.0,0.0,0.0,0.0,0.0,0.0,0.0,0.0,0.0,0.0,0.0,0.0,0.0,0.0,0.0,0.0,0.0,0.0,0.0,0.0,0.0,0.0,0.0,0.0,0.0,0.0,0.0,0.0,0.0,0.0,0.0,0.0,0.0,0.0,0.0,0.0,0.0,0.0,0.0,0.0,0.0,0.0,0.0,0.0,0.0,0.0,0.0,0.0,0.0,0.0,0.0,0.0,0.0,0.0,0.0,0.0,0.0,0.0,0.0,0.0,0.0,0.0,0.0,0.0,0.0,0.0,0.0,0.0,0.0,0.0,0.0,0.0,0.0,0.0,0.0,0.0,0.0,0.0,0.0,0.0,0.0,0.0,0.0,0.0,0.0,0.0,0.0,0.0,0.0,0.0,0.0,0.0,0.0,0.0,0.0,0.0,0.0,0.0,0.0,0.0,0.0,0.0,0.0,0.0,0.0,0.0,0.0,0.0,0.0,0.0,0.0,0.0,0.0,0.0,0.0,0.0,0.0,0.0,0.0,0.0,0.0,0.0,0.0,0.0,0.0,0.0,0.0,0.0,0.0,0.0,0.0,0.0,0.0,0.0,0.0,0.0,0.0,0.0,0.0,0.0,0.0,0.0,0.0,0.0,0.0,0.0,0.0,0.0,0.0,0.0,0.0,0.0,0.0,0.0,0.0,0.0,0.0,0.0,0.0,0.0,0.0,0.0,0.0,0.0,0.0,0.0,0.0,0.0,0.0,0.0,0.0,0.0,0.0,0.0,0.0,0.0,0.0,0.0,0.0,0.0,0.0,0.0,0.0,0.0,0.0,0.0,0.0,0.0,0.0,0.0,0.0,0.0,0.0,0.0,0.0,0.0,0.0,0.0,0.0,0.0,0.0,0.0,0.0,0.0,0.0,0.0,0.0,0.0,0.0,0.0,0.0,0.0,0.0,0.0,0.0,0.0,0.0,0.0,0.0,0.0,0.0,0.0,0.0,0.0,0.0,0.0,0.0,0.0,0.0,0.0,0.0,0.0,0.0,0.0,0.0,0.0,0.0,0.0,0.0,0.0,0.0,0.0,0.0,0.0,0.0,0.0,0.0,0.0,0.0,0.0,0.0,0.0,0.0,0.0,0.0,0.0,0.0,0.0,0.0,0.0,0.0,0.0,0.0,0.0,0.0,0.0,0.0,0.0,0.0,0.0,0.0,0.0,0.0,0.0,0.0,0.0,0.0,0.0,0.0,0.0,0.0,0.0,0.0,0.0,0.0,0.0,0.0,0.0,0.0,0.0,0.0,0.0,0.0,0.0,0.0,0.0,0.0,0.0,0.0,0.0,0.0,0.0,0.0,0.0,0.0,0.0,0.0,0.0,0.0,0.0,0.0,0.0,0.0,0.0,0.0,0.0,0.0,0.0,0.0,0.0,0.0,0.0,0.0,0.0,0.0,0.0,0.0,0.0,0.0,0.0,0.0,0.0,0.0,0.0,0.0,0.0,0.0,0.0,0.0,0.0,0.0,0.0,0.0,0.0,0.0,0.0,0.0,0.0,0.0,0.0,0.0,0.0,0.0,0.0,0.0,0.0,0.0,0.0,0.0,0.0,0.0,0.0,0.0,0.0,0.0,0.0,0.0,0.0,0.0,0.0,0.0,0.0,0.0,0.0,0.0,0.0,0.0,0.0,0.0,0.0,0.0,0.0,0.0,0.0,0.0,0.0,0.0,0.0,0.0,0.0,0.0,0.0,0.0,0.0,0.0,0.0,0.0,0.0,0.0,0.0,0.0,0.0,0.0,0.0,0.0,0.0,0.0,0.0,0.0,0.0,0.0,0.0,0.0,0.0,0.0,0.0,0.0,0.0,0.0,0.0,0.0,0.0,0.0,0.0,0.0,0.0,0.0,0.0,0.0,0.0,0.0,0.0,0.0,0.0,0.0,0.0,0.0,0.0,0.0,0.0,0.0,0.0,0.0,0.0,0.0,0.0,0.0,0.0,0.0,0.0,0.0,0.0,0.0,0.0,0.0,0.0,0.0,0.0,0.0,0.0,0.0,0.0,0.0,0.0,0.0,0.0,0.0,0.0,0.0,0.0,0.0,0.0,0.0,0.0,0.0,0.0,0.0,0.0,0.0,0.0,0.0,0.0,0.0,0.0,0.0,0.0,0.0,0.0,0.0,0.0,0.0,0.0,0.0,0.0,0.0,0.0,0.0,0.0,0.0,0.0,0.0,0.0,0.0,0.0,0.0,0.0,0.0,0.0,0.0,0.0,0.0,0.0,0.0,0.0,0.0,0.0,0.0,0.0,0.0,0.0,0.0,0.0,0.0,0.0,0.0,0.0,0.0,0.0,0.0,0.0,0.0,0.0,0.0,0.0,0.0,0.0,0.0,0.0,0.0,0.0,0.0,0.0,0.0,0.0,0.0,0.0,0.0,0.0,0.0,0.0,0.0,0.0,0.0,0.0,0.0,0.0,0.0,0.0,0.0,0.0,0.0,0.0,0.0,0.0,0.0,0.0,0.0,0.0,0.0,0.0,0.0,0.0,0.0,0.0,0.0,0.0,0.0,0.0,0.0,0.0,0.0,0.0,0.0,0.0,0.0,0.0,0.0,0.0,0.0,0.0,0.0,0.0,0.0,0.0,0.0,0.0,0.0,0.0,0.0,0.0,0.0,0.0,0.0,0.0,0.0,0.0,0.0,0.0,0.0,0.0,0.0,0.0,0.0,0.0,0.0,0.0,0.0,0.0,0.0,0.0,0.0,0.0,0.0,0.0,0.0,0.0,0.0,0.0,0.0,0.0,0.0,0.0,0.0,0.0,0.0,0.0,0.0,0.0,0.0,0.0,0.0,0.0,0.0,0.0,0.0,0.0,0.0,0.0,0.0,0.0,0.0,0.0,0.0,0.0,0.0,0.0,0.0,0.0,0.0,0.0,0.0,0.0,0.0,0.0,0.0,0.0,0.0,0.0,0.0,0.0,0.0,0.0,0.0,0.0,0.0,0.0,0.0,0.0,0.0,0.0,0.0,0.0,0.0,0.0,0.0,0.0,0.0,0.0,0.0,0.0,0.0,0.0,0.0,0.0,0.0,0.0,0.0,0.0,0.0,0.0,0.0,0.0,0.0,0.0,0.0,0.0,0.0,0.0,0.0,0.0,0.0,0.0,0.0,0.0,0.0,0.0,0.0,0.0,0.0,0.0,0.0,0.0,0.0,0.0,0.0,0.0,0.0,0.0,0.0,0.0,0.0,0.0,0.0,0.0,0.0,0.0,0.0,0.0,0.0,0.0,0.0,0.0,0.0,0.0,0.0,0.0,0.0,0.0,0.0,0.0,0.0,0.0,0.0,0.0,0.0,0.0,0.0,0.0,0.0,0.0,0.0,0.0,0.0,0.0,0.0,0.0,0.0,0.0,0.0,0.0,0.0,0.0,0.0,0.0,0.0,0.0,0.0,0.0,0.0,0.0,0.0,0.0,0.0,0.0,0.0,0.0,0.0,0.0,0.0,0.0,0.0,0.0,0.0,0.0,0.0,0.0,0.0,0.0,0.0,0.0,0.0,0.0,0.0,0.0,0.0,0.0,0.0,0.0,0.0,0.0,0.0,0.0,0.0,0.0,0.0,0.0,0.0,0.0,0.0,0.0,0.0,0.0,0.0,0.0,0.0,0.0,0.0,0.0,0.0,0.0,0.0,0.0,0.0,0.0,0.0,0.0,0.0,0.0,0.0,0.0,0.0,0.0,0.0,0.0,0.0,0.0,0.0,0.0,0.0,0.0,0.0,0.0,0.0,0.0,0.0,0.0,0.0,0.0,0.0,0.0,0.0,0.0,0.0,0.0,0.0,0.0,0.0,0.0,0.0,0.0,0.0,0.0,0.0,0.0,0.0,0.0,0.0,0.0,0.0,0.0,0.0,0.0,0.0,0.0,0.0,0.0,0.0,0.0,0.0,0.0,0.0,0.0,0.0,0.0,0.0,0.0,0.0,0.0,0.0,0.0,0.0,0.0,0.0,0.0,0.0,0.0,0.0,0.0,0.0,0.0,0.0,0.0,0.0,0.0,0.0,0.0,0.0,0.0,0.0,0.0,0.0,0.0,0.0,0.0,-6.7726,0.0,0.0,0.0,0.0,0.0,0.0,0.0,0.0,0.0,0.0,0.0,0.0,0.0,0.0,0.0,0.0,0.0,0.0,0.0,0.0,0.0,0.0,0.0,0.0,-6.1677,-6.1719,-6.1719,-6.1719,-6.1636,-6.1509,0.0,0.0,0.0,0.0,0.0,-6.1585,-6.1678,-6.2148,-6.3008,-6.2578,-6.2344,-6.2344,-6.3242,-6.3203,-6.2383,0.0,0.0,0.0,0.0,0.0,0.0,0.0,0.0,0.0,0.0,0.0,0.0,0.0,0.0,0.0,0.0,0.0,0.0,0.0,0.0,0.0,0.0,0.0,0.0,0.0,0.0,0.0,0.0,0.0,0.0,0.0,0.0,0.0,0.0,0.0,0.0,0.0,0.0,0.0,0.0,0.0,0.0,0.0,0.0,0.0,0.0,0.0,0.0,0.0,0.0,0.0,0.0,0.0,0.0,0.0,0.0,0.0,0.0,0.0,0.0,0.0,0.0,0.0,0.0,0.0,0.0,0.0,0.0,0.0,0.0,0.0,-6.8936,0.0,0.0,0.0,0.0,0.0,0.0,0.0,0.0,0.0,0.0,0.0,0.0,0.0,0.0,0.0,0.0,0.0,0.0,0.0,0.0,0.0,-6.0541,-6.1437,-6.1634,-6.1719,-6.1719,-6.1719,-6.1638,-6.1525,-6.1522,-6.1522,-6.1522,-6.1522,-6.1582,-6.1719,-6.1719,-6.2148,-6.3008,-6.2265,-6.2383,-6.3242,-6.3242,-6.293,-6.2383,-6.25,0.0,0.0,0.0,0.0,0.0,0.0,0.0,0.0,0.0,0.0,0.0,0.0,0.0,0.0,0.0,0.0,0.0,0.0,0.0,0.0,0.0,0.0,0.0,0.0,0.0,0.0,0.0,0.0,0.0,0.0,0.0,0.0,0.0,0.0,0.0,0.0,0.0,0.0,0.0,0.0,0.0,0.0,0.0,0.0,0.0,0.0,0.0,0.0,0.0,0.0,0.0,0.0,0.0,0.0,0.0,0.0,0.0,0.0,0.0,0.0,0.0,0.0,0.0,-7.9939,-8.0785,-8.1323,-8.0439,-7.9746,-7.9092,-7.5976,-7.386,-7.2426,-6.9621,0.0,0.0,0.0,0.0,0.0,0.0,0.0,0.0,0.0,0.0,0.0,0.0,0.0,0.0,0.0,0.0,0.0,0.0,0.0,-6.127,-6.1636,-6.1679,-6.1719,-6.1719,-6.1719,-6.1679,-6.1679,-6.1679,-6.1679,-6.1679,-6.1679,-6.1679,-6.1719,-6.1719,-6.2148,-6.3008,-6.289,-6.3281,-6.414,-6.414,-6.4453,-6.4961,-6.2031,-6.2422,-6.5039,0.0,0.0,0.0,0.0,0.0,0.0,0.0,0.0,0.0,0.0,0.0,0.0,0.0,0.0,0.0,0.0,0.0,0.0,0.0,0.0,0.0,0.0,0.0,0.0,0.0,0.0,0.0,0.0,0.0,0.0,0.0,0.0,0.0,0.0,0.0,0.0,0.0,0.0,0.0,0.0,0.0,-7.2976,-7.3783,0.0,0.0,0.0,0.0,0.0,0.0,0.0,0.0,0.0,0.0,0.0,0.0,0.0,-7.8015,-8.1285,-8.3593,-8.4824,-8.4978,-8.7286,-8.8094,-8.7478,-8.6632,-8.6594,-8.7094,-8.5132,0.0,-7.4284,-7.3171,0.0,0.0,0.0,0.0,0.0,0.0,0.0,0.0,0.0,0.0,0.0,0.0,0.0,0.0,0.0,0.0,0.0,0.0,0.0,0.0,0.0,-6.2578,-6.2969,-6.2461,-6.4687,-6.5039,-6.2578,-6.3828,-6.375,-6.1797,-6.1719,-6.1719,-6.1719,-6.1719,-6.2148,-6.3008,-6.4453,-6.5156,-6.5039,-6.5039,-6.5508,-6.6211,-6.3711,-6.3437,-6.4726,-6.2734,0.0,0.0,0.0,0.0,0.0,0.0,0.0,0.0,0.0,0.0,0.0,0.0,0.0,0.0,0.0,0.0,0.0,0.0,0.0,0.0,0.0,0.0,0.0,0.0,0.0,0.0,0.0,0.0,0.0,0.0,0.0,0.0,0.0,0.0,0.0,0.0,0.0,0.0,0.0,-7.1898,-7.4322,-7.2745,-7.3937,-7.3514,0.0,0.0,0.0,0.0,0.0,0.0,0.0,0.0,0.0,-8.1439,-8.1554,-8.2978,-8.5863,-8.744,-8.8479,-8.8979,-9.0594,-9.1402,-9.1479,-9.1095,-9.0902,-9.0787,-9.0017,-8.6978,-8.2247,-7.8054,-7.5168,-7.3119,0.0,0.0,0.0,0.0,-6.8917,-6.9398,0.0,0.0,0.0,0.0,0.0,0.0,0.0,0.0,0.0,0.0,0.0,0.0,-6.2265,-6.3515,-6.4297,-6.4336,-6.6875,-6.7226,-6.4219,-6.4961,-6.4492,-6.2148,-6.1836,-6.1719,-6.1719,-6.1914,-6.2578,-6.3672,-6.5859,-6.6797,-6.6601,-6.6562,-6.7031,-6.7812,-6.6289,-6.5586,-6.5469,-6.3515,-6.2187,-6.1406,0.0,0.0,0.0,0.0,0.0,0.0,0.0,0.0,0.0,0.0,0.0,0.0,0.0,0.0,0.0,0.0,0.0,0.0,0.0,0.0,0.0,0.0,0.0,0.0,0.0,0.0,0.0,0.0,0.0,0.0,0.0,0.0,0.0,0.0,0.0,0.0,0.0,-7.3553,-7.563,-7.286,-7.613,-7.6669,0.0,0.0,0.0,0.0,0.0,0.0,-7.9477,-8.0939,-8.3516,-8.7363,-8.7478,-8.8709,-9.1248,-9.1672,-9.2172,-9.2826,-9.3249,-9.3787,-9.4364,-9.4364,-9.3903,-9.3133,-9.2903,-9.1595,-8.9171,-8.2747,-7.94,-7.7891,-7.3947,-7.2306,-7.2148,-7.2715,-7.2714,-7.2898,0.0,0.0,0.0,0.0,0.0,0.0,0.0,0.0,0.0,0.0,0.0,-6.1252,-6.3867,-6.4258,-6.5273,-6.7734,-6.664,-6.6055,-6.664,-6.3711,-6.2265,-6.289,-6.2148,-6.1719,-6.1719,-6.25,-6.3789,-6.5469,-6.6445,-6.7734,-6.9297,-6.9258,-6.9687,-7.0469,-6.9531,-6.914,-6.8828,-6.3867,-6.2656,-6.3906,-6.1445,0.0,0.0,0.0,0.0,0.0,0.0,0.0,0.0,0.0,0.0,0.0,0.0,0.0,0.0,0.0,0.0,0.0,0.0,0.0,0.0,0.0,0.0,0.0,0.0,0.0,0.0,0.0,0.0,0.0,0.0,0.0,0.0,0.0,0.0,0.0,0.0,0.0,0.0,-7.7092,-8.2093,0.0,0.0,0.0,0.0,-7.8246,-8.0516,-8.3054,-8.5517,-8.6517,-8.9325,-9.4326,-9.448,-9.5711,-9.825,-9.7519,-9.7134,-9.7173,-9.6442,-9.6134,-9.6172,-9.6172,-9.5711,-9.4826,-9.398,-9.3133,-9.1902,-8.6709,-8.3131,-8.0554,-7.7107,-7.5274,-7.4427,-7.371,-7.4427,-7.5774,0.0,0.0,0.0,0.0,0.0,-5.625,-5.7695,-5.7988,-5.8636,-6.0195,-6.1268,-6.2703,-6.4882,-6.7109,-6.8789,-6.9726,-7.0781,-7.0586,-6.8711,-6.6875,-6.5508,-6.4726,-6.3281,-6.2812,-6.3359,-6.4219,-6.5547,-6.7265,-6.8672,-6.9648,-7.0273,-7.0234,-7.039,-7.0703,-7.039,-6.9961,-6.9258,-6.6289,-6.4414,-6.3281,-6.1211,-6.0403,0.0,0.0,0.0,0.0,0.0,0.0,0.0,0.0,0.0,0.0,0.0,0.0,0.0,0.0,0.0,0.0,0.0,0.0,0.0,0.0,0.0,0.0,0.0,0.0,0.0,0.0,0.0,0.0,0.0,0.0,0.0,0.0,0.0,0.0,0.0,0.0,0.0,-8.2208,-8.694,0.0,-8.3785,-8.4939,-8.5709,-8.5093,-8.7902,-9.0287,-9.1748,-9.3133,-9.498,-9.7365,-9.7442,-9.7865,-9.8788,-9.7942,-9.7519,-9.748,-9.6673,-9.6288,-9.6288,-9.6288,-9.5518,-9.4134,-9.3826,-9.2595,-9.0671,-8.8325,-8.6478,-8.4939,-8.2631,-8.0554,-7.8861,-7.9092,-7.8861,-7.8515,0.0,0.0,0.0,-5.4726,-5.5117,-5.5781,-5.7226,-5.7608,-5.8266,-5.9804,-6.1436,-6.3463,-6.6172,-6.8984,-7.1055,-7.1953,-7.2773,-7.2305,-7.0039,-6.7734,-6.6055,-6.5195,-6.4062,-6.3711,-6.4297,-6.5742,-6.7187,-6.8633,-6.9726,-7.039,-7.0703,-7.039,-7.0273,-7.0273,-7.0273,-7.0117,-6.9805,-6.8398,-6.5937,-6.2851,-6.1363,-6.1303,-6.1816,0.0,0.0,0.0,0.0,0.0,0.0,0.0,0.0,0.0,0.0,0.0,0.0,0.0,0.0,0.0,0.0,0.0,0.0,0.0,0.0,0.0,0.0,0.0,0.0,0.0,0.0,0.0,0.0,0.0,0.0,0.0,0.0,0.0,0.0,-8.1285,-8.5632,-8.5363,-9.0556,-9.2633,-8.8632,-9.0325,-9.1556,-9.1287,-9.3864,-9.5788,-9.6673,-9.775,-9.875,-9.9635,-9.9635,-9.9519,-9.925,-9.8365,-9.7788,-9.748,-9.6673,-9.6288,-9.6288,-9.6019,-9.5057,-9.3672,-9.3095,-9.1748,-8.9863,-8.9017,-8.8171,-8.7209,-8.5555,-8.3862,-8.2362,-8.2324,-8.1593,-8.0708,0.0,-5.207,-5.293,-5.3828,-5.4648,-5.5508,-5.6406,-5.7265,-5.8164,-5.9062,-6.0703,-6.3437,-6.7773,-6.9805,-7.1836,-7.4414,-7.2226,-7.0703,-7.0703,-6.5859,-6.3398,-6.4297,-6.4336,-6.4375,-6.4453,-6.6953,-6.8672,-6.9531,-6.9492,-6.9883,-7.0664,-6.9844,-6.9453,-6.9414,-6.9414,-6.9883,-7.0586,-6.9805,-6.7031,-6.3086,-6.2,-6.2487,-6.3612,0.0,0.0,0.0,0.0,0.0,0.0,0.0,0.0,0.0,0.0,0.0,0.0,0.0,0.0,0.0,0.0,0.0,0.0,0.0,0.0,0.0,0.0,0.0,0.0,0.0,0.0,0.0,0.0,0.0,0.0,0.0,0.0,0.0,-7.8669,-8.3824,-8.7325,-8.6555,-9.3056,-9.5711,-9.0787,-9.4749,-9.7288,-9.6519,-9.7942,-9.925,-10.0096,-10.0096,-10.0481,-10.1289,-10.1289,-10.0904,-10.0096,-9.925,-9.8365,-9.748,-9.6673,-9.6288,-9.6288,-9.5403,-9.4518,-9.3595,-9.1941,-9.071,-8.9825,-8.894,-8.8094,-8.7171,-8.5555,-8.4901,-8.467,-8.2939,-8.2285,-8.2131,-5.1406,-5.1601,-5.2031,-5.2891,-5.3242,-5.3905,-5.5288,-5.5815,-5.6717,-5.8726,-6.1675,-6.5,-6.875,-7.1758,-7.4062,-7.543,-7.2578,-7.0703,-7.0703,-6.5859,-6.3672,-6.5195,-6.5234,-6.6094,-6.7969,-6.875,-6.9531,-7.0351,-7.0976,-7.1094,-7.0703,-7.1094,-7.0625,-6.9492,-7.0078,-6.9805,-6.8906,-6.9336,-6.8437,-6.6562,-6.4301,-6.3939,-6.4416,0.0,0.0,0.0,0.0,0.0,0.0,0.0,0.0,0.0,0.0,0.0,0.0,0.0,0.0,0.0,0.0,0.0,0.0,0.0,0.0,0.0,0.0,0.0,0.0,0.0,0.0,0.0,0.0,0.0,0.0,0.0,-7.8323,-8.1477,-8.2093,-8.7825,-9.2556,-9.4172,-9.7865,-9.9942,-9.9173,-9.9788,-10.0212,-9.9942,-10.0404,-10.0712,-10.1019,-10.1019,-10.1096,-10.1289,-10.1289,-10.0904,-10.0096,-9.925,-9.8365,-9.748,-9.6673,-9.6288,-9.6288,-9.5403,-9.4518,-9.3595,-9.1941,-9.0364,-8.8902,-8.744,-8.6324,-8.5593,-8.5709,-8.5016,-8.3824,-8.2708,-8.1939,-8.14,-5.1406,-5.1406,-5.168,-5.2539,-5.2695,-5.3239,-5.4838,-5.5224,-5.6168,-5.8587,-6.2062,-6.5508,-6.8594,-7.1367,-7.3164,-7.3672,-7.0898,-6.8945,-6.8594,-6.5742,-6.4687,-6.6094,-6.7187,-6.8594,-7.0469,-7.0898,-7.1328,-7.1797,-7.1562,-7.1211,-7.0703,-7.0859,-7.0234,-6.8984,-6.9453,-6.9297,-6.8789,-6.9258,-6.9609,-6.9609,-6.7507,-6.7125,-6.7365,-6.37,-6.3526,-6.5013,-6.2935,-6.3782,-6.5551,-6.3166,0.0,0.0,0.0,0.0,0.0,0.0,0.0,0.0,0.0,0.0,0.0,0.0,0.0,0.0,0.0,0.0,0.0,0.0,0.0,0.0,0.0,0.0,0.0,0.0,-8.2477,-8.6017,-8.7594,-9.1864,-9.5595,-9.7788,-9.9981,-10.152,-10.202,-10.1597,-10.152,-10.1789,-10.1789,-10.1789,-10.1789,-10.1789,-10.1712,-10.1289,-10.1289,-10.0712,-9.9558,-9.9058,-9.8173,-9.698,-9.6519,-9.6095,-9.5711,-9.4864,-9.398,0.0,-9.1056,-8.9594,-8.8517,-8.6478,-8.5324,0.0,0.0,0.0,0.0,0.0,-8.1785,-8.1054,-5.1367,-5.1406,-5.1641,-5.2422,-5.2539,-5.3082,-5.4708,-5.5065,-5.6051,-5.8538,-6.1942,-6.5117,-6.7617,-6.9492,-7.0547,-7.0547,-6.8281,-6.6483,-6.5624,-6.5586,-6.6133,-6.7265,-6.9687,-7.1445,-7.2422,-7.3203,-7.3594,-7.3594,-7.1953,-7.1133,-7.1133,-7.039,-6.957,-6.8633,-6.8633,-6.8945,-6.9492,-6.9531,-7.043,-7.1757,-7.0775,-7.0765,-7.0961,-6.7498,-6.759,-6.9244,-6.6859,-6.6359,-6.659,-6.5436,0.0,0.0,0.0,0.0,0.0,0.0,0.0,0.0,0.0,0.0,0.0,0.0,0.0,0.0,0.0,0.0,0.0,0.0,0.0,0.0,0.0,0.0,0.0,0.0,-8.6868,-9.1095,-9.3633,-9.5403,-9.698,-9.8481,-10.0096,-10.1212,-10.1212,-10.1212,-10.1712,-10.252,-10.2597,-10.2597,-10.2597,0.0,0.0,0.0,0.0,-10.0519,-9.8827,-9.8788,-9.7942,-9.6288,-9.6288,-9.5826,-9.498,-9.4095,-9.3249,-9.2364,-8.9787,-8.8709,-8.8479,-8.5824,-8.4632,-8.4401,-8.3708,-8.3401,-8.3208,-8.2439,-8.1708,0.0,-5.1133,-5.1406,-5.1445,-5.1601,-5.1641,-5.2177,-5.3641,-5.4108,-5.5341,-5.8338,-6.1377,-6.3984,-6.5898,-6.8281,-6.9726,-6.9648,-6.7837,-6.6288,-6.5426,-6.5502,-6.6914,-6.9844,-7.1797,-7.3515,-7.5117,-7.5312,-7.539,-7.539,-7.4375,-7.3867,-7.3828,-7.3672,-7.2773,-7.1289,-7.1289,-7.0625,-6.9531,-7.0195,-7.0625,-7.0976,-7.1279,-7.1019,-7.0283,-6.8579,-6.8244,-6.8513,-6.7282,-6.909,-7.1591,-6.8667,-6.9398,-7.1129,-6.8936,-6.6205,0.0,0.0,0.0,0.0,0.0,0.0,0.0,0.0,0.0,0.0,0.0,0.0,0.0,0.0,0.0,0.0,0.0,0.0,0.0,-8.3811,-8.8729,-9.2903,-9.5441,-9.6634,-9.7403,-9.7711,-9.9288,-10.0289,-10.0289,-10.0904,-10.1712,-10.252,-10.2597,-10.2597,-10.2597,-10.2597,-10.2212,-10.1289,-10.1289,-10.0519,-9.8827,-9.8788,-9.7942,-9.6288,0.0,0.0,-9.498,-9.4095,-9.3249,-9.2364,-8.9787,-8.8709,-8.844,-8.517,-8.3054,-8.1862,-8.2362,-8.2131,-8.1554,-8.14,-8.1246,-8.1093,-5.0469,-5.0781,-5.0937,-5.1328,-5.1324,-5.1837,-5.3366,-5.3757,-5.4884,-5.7673,-6.0161,-6.2187,-6.3515,-6.4805,-6.5586,-6.5547,-6.429,-6.4046,-6.5375,-6.6365,-6.8633,-7.2461,-7.3906,-7.5195,-7.6523,-7.6133,-7.5898,-7.5898,-7.5039,-7.4805,-7.5234,-7.4805,-7.3906,-7.2617,-7.2187,-7.1289,-7.0117,-7.0547,-7.0937,-7.1367,-7.1605,-7.139,-7.0915,-7.0573,-7.04,-7.0283,-7.0283,-7.1668,-7.3245,-7.1552,-7.1822,-7.2629,-7.136,-6.9206,-6.7051,0.0,0.0,0.0,0.0,0.0,0.0,0.0,0.0,0.0,0.0,0.0,0.0,0.0,0.0,-7.2996,-7.6731,0.0,-8.3523,-8.804,-9.1604,-9.4364,-9.6057,-9.6634,-9.7057,-9.7442,-9.8634,-9.9596,-10.0115,-10.0481,-10.1212,-10.252,-10.2981,-10.3097,-10.2597,-10.2981,-10.2712,-10.1289,-10.1289,-10.0519,-9.8827,-9.8788,-9.7942,-9.6288,-9.6288,-9.5826,-9.498,-9.4095,-9.3018,-9.1748,-8.9633,-8.844,-8.7825,-8.4824,-8.2593,-8.1131,-8.1554,-8.1439,-8.1093,-8.1093,-8.1093,-8.0977,-4.9414,-4.9844,-5.0234,-5.1211,-5.1274,-5.172,-5.3356,-5.3724,-5.4651,-5.7074,-5.9026,-6.043,-6.1133,-6.1367,-6.1445,-6.1404,-6.1093,-6.2383,-6.5818,-6.7851,-7.0781,-7.4922,-7.625,-7.7226,-7.793,-7.7265,-7.6875,-7.6875,-7.6015,-7.5937,-7.6601,-7.5937,-7.5039,-7.4023,-7.332,-7.2422,-7.1445,-7.1445,-7.1758,-7.2226,-7.2087,-7.1979,-7.2026,-7.2633,-7.2721,-7.2649,-7.3524,-7.3639,-7.3355,-7.3495,-7.2954,-7.2283,-7.2783,-7.1783,-7.0167,-6.8744,-6.8859,0.0,0.0,0.0,0.0,0.0,0.0,0.0,0.0,-6.7475,-6.8821,-7.2206,-7.4358,-7.7187,-8.2203,-8.4901,-8.7707,-9.1855,-9.4079,-9.548,-9.6211,-9.6288,-9.6557,-9.7211,-9.8019,-9.8904,-9.975,-9.9981,-10.0789,-10.2481,-10.3289,-10.3289,-10.2597,-10.3289,-10.2904,-10.1289,-10.1289,-10.0519,-9.8827,-9.8788,-9.7942,-9.6288,-9.6288,-9.5749,-9.4711,-9.4018,-9.2672,-9.0864,-8.9171,-8.7748,-8.6478,-8.4439,-8.2593,-8.1093,-8.1093,-8.1093,-8.1093,-8.1093,-8.1093,-8.0862,-4.7851,-4.8516,-4.9531,-5.1133,-5.1274,-5.172,-5.3356,-5.3724,-5.4651,-5.7074,-5.8519,-5.9375,-5.9453,-6.0117,-6.0503,-6.038,-6.1788,-6.4098,-6.7417,-7.011,-7.3164,-7.6758,-7.918,-8.0469,-8.0586,-8.0469,-8.0429,-8.0429,-7.957,-7.918,-7.9258,-7.918,-7.8281,-7.6758,-7.664,-7.5703,-7.414,-7.414,-7.3789,-7.3164,-7.3124,-7.2994,-7.2938,-7.377,-7.3987,-7.3908,-7.4794,-7.4013,-7.2739,-7.3452,-7.3034,-7.2591,-7.4861,-7.4437,-7.3053,-7.286,-7.0783,-6.8282,-6.7128,-6.709,-6.7859,-6.986,-6.9783,-7.0437,0.0,-7.5361,-7.5822,-7.9246,-8.1472,-8.3406,-8.5546,-8.86,-9.1217,-9.2482,-9.4636,-9.6172,-9.6288,-9.6288,-9.6326,-9.6442,-9.7134,-9.798,-9.8865,-9.9635,-10.0789,-10.2481,-10.2712,-10.2712,-10.2597,-10.2712,-10.2289,-10.1289,-10.1289,-10.0519,-9.8827,-9.8788,-9.7942,-9.6288,-9.6288,-9.5441,-9.3826,-9.3749,-9.2364,-8.994,-8.8286,-8.6209,-8.3978,-8.3708,-8.2593,-8.1093,-8.1093,-8.1093,-8.1093,-8.1093,-8.1093,-8.0977,-4.75,-4.8281,-4.9257,-5.0377,-5.0483,-5.0949,-5.2606,-5.3321,-5.4238,-5.574,-5.6957,-5.7695,-5.7695,-5.7923,-5.8069,-5.8112,-6.0101,-6.3266,-6.7762,-7.0545,-7.3984,-7.8476,-7.9687,-8.0234,-8.0234,-8.0234,-8.0234,-8.0234,-7.9883,-7.9961,-8.0469,-7.9922,-7.9336,-7.8633,-7.8164,-7.7265,-7.6094,-7.6094,-7.5625,-7.4805,-7.4805,-7.4451,-7.3973,-7.4323,-7.3803,-7.2899,-7.3464,-7.2832,0.0,-7.1448,-7.1403,-7.1706,-7.3283,-7.3322,-7.2629,-7.2129,-7.1321,-7.0437,-6.9552,-6.9667,-7.0206,-7.0744,-7.1745,-7.3283,-7.5938,-7.663,-7.7861,-8.1747,-8.4402,-8.6826,-8.9477,-9.1977,-9.407,-9.5305,-9.6347,-9.7019,-9.7019,-9.6596,-9.6095,-9.5595,-9.6288,-9.7134,-9.7942,-9.8827,-9.9827,-10.1096,-10.202,-10.2404,-10.1904,-10.2289,-10.1981,-10.0596,-10.0596,-9.9788,-9.8057,-9.8057,-9.7442,-9.6288,-9.5788,-9.5172,-9.4403,-9.3441,-9.1595,-8.9094,-8.6901,-8.5055,-8.3555,-8.3054,-8.2131,-8.1093,-8.1093,-8.1093,-8.1054,-8.0516,-8.0323,-8.0169,-4.7539,-4.8516,-4.9412,-4.9922,-4.9878,-5.0369,-5.2003,-5.2986,-5.3864,-5.4796,-5.5848,-5.6558,-5.6558,-5.6456,-5.6448,-5.6557,-5.8801,-6.2279,-6.7148,-7.0312,-7.4219,-7.914,-7.9805,-8.0156,-8.039,-8.0429,-8.0429,-8.0429,-8.0429,-8.0742,-8.1328,-8.0703,-8.0273,-8.0039,-7.9453,-7.8711,-7.789,-7.789,-7.7383,-7.6601,-7.6601,-7.5937,-7.4922,-7.4414,-7.3124,-7.1628,-7.1868,-7.0896,-6.943,-6.8876,-6.8899,-6.9398,-7.0744,-7.1321,-7.1398,-7.0744,-7.0667,-7.0744,-7.0591,-7.1206,-7.1898,-7.2245,-7.4207,-7.6322,-7.7207,-7.8246,-8.0015,-8.3555,-8.6199,-8.8863,-9.1926,-9.3964,-9.5682,-9.7231,-9.7326,-9.725,-9.748,-9.6596,-9.5634,-9.4749,-9.498,-9.5557,-9.6365,-9.7673,-9.8904,-9.9981,-10.1212,-10.1597,-10.1019,-10.1597,-10.1212,-9.9788,-9.975,-9.9019,-9.7519,-9.7519,-9.7096,-9.6288,-9.5403,-9.4864,-9.4557,-9.2441,-9.0441,-8.8556,-8.6017,-8.4401,-8.3516,-8.267,-8.1823,-8.1093,-8.1093,-8.0939,-8.0631,-7.9746,-7.9592,-7.9554,-4.7773,-4.8984,-5.0115,-5.0,-4.9878,-5.0337,-5.1886,-5.284,-5.3772,-5.478,-5.5798,-5.6394,-5.6394,-5.6391,-5.6391,-5.6394,-5.8736,-6.177,-6.5429,-6.9648,-7.3945,-7.8359,-8.0078,-8.1367,-8.2187,-8.2226,-8.2226,-8.2226,-8.2226,-8.2226,-8.2265,-8.2226,-8.1758,-8.0976,-8.0937,-8.0429,-7.9609,-7.9609,-7.914,-7.8437,-7.8437,-7.7383,-7.5664,-7.3984,-7.2179,-7.0537,-7.0567,-6.828,-6.5362,-6.6015,-6.5589,-6.5243,-6.7744,-6.909,-6.9783,-6.9744,-6.8552,-6.7628,-6.9283,-7.0321,-7.1745,-7.5014,-7.7746,-7.9862,-8.0746,-8.2208,-8.3901,-8.567,-8.7423,-8.9462,-9.2018,-9.3864,-9.5538,-9.725,-9.6865,-9.6596,-9.7403,-9.6057,-9.4711,-9.3826,-9.3056,-9.2941,-9.3749,-9.6057,-9.825,-9.9981,-10.0096,-10.0192,-10.0096,-10.0192,-9.975,-9.8865,-9.8827,-9.8404,-9.7519,-9.7519,-9.7096,-9.6288,-9.5403,-9.4557,-9.3633,-9.0325,-8.8748,-8.8556,-8.6017,-8.4401,-8.3516,-8.267,-8.1823,-8.1093,-8.1093,-8.0592,-7.9746,-7.8861,-7.9054,-7.9554,-4.7656,-4.8984,-5.0111,-4.9893,-5.0295,-5.0775,-5.1117,-5.1934,-5.2679,-5.3107,-5.4635,0.0,0.0,0.0,0.0,0.0,-5.8189,-6.0872,-6.4492,-6.8242,-7.1758,-7.4922,-7.832,-8.0039,-7.9765,-8.1445,-8.2304,-8.2304,-8.2304,-8.2304,-8.2304,-8.2304,-8.2148,-8.1875,-8.1875,-8.1719,-8.1445,-8.1445,-8.1289,-8.0859,-7.918,-7.8394,-7.7898,-7.5045,-7.2069,-6.9345,0.0,-6.6562,-6.3945,-6.2944,-6.2733,-6.3089,-6.3935,-6.4782,-6.559,-6.6167,-6.7898,-6.9744,-7.0321,-7.2783,-7.5822,-7.8669,-8.0862,-8.267,-8.4093,-8.4863,-8.5401,-8.5978,-8.6555,-8.7248,-8.8094,-9.0094,-9.2172,-9.3903,-9.4903,-9.5903,-9.7326,-9.7019,-9.5903,-9.3941,-9.448,-9.4441,-9.3018,-9.4672,0.0,-9.825,-9.8904,-9.925,-9.925,-9.925,-9.8827,-9.7942,-9.7942,-9.7557,-9.6711,-9.6711,-9.6557,-9.6288,-9.4826,-9.3095,-9.1133,-8.944,-8.8055,-8.6863,-8.4901,-8.3555,-8.267,-8.1823,-8.1323,-8.1093,-8.1093,-8.0554,-7.9708,-7.8823,-7.8361,-7.7977,0.0,-4.9373,-5.0248,-5.062,-5.0892,0.0,0.0,0.0,0.0,0.0,0.0,0.0,0.0,0.0,0.0,0.0,0.0,-5.974,-6.2695,-6.5586,-6.8476,-7.1367,-7.4414,-7.6094,-7.6172,-7.7773,-7.9062,-8.0,-8.0,-8.0625,-8.1836,-8.1836,-8.1992,-8.2304,-8.2304,-8.2264,-8.2139,-8.1554,-8.1078,-8.0514,-7.794,-7.6585,-7.5785,-7.2656,-6.9613,0.0,-6.5562,-6.4029,-6.2423,-6.1208,-6.1208,-6.172,-6.172,-6.248,-6.3642,-6.4742,-6.7628,-7.086,-7.2706,-7.563,-7.8861,-8.1747,-8.3478,-8.4786,-8.5863,-8.5901,-8.5593,-8.5286,-8.4747,-8.4401,-8.4709,-8.5593,-8.7248,-9.021,-9.1325,-9.2826,-9.5711,-9.5903,-9.5211,-9.3864,-9.4441,-9.4403,-9.3056,-9.3633,-9.4941,-9.6903,-9.7865,-9.8327,-9.8327,-9.8327,-9.7942,-9.7096,-9.7057,-9.6826,-9.6326,-9.6288,-9.598,-9.5365,-9.3633,-9.1787,-8.9863,-8.8402,-8.7171,-8.5978,-8.3978,-8.2824,-8.2247,-8.1439,-8.1093,-8.1093,-8.1093,-8.0362,-7.9285,-7.8707,-7.7784,-7.6707,0.0,0.0,-5.0592,0.0,0.0,0.0,0.0,0.0,0.0,0.0,0.0,0.0,0.0,0.0,0.0,0.0,0.0,0.0,-6.0156,-6.1914,-6.4336,-6.7656,-6.8828,-7.0117,-7.1719,-7.1875,-7.3164,-7.5703,-7.5703,-7.7383,-8.0625,-8.0625,-8.1054,-8.1836,-8.1875,-8.1747,-8.1368,-7.9818,-7.8589,-7.7428,-7.484,-7.2387,-6.9999,-6.7424,-6.5287,-6.3425,-6.1763,-6.1021,-6.0781,-6.0781,-6.0941,-6.1161,-6.1191,-6.2421,-6.4145,-6.5688,-6.8013,-7.1168,-7.613,-7.8784,-8.0939,-8.4324,-8.5709,-8.6209,-8.617,-8.5517,-8.4593,-8.3555,-8.1977,-8.0977,-8.1593,-8.0554,-8.1246,-8.6324,-8.6671,-8.8055,-9.3133,-9.321,-9.3018,-9.3672,-9.3172,-9.2979,-9.3633,-9.3095,-9.3672,-9.6057,0.0,-9.7403,-9.7442,-9.7442,-9.7096,-9.6326,-9.6288,-9.6288,-9.6288,-9.6249,-9.5365,-9.3633,-9.1979,-9.071,-8.9748,-8.7248,-8.6055,-8.5824,-8.3362,-8.2285,-8.217,-8.14,-8.1093,-8.1093,-8.1054,-8.0015,-7.8477,-7.8438,-7.74,-7.5861,0.0,0.0,0.0,0.0,0.0,0.0,0.0,0.0,0.0,0.0,0.0,0.0,0.0,0.0,0.0,0.0,0.0,0.0,-5.8476,-6.0117,-6.1445,-6.2344,-6.5703,-6.7773,-6.8203,-7.0078,-7.168,-7.3008,-7.3008,-7.3789,-7.5273,-7.5273,-7.539,-7.5625,-7.6289,-7.5773,-7.4435,-7.4633,-7.4507,-7.3885,-7.1348,-7.0601,-7.0732,-6.8144,-6.5993,-6.4297,-6.3823,-6.2429,-6.0781,-6.0781,-6.1734,-6.3038,-6.363,-6.5489,-6.7686,-6.9194,-7.236,-7.6053,-7.9246,-8.2285,-8.517,-8.794,-8.8325,-8.7863,-8.7209,-8.594,-8.3939,-8.0516,-7.7938,-7.5822,-7.413,-7.5553,-7.8438,-8.2862,-8.6594,-9.0517,-9.5018,-9.598,-9.5826,-9.4788,-9.5595,-9.5557,-9.3864,-9.4672,-9.5326,0.0,-9.5518,-9.5903,-9.6557,-9.6596,-9.6519,-9.6326,-9.6288,-9.6288,-9.6288,-9.5672,-9.448,-9.2787,-9.171,-9.0441,-8.894,-8.6978,-8.5401,-8.417,-8.2862,-8.1939,-8.14,-8.117,-8.1093,-8.1054,-8.04,-7.9477,-7.8438,-7.7823,-7.6899,-7.5784,0.0,0.0,0.0,0.0,0.0,0.0,0.0,0.0,0.0,0.0,0.0,0.0,0.0,0.0,0.0,0.0,0.0,0.0,0.0,-5.8203,-5.8906,-5.9297,-6.164,-6.3125,-6.3515,-6.5273,-6.6992,-6.8633,-6.8984,-7.0195,-7.2148,-7.2148,-7.2344,-7.2734,-7.3242,-7.2795,-7.1629,-7.1365,-7.0907,0.0,0.0,-6.6825,-6.7044,-6.5196,-6.3841,-6.2935,-6.2935,-6.2474,-6.2036,-6.2855,-6.3883,-6.5173,-6.7113,-6.9248,-7.1436,-7.3587,-7.6746,-8.0054,-8.2593,-8.5747,-8.8517,-8.921,-8.9286,-8.8517,-8.5786,-8.3862,-8.1362,-7.6669,-7.3707,-7.1398,-6.9552,-7.1129,-7.4168,-7.8784,-8.3478,-8.8325,-9.3364,-9.5095,-9.5788,-9.5595,-9.6403,-9.6403,-9.498,-9.5365,-9.5672,-9.5557,-9.5557,-9.5788,-9.6288,-9.6288,-9.6288,-9.6288,-9.6288,-9.6134,-9.5711,-9.4518,-9.3441,-9.2479,-9.0864,-8.9594,-8.8632,-8.6132,-8.4478,-8.3516,0.0,-8.1516,-8.1093,-8.1093,-8.1093,-8.1016,-8.0131,-7.9285,-7.84,-7.7592,-7.6515,-7.5245,0.0,0.0,0.0,0.0,0.0,0.0,0.0,0.0,0.0,0.0,-5.4665,-5.5293,-5.63,-5.6487,0.0,0.0,0.0,0.0,0.0,0.0,-5.6953,-5.7695,-5.7734,-5.8125,-5.9023,-5.9805,-6.1406,-6.3789,-6.4648,-6.664,-6.9687,-6.9687,-7.0078,-7.082,-7.0937,-7.0665,-7.0045,-6.8657,-6.7372,-6.6051,-6.3858,-6.2551,-6.1831,0.0,-6.0781,-6.0781,-6.0781,-6.1743,-6.333,-6.5778,-6.6896,-6.7852,-7.1248,-7.3542,-7.5616,-7.8615,-8.117,-8.3516,-8.6094,-8.9017,-9.1056,-8.971,-8.9556,-8.8479,-8.3593,-8.0823,-7.7861,-7.2745,-6.9667,-6.759,-6.6628,-6.7436,-7.0014,-7.5438,-7.9785,-8.467,-9.0979,-9.3018,-9.448,-9.6095,-9.6403,-9.6442,-9.6326,-9.5711,-9.5595,-9.6249,-9.6288,-9.6288,-9.6288,-9.6288,-9.6288,-9.6288,-9.6172,-9.5711,-9.4826,-9.3287,-9.2441,-9.2287,-8.9863,-8.8709,-8.8556,-8.517,-8.3593,-8.3516,0.0,0.0,-8.1093,-8.1093,-8.1093,-8.1016,-8.0015,-7.9169,-7.84,-7.7476,-7.6169,-7.4745,0.0,0.0,0.0,0.0,0.0,0.0,0.0,0.0,0.0,0.0,-5.6219,-5.5675,0.0,0.0,0.0,0.0,0.0,0.0,0.0,0.0,0.0,-5.6836,-5.6836,-5.7226,-5.8125,-5.8984,-5.9961,-6.1094,-6.1953,-6.3047,-6.4336,-6.4336,-6.4414,-6.4609,-6.5312,-6.4694,-6.3118,-6.3513,-6.2981,-6.1858,-6.1396,-6.1166,-6.1012,-6.0858,0.0,0.0,-6.0781,-6.0973,-6.2071,-6.7482,-7.0385,-7.2231,-7.5459,-7.8253,-8.094,-8.3924,-8.5593,-8.7055,-8.9633,-9.1287,-9.2364,-9.2749,-9.0864,-8.794,-8.4209,-7.99,-7.5207,-7.0129,-6.7051,-6.4782,-6.3255,-6.5359,-6.9667,-7.6899,-8.1054,-8.617,-9.4287,-9.5057,-9.5134,-9.6172,-9.6903,-9.7019,-9.6365,-9.6749,-9.6865,-9.6326,-9.6288,-9.6288,-9.6288,-9.6288,-9.6288,-9.6288,-9.5595,-9.4788,-9.3941,-9.2979,-9.2133,-9.1402,-8.9556,-8.8709,-8.8556,-8.517,-8.3593,-8.3516,0.0,0.0,-8.1093,-8.1093,-8.1093,-8.0939,-7.9361,-7.8631,-7.8323,-7.6784,-7.6015,-7.5553,0.0,0.0,0.0,0.0,0.0,0.0,0.0,-5.467,-5.6661,-6.0708,-6.0661,-6.0083,-5.9638,-5.8551,-5.7586,0.0,0.0,0.0,0.0,0.0,0.0,-5.6601,-5.6601,-5.6797,-5.7226,-5.8515,-5.9375,-5.9765,0.0,-6.1914,-6.2305,-6.2305,-6.2305,-6.2344,-6.2688,-6.2275,-6.1322,-6.1628,-6.1396,-6.0781,-6.0781,-6.0781,-6.0781,0.0,0.0,0.0,-6.0895,-6.1524,-6.296,-6.6786,-7.0512,-7.4366,-7.8919,-8.1561,-8.3687,-8.7254,-8.8798,-8.9825,-9.1941,-9.348,-9.4364,-9.3826,-9.1479,-8.7863,-8.2208,-7.7707,-7.2899,-6.6436,-6.4166,-6.2897,-6.1666,-6.4166,-6.809,-7.3091,-7.6746,-8.1785,-8.9863,-9.1018,-9.2172,-9.5249,-9.6365,-9.6711,-9.6326,-9.6634,-9.6711,-9.6326,-9.6288,-9.6288,-9.6288,-9.6288,-9.6288,-9.6288,-9.5018,-9.4134,-9.371,-9.2441,-9.1595,-9.1171,-8.994,-8.9094,-8.8594,-8.5632,-8.4016,-8.3516,-8.1823,0.0,-8.1093,-8.1093,-8.1093,-8.0977,-7.9669,-7.89,-7.8361,-7.713,-7.6092,-7.5168,0.0,0.0,0.0,0.0,0.0,0.0,-5.5203,-5.6117,-5.8342,-6.3689,-6.5054,-6.4768,-6.2802,-6.1186,-5.9464,0.0,0.0,0.0,0.0,0.0,0.0,0.0,0.0,0.0,-5.6601,0.0,0.0,-5.9219,-6.0898,0.0,0.0,0.0,0.0,0.0,-6.1566,-6.14,-6.1227,-6.1073,-6.0935,0.0,0.0,-6.0781,0.0,0.0,0.0,0.0,0.0,-6.1989,-6.3567,-6.5609,-6.9245,-7.3903,-7.9397,-8.2552,-8.492,-8.866,-9.0443,-9.1595,-9.348,-9.5095,-9.5942,-9.4364,-9.1787,-8.7709,-8.0208,-7.563,-7.0898,-6.3589,-6.1947,-6.1601,-6.0935,-6.3128,-6.6167,-6.9436,-7.2322,-7.6899,-8.4747,-8.6901,-8.9363,-9.3903,-9.5557,-9.6288,-9.6288,-9.6288,-9.6288,-9.6288,-9.6288,0.0,-9.6288,-9.6288,-9.6211,-9.6019,-9.4518,-9.3633,-9.3441,-9.1941,-9.1133,-9.0902,-9.0056,-8.9133,-8.8055,-8.5709,-8.4132,-8.3247,-8.1747,0.0,0.0,-8.1093,-8.1093,-8.0977,-7.9939,-7.9092,-7.8361,-7.74,-7.613,-7.4861,0.0,0.0,0.0,0.0,0.0,0.0,-5.5203,-5.7033,-6.0243,-6.6254,-6.7116,-6.7077,-6.6853,-6.486,-6.195,0.0,0.0,0.0,0.0,0.0,0.0,0.0,0.0,0.0,0.0,0.0,0.0,-5.9219,-6.0898,0.0,0.0,0.0,0.0,0.0,0.0,-6.1315,-6.1031,-6.1006,0.0,0.0,0.0,0.0,0.0,0.0,0.0,0.0,0.0,-6.1213,-6.2023,-6.522,-6.7257,-6.9276,-7.3696,-7.9292,-8.4677,-8.719,-8.9486,-9.1748,-9.421,-9.5595,-9.6057,-9.5095,-9.1825,-8.6978,-8.0054,-7.4668,-6.9436,-6.3371,-6.1485,-6.0896,-6.0819,-6.1716,-6.4282,-6.9898,-7.1706,-7.5361,-8.3824,-8.7055,-8.9594,-9.2402,-9.4826,-9.6288,-9.6288,-9.6288,-9.6288,-9.6288,-9.6288,0.0,-9.6288,-9.6288,-9.5942,-9.5134,-9.421,-9.3364,-9.2633,-9.1672,-9.0787,-9.0017,-8.921,-8.794,-8.6286,-8.4516,-8.3247,-8.2362,-8.1477,0.0,0.0,-8.1093,-8.1093,-8.0939,-7.9246,-7.8554,-7.8284,-7.6707,-7.6015,-7.5668,0.0,0.0,0.0,0.0,0.0,0.0,-5.5895,-5.6626,-5.9452,-6.7004,-6.8895,-6.9692,-7.0218,-6.9201,-6.5917,-5.9601,-5.9273,0.0,0.0,0.0,0.0,0.0,0.0,0.0,0.0,0.0,-6.0195,-6.0703,-6.1914,0.0,0.0,0.0,0.0,0.0,0.0,-6.1119,-6.0988,-6.0915,0.0,0.0,0.0,0.0,0.0,0.0,0.0,0.0,0.0,0.0,-6.1651,-6.3062,-6.4857,-6.671,-6.7916,-7.1767,-7.7086,-8.3058,-8.6376,-8.894,-9.2518,-9.4864,-9.6095,-9.5211,-9.1018,-8.5478,-7.9208,-7.3437,-6.7859,-6.2435,-6.105,-6.0781,-6.0781,-6.1089,-6.2263,-6.5247,-6.5519,-6.7808,-7.4874,-7.7554,-8.1208,-8.7863,-9.0902,-9.348,-9.6057,-9.6288,-9.6288,-9.6288,-9.5826,0.0,-9.5518,-9.5518,-9.5134,-9.4249,-9.3403,-9.2826,-9.2479,-9.1633,-9.0748,-8.9902,-8.9594,-8.8248,-8.6055,-8.4901,-8.3632,-8.2247,-8.1439,0.0,0.0,-8.1093,-8.0785,-8.0246,-7.9554,-7.8669,-7.7707,-7.7015,-7.6438,-7.5745,0.0,0.0,0.0,0.0,0.0,-5.2049,-5.6011,-5.6549,-5.9165,-6.6667,-6.8898,-7.0283,-7.1668,-7.066,-6.7857,-6.2704,-6.1132,0.0,0.0,0.0,0.0,0.0,0.0,0.0,0.0,0.0,-6.1094,-6.1719,-6.2812,-6.3398,0.0,0.0,-6.2467,-6.1807,0.0,0.0,0.0,0.0,0.0,0.0,0.0,0.0,0.0,0.0,0.0,0.0,0.0,0.0,0.0,0.0,0.0,-6.4726,-6.4101,-6.6036,-7.0082,-7.7952,-8.2166,-8.5282,-8.9765,-9.2864,-9.4634,-9.4018,-8.9787,-8.4209,-7.8284,-7.2514,-6.7051,-6.2166,-6.0973,-6.0781,-6.0781,-6.0781,-6.1114,-6.2143,-6.1929,-6.3566,-6.9136,-7.1463,-7.5421,-8.2955,-8.6094,-8.9363,-9.3633,-9.5172,-9.5903,-9.5903,0.0,0.0,-9.4249,-9.4018,-9.371,-9.3364,-9.2787,-9.2249,-9.1748,-9.1133,-9.0248,-8.9171,-8.8902,-8.7594,-8.5324,-8.4516,-8.3324,-8.19,0.0,0.0,0.0,-8.0823,-8.0362,-7.9746,-7.9246,-7.8323,-7.7284,-7.7015,-7.6515,-7.5745,0.0,0.0,0.0,0.0,0.0,-5.1828,-5.5203,-5.7165,-6.0127,-6.5243,-6.6628,-6.809,-7.0629,-6.8248,-6.6757,-6.7443,-6.3157,0.0,0.0,0.0,0.0,0.0,0.0,0.0,-5.918,-6.082,-6.168,-6.1719,-6.3437,-6.4297,-6.4258,-6.3254,-6.2707,-6.2534,0.0,0.0,0.0,0.0,-6.0781,0.0,0.0,0.0,-6.3077,0.0,0.0,0.0,0.0,0.0,0.0,0.0,0.0,0.0,0.0,-6.3541,-6.5457,-7.2146,-7.6914,-8.1143,-8.6098,-8.9325,-9.1248,-9.1248,-8.8055,-8.3362,-7.7361,-7.2052,-6.7205,-6.2947,-6.1408,-6.0781,-6.0781,-6.0781,-6.1114,-6.2143,-6.2993,-6.5035,-6.9311,-7.2076,-7.491,-7.8175,-8.0823,-8.4055,-8.8363,-9.2556,-9.5018,-9.5018,0.0,0.0,-9.2556,-9.171,-9.1633,-9.2479,-9.2479,-9.1672,-8.9923,-8.994,-8.9094,-8.7401,-8.6555,-8.5247,-8.3593,-8.2708,-8.1862,0.0,0.0,0.0,0.0,-8.0169,-7.9823,-7.9631,-7.7977,-7.7323,-7.7207,-7.6322,-7.6015,-7.5745,0.0,0.0,0.0,0.0,0.0,0.0,-5.2856,-5.4087,-5.6626,-6.1743,-6.3628,-6.5936,-6.9667,-6.7842,-6.6665,-6.7521,-6.4838,0.0,0.0,0.0,0.0,0.0,0.0,0.0,-6.0898,-6.2617,-6.4062,-6.5234,-6.6953,-6.7812,-6.7812,-6.6681,-6.5166,-6.3352,-6.2259,-6.1412,0.0,-6.0781,-6.1127,-6.1639,0.0,-6.1473,-6.2397,0.0,0.0,0.0,0.0,0.0,0.0,0.0,0.0,0.0,0.0,0.0,0.0,-6.6225,-7.1225,-7.6181,-7.8336,-8.1552,-8.4016,-8.2824,-7.9785,-7.6169,-7.2514,-6.8629,-6.4936,-6.1858,-6.0973,-6.0781,-6.0781,-6.0781,-6.1537,-6.3859,-6.3758,-6.4374,-6.7115,-6.9997,-7.347,-7.7953,-8.5901,-9.1748,-9.371,0.0,-9.498,0.0,0.0,0.0,0.0,-9.0248,-8.9863,-9.071,-9.0171,-8.9363,-8.8209,-8.8209,-8.7363,-8.5709,-8.5401,-8.4401,-8.2708,-8.2439,0.0,0.0,0.0,0.0,0.0,-7.9515,-7.89,-7.8746,-7.7053,-7.6399,-7.6322,-7.5438,-7.513,-7.4976,0.0,0.0,0.0,0.0,0.0,0.0,-5.2241,-5.3126,-5.5049,-5.8858,-6.0819,-6.3512,-6.7782,-6.6263,-6.5777,-6.791,-6.6087,0.0,0.0,0.0,0.0,0.0,0.0,0.0,-6.2148,-6.3594,-6.5469,-6.7851,-6.9219,-7.0389,-7.1275,-7.0133,-6.804,-6.511,-6.4012,-6.2512,0.0,-6.1127,-6.1601,-6.2062,-6.1524,-6.1639,-6.2062,0.0,0.0,0.0,0.0,0.0,0.0,0.0,0.0,0.0,0.0,0.0,0.0,0.0,-6.6322,-7.0506,-7.2921,-7.5851,-7.813,-7.7669,-7.5014,-7.2014,-7.0129,-6.6821,-6.3587,-6.1737,-6.1102,-6.0871,-6.0871,-6.0953,-6.1595,-6.3372,-6.3036,-6.3446,-6.6004,-6.8472,-7.2148,-7.7838,-8.6286,-9.1864,0.0,-9.3441,0.0,0.0,0.0,0.0,0.0,-8.8363,-8.7632,-8.844,-8.8286,-8.7786,-8.6901,-8.6594,-8.5786,-8.4401,-8.4093,-8.3362,-8.2285,-8.1977,0.0,0.0,0.0,0.0,0.0,-7.8746,-7.7861,-7.7438,-7.6399,-7.5784,-7.5438,-7.4899,-7.4707,-7.4553,0.0,0.0,0.0,0.0,0.0,0.0,0.0,-5.378,-5.4934,-5.6599,-5.828,-6.0896,-6.5013,-6.3693,-6.413,-6.8196,-6.6675,0.0,0.0,0.0,0.0,0.0,0.0,-6.125,-6.2851,-6.3945,-6.6094,-6.9414,-7.0508,-7.2254,-7.4441,-7.3508,-7.1117,-6.7532,-6.6468,-6.4051,-6.0858,-6.1678,-6.2062,-6.2101,-6.2024,-6.2062,0.0,0.0,0.0,0.0,0.0,0.0,0.0,0.0,0.0,0.0,0.0,0.0,0.0,0.0,0.0,0.0,0.0,-7.1605,-7.3129,-7.463,-7.2629,-7.009,-6.9321,-6.609,0.0,-6.2346,-6.1551,-6.1018,-6.1057,-6.1189,-6.1349,-6.1633,-6.16,-6.2684,-6.5978,-6.8041,-7.1638,-7.8175,-8.3324,-8.6363,-8.6363,-8.9902,0.0,0.0,0.0,0.0,0.0,-8.6132,-8.517,-8.5901,-8.6632,-8.6632,-8.5824,-8.5093,-8.4286,-8.3401,-8.2593,-8.2208,-8.217,-8.1439,0.0,0.0,0.0,0.0,0.0,-7.79,-7.6746,-7.5976,-7.5861,-7.5322,-7.463,-7.4553,-7.4514,-7.4322,0.0,0.0,0.0,0.0,0.0,0.0,0.0,0.0,0.0,0.0,-5.6549,-5.8473,-6.0742,-6.1375,-6.2534,0.0,0.0,0.0,0.0,0.0,0.0,0.0,-6.1406,-6.1601,-6.1992,-6.4805,-6.7305,-6.9414,-7.293,-7.5224,-7.6279,-7.589,-7.3418,-6.9236,-6.7547,-6.4589,-6.0819,-6.1012,-6.1473,-6.2062,-6.1358,-6.1512,0.0,0.0,0.0,0.0,-6.0997,-6.1135,0.0,0.0,0.0,0.0,0.0,0.0,0.0,0.0,-6.1303,-6.1283,-6.3132,0.0,-6.5628,-6.5397,-6.4756,-6.414,0.0,-6.3101,-6.2151,-6.1334,-6.101,-6.1048,-6.1704,-6.1418,-6.1989,-6.4746,-6.4636,-6.4983,-6.7192,-7.2064,-7.7395,-8.274,-8.6709,-8.9017,-8.9017,-8.9363,0.0,0.0,0.0,0.0,0.0,-8.4593,-8.3978,-8.417,-8.3747,-8.3401,-8.3208,-8.3016,-8.2516,-8.167,-8.1477,-8.1362,-8.1362,-8.1208,0.0,0.0,0.0,0.0,-7.9631,-7.7284,-7.6169,-7.5861,-7.4591,-7.3976,-7.3707,-7.3014,-7.2783,-7.2745,0.0,0.0,0.0,0.0,0.0,0.0,0.0,0.0,0.0,0.0,-5.6049,-5.7934,-5.8858,-6.0367,-6.1951,0.0,0.0,0.0,0.0,0.0,0.0,-6.2344,-6.1914,-6.1875,-6.2305,-6.4922,-6.7695,-7.0586,-7.375,-7.6191,-7.7919,-7.7799,-7.5107,-7.0201,-6.6485,-6.332,-6.0819,-6.1243,-6.1435,-6.1512,-6.1435,0.0,0.0,0.0,0.0,0.0,-6.0905,-6.0993,0.0,-6.2067,-6.2104,-6.1868,0.0,0.0,0.0,0.0,-6.0549,-6.0016,-6.0083,-6.1384,-6.282,-6.3166,-6.2935,-6.2743,-6.3166,-6.232,-6.1405,-6.0997,-6.0604,-6.0604,-6.1453,-6.1006,-6.1426,-6.4208,-6.4564,-6.5926,-6.9974,-7.4926,-7.9649,-8.3833,-8.6594,-8.8017,0.0,0.0,0.0,0.0,0.0,0.0,0.0,-8.3131,-8.2631,-8.2978,-8.217,-8.1939,-8.2285,-8.1939,-8.1516,-8.1093,-8.1093,-8.1093,-8.1093,-8.0708,-8.0516,0.0,0.0,0.0,-7.8477,-7.6284,-7.5207,-7.4745,-7.386,-7.3245,-7.286,-7.236,-7.2206,-7.2129,0.0,0.0,0.0,0.0,0.0,0.0,0.0,0.0,0.0,0.0,0.0,0.0,0.0,0.0,0.0,0.0,0.0,0.0,0.0,0.0,0.0,-6.3242,-6.2226,-6.2187,-6.3164,-6.4648,-6.7422,-7.1601,-7.3633,-7.6024,-7.8766,-7.9282,-7.6429,-7.0667,-6.5294,-6.2101,-6.0858,-6.1601,-6.1485,-6.0858,-6.1601,0.0,0.0,0.0,0.0,0.0,0.0,0.0,0.0,-6.2511,-6.2594,-6.2228,-6.286,0.0,0.0,0.0,0.0,0.0,-5.9499,-6.0958,-6.2716,-6.3589,-6.3474,-6.3281,-6.3897,-6.2358,-6.0823,-6.0944,-6.0449,-6.0217,-6.102,-6.0847,-6.1095,-6.2698,-6.3992,-6.7029,-7.3433,-7.6908,-7.9944,-8.2887,-8.4709,0.0,0.0,0.0,0.0,0.0,0.0,0.0,0.0,-8.1862,-8.14,-8.2093,-8.1477,-8.1439,-8.2093,-8.1439,-8.1093,-8.1093,-8.1093,-8.1016,-8.09,-8.0131,-7.9746,0.0,0.0,0.0,-7.6976,-7.5361,-7.4168,-7.3283,-7.3168,-7.2591,-7.1783,-7.1668,-7.1629,-7.1514,0.0,0.0,0.0,0.0,0.0,0.0,0.0,0.0,0.0,0.0,0.0,0.0,0.0,0.0,0.0,0.0,0.0,0.0,0.0,0.0,0.0,-6.414,-6.2578,-6.2461,-6.4062,-6.4375,-6.6289,-6.9883,-7.3047,-7.5495,-7.7311,-8.0039,-7.7564,-7.0783,-6.7705,-6.4282,-6.0819,-6.0935,-6.0935,-6.0819,-6.0935,0.0,0.0,0.0,0.0,0.0,0.0,0.0,0.0,-6.0403,-6.0678,-6.1034,-5.9971,0.0,0.0,0.0,0.0,0.0,-6.2055,-6.3583,-6.3589,-6.0935,-6.1281,-6.2139,-6.1512,-6.1089,-6.0793,-6.085,-6.0734,-6.0888,-6.1785,-6.2654,-6.3508,-6.4321,-6.7274,-7.1268,-7.6428,-7.8254,-7.9668,-8.1285,0.0,0.0,0.0,0.0,0.0,0.0,0.0,0.0,0.0,-8.1246,-8.117,-8.1285,-8.117,-8.117,-8.1285,-8.117,-8.1093,-8.1093,-8.1093,-8.0708,-8.0015,-7.9862,-7.94,0.0,0.0,-7.6861,-7.613,-7.513,-7.3783,-7.2322,-7.1591,-7.0783,-6.9975,-6.9244,-6.8975,-6.8975,0.0,0.0,0.0,0.0,0.0,0.0,0.0,0.0,0.0,0.0,0.0,0.0,0.0,0.0,0.0,0.0,0.0,0.0,0.0,-6.5156,-6.5351,-6.6367,-6.4726,-6.3945,-6.4297,-6.5664,-6.8086,-7.1562,-7.4531,-7.6736,-7.809,-7.7516,-7.478,-7.0129,-6.709,-6.3897,-6.0781,-6.0781,-6.0781,-6.0781,0.0,0.0,0.0,0.0,0.0,0.0,0.0,0.0,0.0,0.0,-6.1195,-6.17,-6.02,0.0,0.0,0.0,0.0,0.0,-5.926,-6.0756,-6.1589,-6.0473,-6.2858,-6.5051,-6.3243,-6.2474,-6.2012,-6.1589,-6.1186,-6.1175,-6.2035,-6.3115,-6.5061,-6.8694,-7.1608,-7.4441,-7.7389,-7.8544,-7.9418,0.0,0.0,0.0,0.0,0.0,0.0,0.0,0.0,0.0,0.0,0.0,-8.1093,-8.1093,-8.1093,-8.1093,-8.1093,-8.1093,-8.1093,-8.1093,-8.0631,-8.0208,-7.9785,-7.8861,-7.8246,-7.7784,0.0,-7.5668,-7.5207,-7.3899,-7.2899,-7.2052,-7.0744,-7.0014,-6.959,-6.8744,-6.8385,-6.8385,0.0,0.0,0.0,0.0,0.0,0.0,0.0,0.0,0.0,0.0,0.0,0.0,0.0,0.0,0.0,0.0,0.0,0.0,0.0,-6.4844,-6.5508,-6.75,-6.6523,-6.5976,-6.6094,-6.7656,-7.0156,-7.3594,-7.6015,-7.8049,-7.961,-7.61,-7.2866,-6.986,-6.6628,-6.3551,-6.0781,-6.0781,-6.0781,-6.0781,0.0,0.0,0.0,0.0,0.0,0.0,0.0,0.0,0.0,0.0,0.0,0.0,0.0,0.0,0.0,-5.8984,-5.796,-5.7448,-5.7631,-5.8712,-6.0012,-6.0896,-6.4051,-6.6667,-6.5705,-6.4666,-6.3897,-6.3858,-6.3274,-6.282,-6.3136,-6.4231,-6.6995,-7.2812,-7.5056,-7.663,-7.8175,-7.8792,-7.9135,-7.9437,0.0,0.0,0.0,0.0,0.0,0.0,0.0,0.0,0.0,0.0,-8.0708,-8.0516,-8.0708,-8.0708,-8.0477,-8.0477,-8.0592,-8.0785,-8.0131,-7.9592,-7.9169,-7.79,-7.7092,-7.663,-7.5284,-7.4476,-7.4014,-7.2745,-7.1975,-7.1475,-6.9975,-6.9167,-6.8744,-6.8052,-6.7821,-6.7821,0.0,0.0,0.0,0.0,0.0,0.0,0.0,0.0,0.0,0.0,0.0,0.0,0.0,0.0,0.0,0.0,0.0,0.0,0.0,-6.5078,-6.5586,-6.5781,-6.6445,-6.8242,-7.1367,-7.0039,-7.1015,-7.4492,-7.6328,-7.8674,-8.1447,-7.8641,-7.4973,-7.0706,-6.809,-6.4628,-6.0781,-6.0781,-6.0781,-6.0781,-6.0781,0.0,0.0,0.0,0.0,0.0,0.0,0.0,0.0,0.0,0.0,0.0,0.0,0.0,-5.9492,-6.0039,-5.89,-5.8065,-6.1205,-6.1384,-6.0935,-6.1793,-6.2293,-6.3512,-6.7282,-6.6859,-6.6359,-6.8667,-6.8488,-6.7446,-6.6061,-6.7324,-7.0128,-7.4917,-7.617,-7.7403,-7.9866,0.0,0.0,0.0,0.0,0.0,0.0,0.0,0.0,0.0,0.0,0.0,0.0,0.0,0.0,-7.8707,-7.9477,-7.9515,-7.8707,-7.8669,-7.9092,-7.99,-7.9823,-7.8977,-7.7476,-7.7361,-7.6399,-7.4899,-7.4745,-7.3822,-7.236,-7.2245,-7.1283,-6.9783,-6.8859,-6.7552,-6.6167,-6.609,-6.609,-6.609,0.0,0.0,0.0,0.0,0.0,0.0,0.0,0.0,0.0,0.0,0.0,0.0,0.0,0.0,0.0,0.0,0.0,0.0,-6.3254,-6.3747,-6.4726,-6.6328,-6.6719,-6.8008,-7.039,-7.1367,-7.3789,-7.7773,-7.9281,-7.9751,-7.9282,-7.6389,-7.2739,-6.8436,-6.5859,-6.3551,-6.1562,-6.1012,-6.1089,-6.1562,-6.1012,-6.0781,0.0,0.0,0.0,0.0,0.0,0.0,0.0,0.0,-6.0488,-6.0813,-5.8984,-5.9101,-5.9687,-5.8398,-5.7726,-5.7564,-5.8371,-5.968,-6.0858,-6.1204,-6.2089,-6.3666,-6.6859,-6.7513,-6.8013,-7.0014,-7.0272,-6.9698,-6.8287,-6.9553,-7.1776,-7.4648,-7.6053,-7.7261,-7.8635,0.0,0.0,0.0,0.0,0.0,0.0,0.0,0.0,0.0,0.0,0.0,0.0,0.0,0.0,-7.8515,-7.8823,-7.8823,-7.8477,-7.8477,-7.84,-7.8246,-7.8246,-7.79,-7.7246,-7.6169,-7.5322,-7.463,-7.3591,-7.2783,-7.2168,-7.1629,-7.0706,-6.9552,-6.8129,-6.6898,-6.5897,-6.5897,-6.5897,-6.5897,0.0,0.0,0.0,0.0,0.0,0.0,0.0,0.0,0.0,0.0,0.0,0.0,0.0,0.0,0.0,0.0,0.0,0.0,-6.2711,-6.2921,-6.3906,-6.5976,-6.6328,-6.7422,-6.9453,-7.1719,-7.4726,-7.8515,-8.0641,-8.0411,-7.7849,-7.514,-7.1898,-6.8167,-6.5628,-6.4051,-6.3217,-6.2089,-6.1781,-6.2024,-6.1127,-6.0781,0.0,0.0,0.0,0.0,0.0,0.0,0.0,0.0,-6.0786,-6.0976,-5.9258,-5.9297,-5.9687,-5.793,-5.7623,-5.7731,-5.7141,-5.8296,-5.9787,-6.0265,-6.1243,-6.3128,-6.7013,-6.859,-6.9975,-7.2745,-7.2206,-7.0926,-6.9746,-7.044,-7.1758,-7.3515,-7.5001,-7.6258,0.0,0.0,0.0,0.0,0.0,0.0,0.0,0.0,0.0,0.0,0.0,0.0,0.0,0.0,0.0,0.0,-7.7977,-7.7861,-7.7323,-7.7284,-7.6899,-7.6092,-7.6092,-7.6245,-7.6438,-7.4976,-7.4014,-7.3437,-7.2283,-7.1475,-7.0937,-7.036,-6.9629,-6.8744,-6.7282,-6.6359,-6.5897,-6.5897,-6.5743,-6.5474,0.0,0.0,0.0,0.0,0.0,0.0,0.0,0.0,-6.0781,-6.0781,0.0,0.0,0.0,0.0,0.0,0.0,0.0,0.0,-6.2707,-6.2882,-6.3359,-6.4219,-6.5117,-6.6797,-6.9375,-7.1094,-7.3242,-7.5898,-7.9739,-8.0333,-7.7772,-7.5642,-7.3283,-7.0706,-6.8205,-6.6628,-6.5743,-6.4012,-6.282,-6.2024,-6.1127,-6.0781,-6.0781,0.0,0.0,0.0,0.0,0.0,0.0,0.0,-6.0903,-6.039,-6.039,-5.9844,-5.9219,-5.918,-5.905,-5.8874,-5.8725,-5.7948,-5.7585,-5.9128,-5.9511,-6.132,-6.8167,-7.0321,-7.2322,-7.7438,-7.4702,-7.1194,-7.036,-6.9819,-7.0078,-7.1719,-7.3072,-7.4286,0.0,0.0,0.0,0.0,0.0,0.0,0.0,0.0,0.0,0.0,0.0,0.0,0.0,0.0,0.0,0.0,-7.6823,-7.6438,-7.4707,-7.4707,-7.4284,-7.3514,-7.3462,-7.3899,-7.4668,-7.386,-7.2552,-7.0898,-7.0898,-6.9937,-6.8385,-6.8385,-6.7898,-6.7013,-6.6205,-6.5897,-6.5897,-6.5897,-6.532,-6.4589,0.0,0.0,0.0,0.0,0.0,0.0,0.0,0.0,-6.0781,-6.0781,-6.0781,0.0,0.0,0.0,0.0,0.0,0.0,0.0,-6.0755,-6.0363,-6.0534,-6.1523,-6.2383,-6.3515,-6.4883,-6.8359,-7.2031,-7.5898,-7.7375,-7.5871,-7.1628,-7.0683,-6.859,-6.5551,-6.5397,-6.4859,-6.4012,-6.2935,-6.2332,-6.2024,-6.1127,-6.0781,-6.0781,0.0,0.0,0.0,0.0,0.0,0.0,0.0,0.0,0.0,-5.9881,-6.0195,-6.0468,-5.7952,-5.7974,-5.8457,-5.7119,-5.7753,-5.8929,-5.938,-6.132,-6.4243,-6.8706,-6.9898,-7.1321,-7.5822,-7.5258,-7.3345,-7.142,-7.1044,-7.0876,-7.0312,-7.0852,-7.1414,0.0,0.0,0.0,0.0,0.0,0.0,0.0,0.0,0.0,0.0,0.0,0.0,0.0,0.0,0.0,0.0,-7.5361,-7.5207,-7.4707,-7.413,-7.3745,-7.35,-7.2245,-7.2437,-7.3822,-7.236,-7.1398,-7.0821,-6.9667,-6.8859,-6.8359,-6.7744,-6.7321,-6.7013,-6.6205,-6.5513,-6.4974,-6.4974,-6.4436,-6.3705,0.0,0.0,0.0,0.0,0.0,0.0,0.0,0.0,-6.0396,-6.0742,-6.0781,-6.0781,0.0,0.0,0.0,0.0,0.0,0.0,-5.989,-5.9282,-5.9495,-6.0772,-6.1054,-6.207,-6.3984,-6.789,-7.0703,-7.2305,-7.4254,-7.2891,-6.8514,-6.9206,-6.8205,-6.5897,-6.709,-6.6974,-6.5782,-6.4589,-6.3332,-6.2024,-6.1127,-6.0781,-6.0781,0.0,0.0,0.0,0.0,0.0,0.0,0.0,0.0,0.0,-5.9684,-5.9883,-6.0194,-5.7619,-5.7294,-5.7727,-5.7474,-5.7987,-5.8893,-6.02,-6.232,-6.5089,-6.8859,-7.1283,-7.3437,-7.5976,-7.5205,-7.3655,-7.2166,-7.1053,-7.0139,-6.9531,-6.9607,0.0,0.0,0.0,0.0,0.0,0.0,0.0,0.0,0.0,0.0,0.0,0.0,0.0,0.0,0.0,0.0,0.0,-7.4207,-7.4053,-7.3707,-7.2899,-7.2322,-7.1975,-7.0591,-7.0475,-7.1423,-7.0398,-6.9706,-6.9283,-6.7628,-6.6705,-6.632,-6.582,-6.559,-6.5551,-6.5051,-6.4551,-6.4089,-6.4089,-6.3551,-6.282,0.0,0.0,-5.6011,-5.6945,0.0,0.0,0.0,0.0,0.0,0.0,-6.0742,-6.0781,0.0,0.0,0.0,0.0,0.0,-5.9663,-5.9689,-5.9104,-5.9537,-6.1306,-6.1122,-6.2538,-6.5859,-6.8828,-6.918,-6.6797,-7.0584,-7.0654,-6.7301,-6.9652,-7.0212,-6.9321,-7.0975,-7.0744,-6.9013,-6.7359,-6.4782,-6.1793,-6.1089,-6.0781,-6.0781,-6.0781,0.0,0.0,0.0,0.0,0.0,0.0,0.0,0.0,-5.9642,-5.9179,-5.8942,-5.7802,-5.7001,-5.6925,-5.8901,-5.8445,-5.8178,-6.1389,-6.3128,-6.5051,-6.9013,-7.3553,-7.6938,-7.6861,-7.4807,-7.2912,-7.2655,-7.0348,-6.867,-6.9219,0.0,0.0,0.0,0.0,0.0,0.0,0.0,0.0,0.0,0.0,0.0,0.0,0.0,0.0,0.0,0.0,0.0,0.0,-7.3154,-7.2783,-7.1975,-7.1091,-7.0283,0.0,-6.859,-6.8129,-6.8038,-6.8205,-6.7782,-6.6782,-6.5166,-6.4051,-6.3308,-6.3308,-6.3308,-6.3308,-6.3308,-6.3281,-6.3205,-6.3205,-6.2666,-6.1985,0.0,0.0,-5.6203,-5.7742,0.0,0.0,0.0,0.0,0.0,0.0,-6.0358,0.0,0.0,0.0,0.0,0.0,-5.9067,-5.8654,-5.8772,-5.8017,-5.8402,-6.0238,-6.3514,-6.6246,-6.8385,-6.7963,-6.7109,-6.5898,-6.7277,-6.6494,-6.3747,-6.6084,-6.6681,-6.5782,-6.7436,-6.6898,-6.4628,-6.3589,-6.1973,-6.0089,-6.0589,-6.0781,-6.0781,-6.0781,-6.0781,0.0,0.0,0.0,0.0,0.0,0.0,0.0,-5.9235,-5.8948,-5.8627,-5.6974,-5.6747,-5.7101,-5.7468,-5.8263,-5.9667,-6.237,-6.6167,-6.9706,-7.1283,-7.3053,-7.413,-7.3437,-7.4357,-7.456,-7.2182,-7.1213,-7.0277,-6.8709,0.0,0.0,0.0,0.0,0.0,0.0,0.0,0.0,0.0,0.0,0.0,0.0,0.0,0.0,0.0,0.0,0.0,-7.0514,-7.0514,-7.0437,-7.0244,-6.936,-6.8513,0.0,-6.6821,-6.609,-6.5474,-6.6782,-6.6551,-6.5089,-6.4051,-6.3462,-6.3308,-6.3308,-6.3308,-6.3308,-6.3308,-6.2897,-6.237,-6.237,-6.182,-6.1089,0.0,0.0,0.0,0.0,0.0,0.0,0.0,0.0,0.0,0.0,0.0,-6.0012,-5.955,-5.955,0.0,0.0,-5.8165,-5.7692,-5.7796,-5.7404,-5.8219,-6.0487,-6.4364,-6.6568,-6.6759,-6.6336,-6.554,-6.4375,-6.429,-6.3455,-6.2029,-6.4481,-6.549,-6.5282,-6.6974,-6.632,-6.3897,-6.3474,-6.182,-5.9588,-6.0435,-6.0781,-6.0742,-6.0319,-6.0435,-6.0742,-6.0319,0.0,0.0,0.0,0.0,0.0,0.0,0.0,-5.8127,-5.7002,-5.6364,-5.6317,-5.779,-5.855,-5.9819,-6.3589,-6.6821,-6.9436,-7.0706,-7.1668,-7.2014,-7.1168,-7.2456,-7.3234,-7.1666,-7.0155,-6.8773,0.0,0.0,0.0,0.0,0.0,0.0,0.0,0.0,0.0,0.0,0.0,0.0,0.0,0.0,0.0,0.0,-6.7398,-6.8244,-6.9052,-6.909,-6.8898,-6.8475,-6.7628,-6.6782,-6.5897,-6.5051,-6.4436,-6.4012,-6.4897,-6.4589,-6.3358,-6.2935,-6.2474,-6.2089,-6.2089,-6.2089,-6.2089,-6.2089,-6.1858,-6.1485,-6.1485,-6.1166,-6.0781,0.0,0.0,0.0,0.0,0.0,0.0,0.0,0.0,0.0,0.0,0.0,-5.9435,-5.9319,-5.8704,-5.8242,0.0,0.0,0.0,-5.6983,-5.7371,-5.8759,-6.1444,-6.4506,-6.5612,-6.4517,-6.4733,-6.4191,-6.2773,-6.1874,-6.1444,-6.1556,-6.3839,-6.5174,-6.5743,-6.6974,-6.6205,-6.3935,-6.3935,-6.2127,-5.9358,-6.0242,-6.0589,-6.0473,-5.9627,-5.9819,-6.0473,-5.9742,-5.9973,-6.0481,-5.994,0.0,0.0,0.0,0.0,-5.7329,-5.7063,-5.5977,-5.5483,-5.8308,-5.9045,-6.0157,-6.491,-6.6628,-6.7538,-6.9142,-6.9975,-7.0283,-6.9629,-7.0358,-7.1004,-7.063,-6.8338,0.0,0.0,0.0,0.0,0.0,0.0,0.0,0.0,0.0,0.0,0.0,0.0,0.0,0.0,0.0,0.0,-6.5397,-6.559,-6.632,-6.7705,-6.7744,-6.7321,-6.6436,-6.5782,-6.5013,-6.4166,-6.3281,-6.2858,-6.2858,-6.2858,-6.2589,-6.2101,-6.1947,-6.1485,-6.0781,-6.0781,-6.0781,-6.0781,-6.0781,-6.0781,-6.0781,-6.0781,-6.0781,-6.0781,0.0,0.0,0.0,0.0,0.0,0.0,0.0,0.0,0.0,0.0,-5.9088,-5.9242,-5.855,-5.8357,-5.8011,-5.7253,-5.706,-5.6983,-5.6983,0.0,0.0,-6.2926,-6.4358,-6.5382,-6.5971,-6.4111,-6.2707,-6.1875,-6.0877,-6.107,-6.2354,-6.3444,-6.4253,-6.4743,-6.4243,-6.2974,-6.132,-6.132,-6.0204,-5.855,-5.9358,-5.9665,-5.9588,-5.8781,-5.8973,-5.9665,-5.955,-5.9588,-5.9665,-5.9557,-5.8665,0.0,0.0,0.0,-5.6148,-5.6086,-5.5816,-5.5833,-5.7033,-5.9503,-6.2588,-6.6088,-6.717,-6.7581,-6.8373,-6.8667,-6.8706,-6.859,-6.9861,-7.0323,-6.8267,0.0,0.0,0.0,0.0,0.0,0.0,0.0,0.0,0.0,0.0,0.0,0.0,0.0,0.0,0.0,0.0,0.0,-6.3628,-6.4359,-6.4897,-6.5089,-6.5128,-6.4705,-6.382,-6.3705,-6.3243,-6.2409,-6.155,-6.1127,-6.1127,-6.1127,-6.1473,-6.2062,-6.1281,-6.0896,-6.0781,-6.0781,-6.0781,-6.0781,-6.0781,-6.0781,-6.0781,-6.0781,-6.0781,-6.0781,0.0,0.0,0.0,0.0,0.0,0.0,0.0,0.0,0.0,0.0,0.0,-5.8704,-5.8357,-5.7857,-5.7049,-5.5703,-5.6011,-5.6483,-5.6983,-5.7703,-5.9242,-6.1781,-6.2354,-6.2876,-6.3444,-6.2429,-6.1378,-6.0312,-5.974,-6.0746,-6.3236,-6.3036,-6.3816,-6.5282,-6.4436,-6.3089,-6.1447,-6.0473,-5.9665,-5.8973,-5.8858,-5.9396,-6.0012,-5.8242,-5.8357,-5.9435,-5.8973,-5.8819,-5.8819,-5.8819,-5.8114,-5.7091,-5.6541,0.0,0.0,0.0,-5.5758,-5.6088,-5.7896,-5.96,-6.1505,-6.4277,-6.5109,-6.5536,-6.673,-6.7359,-6.7552,-6.709,-6.759,-6.7795,0.0,0.0,0.0,0.0,0.0,0.0,0.0,0.0,0.0,0.0,0.0,0.0,0.0,0.0,0.0,0.0,0.0,-6.1589,-6.2589,-6.2974,-6.3397,-6.3858,-6.3858,-6.3474,-6.2627,-6.2627,-6.2204,-6.1358,-6.0473,-6.0319,-6.0781,-5.9819,-6.0127,-6.137,-6.0973,-6.0512,-6.0089,-6.0089,-5.9819,-5.9435,-5.9896,-6.0089,-6.0127,-6.0627,-6.0781,-6.0781,0.0,0.0,0.0,0.0,0.0,0.0,0.0,0.0,0.0,0.0,0.0,-5.8319,-5.8319,0.0,0.0,0.0,-5.5049,-5.5665,-5.6329,-5.6753,-5.7868,-5.9742,-6.0242,-6.0384,-6.0254,-6.0448,-5.9884,-5.8555,-5.8748,-6.0555,-6.3806,-6.3377,-6.453,-6.6782,-6.5282,-6.3666,-6.2024,-6.0704,-6.0165,-6.0089,-5.9011,-5.9358,-6.0242,-5.8127,-5.8088,-5.9127,-5.8742,-5.8319,-5.8011,-5.8242,-5.7649,-5.6693,-5.5931,-5.5769,0.0,0.0,0.0,-5.5857,-5.7973,-5.879,-5.9571,-6.1774,-6.2601,-6.3226,-6.4624,-6.5551,-6.5974,0.0,-6.5243,-6.5166,0.0,0.0,0.0,0.0,0.0,0.0,0.0,0.0,0.0,0.0,0.0,0.0,0.0,0.0,0.0,0.0,0.0,-6.0165,-6.1678,-6.1985,-6.2358,-6.2974,-6.2781,-6.2281,-6.1447,-6.1254,-6.0819,-6.0165,-5.9511,-5.955,-6.0127,-5.8858,-5.8973,-6.0165,-6.0165,-5.9781,-5.9204,-5.9204,-5.8858,-5.8357,-5.8973,-5.9319,-5.9588,-6.0242,-6.0589,-6.0781,0.0,0.0,0.0,0.0,0.0,0.0,0.0,0.0,0.0,0.0,0.0,-5.8319,-5.8319,-5.7511,-5.6329,-5.4664,-5.4549,-5.4587,-5.4626,-5.6137,-5.706,-5.7176,-5.8704,0.0,-5.7614,-5.8393,-5.813,-5.6758,-5.8055,-6.0442,-6.3825,-6.5125,-6.7064,-6.936,-6.609,-6.3666,-6.2101,-6.1985,-6.1947,-6.1831,-6.0127,-5.9473,-5.9473,-5.8588,-5.828,-5.8473,-5.9165,-5.8434,-5.7176,-5.8011,-5.7176,-5.5763,-5.5714,-5.5714,-5.557,0.0,0.0,0.0,-5.5665,-5.6608,-5.7701,-5.932,-6.0421,-6.1321,-6.2132,-6.2935,-6.3512,-6.3435,-6.3435,0.0,0.0,0.0,0.0,0.0,0.0,0.0,0.0,0.0,0.0,0.0,0.0,0.0,0.0,0.0,0.0,0.0,0.0,-5.9896,-6.0819,-6.1639,-6.2139,-6.2178,-6.1358,-6.0512,-5.9627,-5.8896,-5.8473,-5.8434,-5.8396,-5.8396,-5.8434,-5.8357,-5.8357,-5.8434,-5.8434,-5.8396,-5.8357,-5.8357,-5.8357,-5.8319,-5.8357,-5.8819,-5.9511,-5.955,-6.0089,-6.0781,0.0,0.0,0.0,0.0,0.0,0.0,0.0,0.0,0.0,0.0,0.0,0.0,0.0,-5.7176,-5.6099,-5.3857,-5.3664,-5.4126,-5.5203,-5.5818,-5.6406,-5.6983,-5.8127,-5.8258,-5.7295,-5.8221,-5.7974,-5.6462,-5.6896,-5.8548,-6.1396,-6.2228,-6.3397,-6.482,-6.5243,-6.4782,-6.3551,-6.1358,-6.0742,-6.105,-5.8819,-5.8858,-6.005,-5.7588,-5.7319,-5.828,-5.7973,-5.7126,-5.628,-5.7165,-5.6665,-5.5703,-5.5703,-5.5357,-5.4857,-5.4587,-5.4511,-5.478,-5.6175,-5.5682,-5.5263,-5.7356,-5.8645,-5.9455,-5.9617,-6.155,-6.3012,-6.1935,-6.2127,0.0,0.0,0.0,0.0,0.0,0.0,0.0,0.0,0.0,0.0,0.0,0.0,0.0,0.0,0.0,0.0,0.0,0.0,0.0,-5.9935,-6.0781,-6.1012,-6.0435,-6.0127,-5.9588,-5.8742,-5.8434,-5.8319,-5.828,-5.7742,-5.7742,-5.828,-5.7126,-5.6934,-5.7434,-5.6857,-5.6934,-5.7473,-5.7473,-5.7126,-5.6703,-5.7242,-5.7627,-5.8011,-5.9088,-5.9704,-6.005,0.0,0.0,0.0,0.0,0.0,-6.0319,-5.8934,-5.8473,-5.8204,-5.7857,0.0,0.0,0.0,0.0,-5.6395,-5.3857,-5.3626,-5.4126,-5.5203,-5.5549,-5.5972,-5.656,-5.7665,-5.7832,-5.6798,-5.8249,-5.8159,-5.6347,-5.677,-5.7968,-5.9922,-6.0527,-6.1396,-6.2551,-6.3974,-6.4436,-6.4012,-6.1743,-6.1127,-6.1435,-5.8858,-5.9011,-6.0589,-5.8588,-5.8204,-5.8704,-5.8704,-5.7599,-5.6214,-5.6791,-5.6252,-5.5318,-5.5588,-5.4934,-5.4049,-5.4049,-5.3857,-5.3857,-5.4972,-5.4342,-5.3846,-5.6025,-5.6849,-5.7274,-5.7747,-5.9588,-6.0935,-6.0127,0.0,0.0,0.0,0.0,0.0,0.0,0.0,0.0,0.0,0.0,0.0,0.0,0.0,0.0,0.0,0.0,0.0,0.0,0.0,0.0,-5.905,-5.9896,-5.9973,-5.9127,-5.8819,-5.8242,-5.7434,-5.7434,-5.7434,-5.7434,-5.6819,-5.6857,-5.7396,-5.6242,-5.6011,-5.6522,-5.5934,-5.6011,-5.656,-5.656,-5.6214,-5.5742,-5.6329,-5.6753,-5.7137,-5.8242,-5.8858,-5.9165,0.0,0.0,-6.0781,-6.0781,-6.0781,-6.0512,-5.9627,-5.8858,-5.8627,-5.9358,0.0,0.0,0.0,0.0,0.0,-5.4818,-5.4587,-5.4549,-5.4549,-5.528,-5.5703,-5.5703,-5.7357,-5.7513,-5.5946,-5.8347,-5.849,-5.6186,-5.7676,-5.8811,-5.9615,-6.0338,-6.155,-6.3077,-6.2358,-6.2435,-6.3166,-6.3205,-6.3231,-6.3,-6.0512,-6.005,-6.0935,-6.1678,-6.0935,-5.9704,-6.1408,-5.9869,-5.7022,-5.7022,-5.5906,-5.4703,-5.5434,-5.4549,-5.328,-5.3203,-5.2615,-5.1962,0.0,0.0,0.0,-5.5203,-5.5049,-5.4895,-5.6483,-5.6945,-5.7253,-5.805,0.0,0.0,0.0,0.0,0.0,0.0,0.0,0.0,0.0,0.0,0.0,0.0,0.0,0.0,0.0,0.0,0.0,0.0,0.0,-5.7357,-5.8192,-5.9,-5.9077,-5.8319,-5.7434,-5.6599,-5.5742,-5.5703,-5.5703,-5.5703,-5.5703,-5.5703,-5.5703,-5.5703,-5.5703,-5.5703,-5.5703,-5.5703,-5.5703,-5.5703,-5.5703,-5.5703,-5.5703,-5.6214,-5.6945,-5.6983,-5.755,-5.828,0.0,-6.0781,-6.0781,-6.0781,-6.0781,-6.0512,-5.9627,-5.9319,-5.905,0.0,0.0,0.0,-5.7434,-5.7368,-5.7319,-5.7242,-5.6665,-5.6329,-5.6329,-5.5934,-5.5703,-5.5703,-5.678,-5.6862,-5.5778,-5.7146,-5.7257,-5.5969,-5.6412,-5.6729,-5.6953,-5.7716,-5.8292,-5.8781,-5.9781,-6.0012,-5.9781,-6.0973,-6.1473,-6.1396,-6.005,-6.0396,-6.1562,-5.9973,-5.9396,-5.9473,-5.9396,-5.8742,-5.7857,-5.7214,-5.6676,-5.6137,-5.5126,-5.4895,-5.478,-5.3549,-5.3472,-5.378,-5.378,0.0,0.0,0.0,0.0,0.0,-5.3356,-5.5203,-5.6907,0.0,0.0,0.0,0.0,0.0,0.0,0.0,0.0,0.0,0.0,0.0,0.0,0.0,0.0,0.0,0.0,0.0,0.0,0.0,-5.6522,-5.696,-5.692,-5.7672,-5.8157,-5.8308,-5.7434,-5.6868,-5.6637,-5.6011,-5.5703,-5.5703,-5.5703,-5.5703,-5.5703,-5.5703,-5.5703,-5.5703,-5.5703,-5.5703,-5.5703,-5.5703,-5.5703,-5.5703,-5.5703,-5.5857,-5.6137,-5.6791,-5.7137,-5.7434,-6.0781,-6.0781,-6.0896,-6.1293,-6.1331,-6.1281,-6.1127,-6.0473,-6.0012,0.0,0.0,0.0,-5.8088,-5.805,-5.8088,-5.828,-5.7511,-5.6983,-5.6983,-5.6175,-5.5703,-5.5703,-5.6522,-5.6753,-5.6252,-5.7168,-5.7245,-5.6357,-5.6357,-5.6164,-5.5816,-5.6249,-5.6483,-5.6522,-5.7857,-5.7973,-5.7357,-5.9396,-6.0242,-6.0165,-5.9358,-6.0012,-6.1435,-6.0319,-5.9935,-6.0012,-5.9935,-5.9665,-5.9165,-5.7934,-5.7291,-5.6637,-5.4587,-5.4511,-5.5011,-5.4049,-5.3587,-5.351,-5.3857,-5.2972,-5.2192,-5.3433,0.0,0.0,-5.2,-5.3433,-5.4741,0.0,0.0,0.0,0.0,0.0,0.0,0.0,0.0,0.0,0.0,0.0,0.0,0.0,0.0,0.0,0.0,0.0,0.0,-5.5742,-5.6175,-5.6521,-5.6651,-5.7262,-5.7838,-5.8308,-5.7434,-5.6983,-5.6983,-5.6137,-5.5703,-5.5703,-5.5703,-5.5703,-5.5703,-5.5703,-5.5703,-5.5703,-5.5703,-5.5703,-5.5703,-5.5703,-5.5703,-5.5703,-5.5703,-5.5703,-5.5742,-5.6291,-5.6483,-5.6522,0.0,-6.0757,-6.0976,-6.182,-6.1964,-6.2196,-6.3038,-6.1861,-6.1207,0.0,-6.0819,-5.9819,-5.9896,-5.9858,-5.9511,-5.8781,-5.7819,-5.7253,-5.7137,-5.6242,-5.5703,-5.5703,-5.6445,-5.6868,-5.6868,-5.7627,-5.7627,-5.6868,-5.6868,-5.6483,-5.5703,-5.5703,-5.5703,-5.5742,-5.6522,-5.6445,-5.5857,-5.8204,-5.9204,-5.9165,-5.8742,-5.9511,-6.1012,-6.1716,-6.1485,-6.0896,-6.1678,-6.1447,-6.055,-5.8858,-5.7665,-5.6445,-5.4203,-5.3895,-5.4357,-5.4472,-5.3395,-5.2346,-5.3126,-5.2779,-5.2538,-5.4126,-5.3318,0.0,-5.1923,-5.2115,-5.2269,0.0,0.0,0.0,0.0,0.0,0.0,0.0,0.0,0.0,0.0,0.0,0.0,0.0,0.0,0.0,0.0,-5.7379,-5.6533,-5.5784,-5.5621,-5.5945,-5.6819,-5.7188,-5.7607,-5.8154,-5.7511,-5.7099,-5.6983,-5.6252,-5.578,-5.5703,-5.5703,-5.5703,-5.5703,-5.5703,-5.5703,-5.5703,-5.5703,-5.5703,-5.5703,-5.5703,-5.5703,-5.5703,-5.5703,-5.5703,-5.5703,-5.5703,-5.5703,-5.5703,-6.0781,-6.0495,-6.0428,-6.0976,-6.0948,-6.1232,-6.2208,-6.1695,-6.1639,-6.2899,-6.2204,-6.182,-6.2512,-6.1973,-6.1524,-6.1358,-5.9935,-5.8742,-5.8088,-5.6549,-5.5703,-5.5703,-5.5857,-5.5934,-5.5934,-5.6126,-5.6126,-5.5934,-5.5934,-5.5857,-5.5703,-5.5703,-5.5703,-5.5703,-5.5857,-5.5857,-5.578,-5.6983,-5.7484,-5.7638,-5.955,-6.0935,-6.1793,-6.1243,-6.0935,-6.0819,-6.0973,-6.0935,-6.055,-5.8858,-5.7242,-5.5857,-5.5357,-5.4395,-5.3587,-5.428,-5.4241,-5.4049,-5.4203,-5.4126,-5.4087,-5.4434,-5.4241,0.0,-5.2231,-5.351,-5.4587,0.0,0.0,0.0,0.0,0.0,0.0,0.0,0.0,0.0,0.0,0.0,0.0,0.0,0.0,0.0,0.0,-5.6531,-5.5912,-5.5879,-5.5148,-5.5078,-5.5912,-5.603,-5.6445,-5.7231,-5.778,-5.7703,-5.7022,-5.683,-5.6406,-5.5703,-5.5703,-5.5703,-5.5703,-5.5703,-5.5703,-5.5703,-5.5703,-5.5703,-5.5703,-5.5703,-5.5703,-5.5703,-5.5703,-5.5703,-5.5703,-5.5703,-5.5703,-5.5703,-6.0223,-6.0243,-6.0567,-6.1241,-6.098,-6.1245,-6.2978,-6.2319,-6.2053,-6.3389,-6.3451,-6.3166,-6.2743,-6.2704,-6.2358,-6.1524,-6.0242,-5.9165,-5.8357,-5.7088,-5.6126,-5.5703,-5.5703,-5.6126,-5.6973,-5.6126,-5.6126,-5.7011,-5.6126,-5.5703,-5.5703,-5.5703,-5.5472,-5.5126,-5.5972,-5.6088,-5.5818,-5.7511,-5.8242,-5.8357,-5.9627,-6.0396,-6.0781,-6.0781,-6.0512,-6.0204,-6.0627,-6.0512,-5.9896,-5.8204,-5.7357,-5.6857,-5.5972,-5.5434,-5.5164,-5.5626,-5.5164,-5.4587,-5.4972,-5.4818,-5.4587,-5.5011,-5.478,0.0,0.0,-5.3549,-5.4087,-5.2808,0.0,0.0,0.0,0.0,0.0,0.0,0.0,0.0,0.0,0.0,0.0,0.0,0.0,0.0,0.0,-5.6806,-5.6388,-5.5915,-5.502,-5.4833,-5.5671,-5.5693,-5.6092,-5.6962,-5.7434,-5.7434,-5.6983,-5.656,-5.6126,-5.5703,-5.5703,-5.5703,-5.5703,-5.5703,-5.5703,-5.5703,-5.547,-5.5399,-5.5399,-5.5399,-5.5399,-5.5423,-5.561,-5.5703,-5.5703,-5.5703,-5.5703,-5.5703,-5.9592,-5.9867,-6.0471,-6.1296,-6.0867,-6.1168,-6.3351,-6.2447,-6.2027,-6.3397,-6.4444,-6.4512,-6.3024,-6.3243,-6.3205,-6.2358,-6.0435,-5.9281,-5.9281,-5.7703,-5.6368,-5.5511,-5.5626,-5.628,-5.755,-5.6357,-5.6395,-5.7819,-5.6395,-5.5703,-5.5703,-5.5703,-5.5434,-5.5011,-5.606,-5.6406,-5.6319,-5.8204,-5.9011,-5.905,-5.955,-5.9742,-5.9819,-6.0512,-6.0242,-5.9588,-6.0127,-5.9858,-5.905,-5.7703,-5.7588,-5.7819,-5.6588,-5.6357,-5.6599,-5.7099,-5.6049,-5.4895,-5.5742,-5.5588,-5.5318,-5.5626,-5.5588,-5.5164,0.0,0.0,0.0,0.0,0.0,0.0,0.0,0.0,0.0,0.0,0.0,0.0,0.0,0.0,0.0,0.0,0.0,0.0,0.0,-5.712,-5.6822,-5.597,-5.5084,-5.4919,-5.5682,-5.5649,-5.5936,-5.6731,-5.6907,-5.6907,-5.6753,-5.6214,-5.5857,-5.5703,-5.5703,-5.5682,-5.5588,-5.5588,-5.5554,-5.5446,-5.5134,-5.4974,-5.4974,-5.508,-5.5107,-5.5147,-5.5554,-5.5703,-5.5703,-5.5703,-5.5632,-5.5588,-5.9357,-5.9159,-5.9063,-5.9583,-5.9495,-5.9773,-6.0959,-6.0566,-6.0754,-6.249,-6.5123,-6.6474,-6.5551,-6.4859,-6.5282,-6.7359,-6.1973,-5.9665,-6.2551,-5.8396,-5.5472,-5.4664,-5.5318,-5.5472,-5.4934,-5.5434,-5.578,-5.6011,-5.578,-5.5703,-5.5703,-5.5703,-5.6049,-5.6676,-5.5357,-5.5972,-5.7973,-5.7473,-5.7291,-5.7484,-5.9742,-6.0666,-6.0666,-6.0742,-6.0242,-5.9435,-5.8819,-5.8511,-5.8396,-5.8204,-5.7703,-5.7253,-5.7819,-5.6511,-5.5241,-5.7473,-5.6934,-5.5742,-5.6637,-5.7357,-5.7511,-5.6049,-5.7319,-5.8319,-5.5934,0.0,-5.8127,-5.5742,0.0,0.0,0.0,0.0,0.0,0.0,0.0,0.0,0.0,0.0,0.0,0.0,0.0,0.0,0.0,0.0,-5.6206,-5.5932,-5.5366,-5.5224,-5.5692,-5.5377,-5.539,-5.5808,-5.6599,-5.6637,-5.5857,-5.6522,-5.6483,-5.5703,-5.5703,-5.5493,-5.5173,-5.5173,-5.496,-5.4625,-5.4579,-5.4563,-5.4579,-5.4933,-5.5107,-5.5147,-5.5554,-5.5703,-5.5703,-5.5703,-5.5458,-5.5173,-5.8364,-5.8789,-5.8924,-5.8624,-5.8556,-5.8804,-5.9717,-6.1344,-6.2768,-6.3524,-6.5671,-6.7167,-6.7321,-6.6551,-6.6474,-6.7552,-6.4628,-6.2666,-6.2589,-6.0127,-5.805,-5.678,-5.6549,-5.6511,-5.6703,-5.6049,-5.5934,-5.6445,-5.5934,-5.5703,-5.5703,-5.5703,-5.5895,-5.6252,-5.606,-5.6549,-5.7588,-5.8204,-5.8434,-5.8588,-6.0165,-6.0512,-6.005,-6.005,-5.9511,-5.8627,-5.728,-5.7126,-5.7412,-5.67,-5.6856,-5.7264,-5.6886,-5.6397,-5.5988,-5.6587,-5.594,-5.5064,-5.5445,-5.637,-5.7136,-5.6856,-5.7808,-5.8665,-5.805,-5.8357,-5.8511,0.0,0.0,0.0,0.0,0.0,0.0,0.0,-5.5164,0.0,0.0,0.0,0.0,0.0,0.0,0.0,0.0,0.0,0.0,0.0,0.0,-5.5173,-5.535,-5.5186,-5.5173,-5.5363,-5.5922,-5.6049,-5.5703,-5.6049,-5.6049,-5.5703,-5.501,-5.4803,-5.5069,-5.433,-5.4163,-5.4468,-5.4204,-5.4101,-5.4101,-5.4267,-5.4532,-5.479,-5.5199,-5.5481,-5.5682,-5.5435,-5.5237,-5.508,-5.7373,-5.796,-5.818,-5.8033,-5.7813,-5.796,-5.8767,-6.1326,-6.3295,-6.3652,-6.5375,-6.7151,-6.8615,-6.8205,-6.8359,-6.9783,-6.809,-6.6167,-6.4282,-6.2474,-6.0435,-5.805,-5.755,-5.755,-5.7934,-5.6703,-5.6368,-5.6983,-5.6357,-5.6049,-5.6049,-5.6049,-5.628,-5.6742,-5.6676,-5.7176,-5.8099,-5.8858,-5.9319,-5.9588,-6.0435,-6.0165,-5.9165,-5.8896,-5.8434,-5.7742,-5.6242,-5.6088,-5.6516,-5.5734,-5.6251,0.0,-5.6305,-5.6274,-5.6446,-5.5875,-5.5309,-5.4802,-5.4576,0.0,0.0,0.0,0.0,0.0,0.0,0.0,0.0,0.0,0.0,0.0,0.0,0.0,-5.5857,-5.528,0.0,-5.5703,0.0,0.0,0.0,0.0,0.0,0.0,0.0,0.0,0.0,0.0,0.0,0.0,-5.4944,-5.5365,-5.5517,-5.525,-5.5785,-5.5934,-5.5703,-5.5703,-5.5632,-5.5543,-5.4638,-5.4403,-5.4708,-5.3773,-5.3637,-5.4138,-5.3777,-5.3643,-5.3625,-5.3758,-5.4083,-5.4532,-5.4933,-5.5262,-5.5481,-5.5199,-5.5053,-5.4862,-5.6528,-5.6235,-5.6198,-5.774,-5.7373,-5.7116,-5.7923,-5.9239,-6.0598,-6.1824,-6.3916,-6.6383,-6.9319,-6.9629,-7.1591,-7.6553,-7.2437,-6.9552,-6.9475,-6.5551,-6.1358,-5.7214,-5.7819,-5.7896,-5.706,-5.6983,-5.6983,-5.6983,-5.6973,-5.6973,-5.6945,-5.6945,-5.7819,-5.9281,-5.6819,-5.7588,-6.0589,-5.9011,-5.8781,-5.9588,-6.0435,-5.9819,-5.8242,-5.7396,-5.706,-5.6907,-5.6011,0.0,0.0,-5.6231,-5.6393,0.0,0.0,0.0,0.0,0.0,0.0,0.0,0.0,0.0,0.0,-5.6525,0.0,0.0,0.0,0.0,-6.0473,0.0,0.0,0.0,-5.8357,-5.7511,-5.6945,-5.6907,-5.6252,0.0,0.0,0.0,0.0,0.0,0.0,0.0,0.0,0.0,0.0,0.0,0.0,0.0,-5.4577,-5.6038,-5.6538,-5.5692,-5.6511,-5.656,-5.5703,-5.5703,-5.5481,-5.5134,-5.5082,-5.4648,-5.3832,-5.3814,-5.3587,-5.323,-5.3209,-5.3209,-5.3251,-5.3662,-5.4083,-5.4532,-5.4933,-5.5121,-5.5121,-5.5121,-5.4848,-5.4436,-5.5794,-5.5794,-5.578,-5.6308,-5.6638,-5.7262,-5.8584,-5.9922,-6.2266,-6.639,-6.785,-7.0531,-7.5817,-7.5861,-7.6207,-7.7938,-7.6015,-7.3783,-7.1514,-6.8436,-6.5782,-6.3782,-6.182,-6.0666,-6.0369,-5.9242,-5.8396,-5.7857,-5.728,-5.728,-5.7857,-5.7291,-5.7588,-5.8665,-5.7819,-5.7742,-5.833,-5.8858,-5.8934,-5.8742,-5.905,-5.9473,-5.9665,0.0,-5.6126,-5.6088,-5.5818,-5.5543,0.0,-5.5175,-5.5271,-5.5368,-5.4707,-5.4645,-5.4756,-5.4219,-5.4051,0.0,0.0,0.0,-5.6367,-5.57,0.0,0.0,0.0,0.0,0.0,0.0,0.0,0.0,0.0,-5.8434,-5.7665,-5.7099,-5.6753,-5.6368,0.0,0.0,0.0,0.0,0.0,0.0,0.0,0.0,0.0,0.0,0.0,0.0,0.0,-5.4874,-5.5346,-5.5287,-5.5834,-5.5884,-5.5326,-5.5577,-5.5375,-5.4701,-5.4132,-5.3839,-5.3777,-5.2971,-5.2839,-5.3203,-5.3203,-5.3203,-5.3209,-5.3606,-5.3887,-5.4083,-5.4532,-5.4701,-5.4701,-5.4701,-5.442,-5.4034,-5.5904,-5.5794,-5.5684,-5.5978,-5.6675,-5.7593,-5.8621,-6.0757,-6.3795,-6.8103,-6.9695,-7.2757,-7.8864,-7.8499,-7.8173,-7.909,-7.8459,-7.6233,-7.2165,-7.1206,-6.9692,-6.7205,-6.532,-6.4051,-6.3447,-6.1743,-6.0165,-5.8742,-5.8473,-5.8473,-5.8704,-5.7857,-5.7896,-5.8704,-5.8434,-5.7973,-5.755,-5.9086,-5.9329,-5.8704,-5.8434,-5.8934,0.0,0.0,-5.6088,-5.6538,0.0,-5.5338,-5.5002,-5.4452,-5.4385,-5.4409,-5.3502,-5.3555,-5.3812,-5.3004,-5.3004,-5.3151,-5.2858,-5.3957,0.0,-5.5099,-5.65,0.0,-5.8127,0.0,0.0,0.0,0.0,0.0,0.0,-5.8969,-5.8357,-5.7176,-5.6983,-5.6714,0.0,-5.5241,0.0,0.0,0.0,0.0,0.0,0.0,0.0,0.0,-5.3687,0.0,0.0,0.0,-5.55,-5.5759,-5.6334,-5.6287,-5.5578,-5.5516,-5.5056,-5.4255,-5.3691,-5.3472,-5.3585,-5.2766,-5.2711,-5.3203,-5.3203,-5.3203,-5.3209,-5.3484,-5.3663,-5.3814,-5.4135,-5.4255,-5.4255,-5.4255,-5.4128,-5.4064,-5.6748,-5.6198,-5.5941,-5.6748,-5.7446,-5.796,-5.8107,-6.152,-6.493,-6.7165,-6.9631,-7.3243,-7.8623,-7.7815,-7.7861,-8.0208,-7.975,-7.7138,-7.201,-7.3911,-7.2953,-6.7846,-6.8244,-6.7821,-6.6167,-6.4359,-6.2243,-5.9742,-6.0396,-6.0358,-5.9627,-5.8704,-5.8742,-5.9473,-5.8704,-5.8319,-5.8335,-5.9559,-5.9842,-5.9435,-5.8627,-5.8357,-5.8204,-5.6395,-5.6769,-5.7993,-5.5849,-5.5094,-5.4933,-5.4101,-5.3814,-5.3702,-5.3297,-5.3203,-5.3078,-5.227,-5.2601,-5.3041,-5.227,-5.2637,-5.3534,-5.4724,0.0,0.0,0.0,0.0,-5.8316,0.0,0.0,0.0,0.0,0.0,-5.8927,-5.7297,-5.6973,-5.6637,-5.5818,-5.5703,-5.5703,0.0,0.0,0.0,0.0,-5.5275,-5.4693,-5.2174,-5.3472,-5.4049,0.0,0.0,-5.6945,-5.6983,-5.778,-5.768,-5.6469,-5.5578,-5.4686,-5.387,-5.3833,-5.3585,-5.3203,-5.3203,-5.3203,-5.3203,-5.3203,-5.3203,-5.3225,-5.3209,-5.3444,-5.3796,-5.3777,-5.3814,-5.3777,-5.3777,-5.3987,-5.4363,-5.5904,-5.6712,-5.7446,-5.7666,-5.7373,-5.7703,-5.9501,-6.2218,-6.5754,-7.0374,-7.3628,-7.7167,-8.1404,-8.1514,-8.1047,-8.0542,-8.0683,-7.972,-7.7113,-7.682,-7.6141,-7.4745,-7.2476,-7.0706,-6.9629,-6.6744,-6.4589,-6.3281,-6.0973,-6.0396,-6.1408,-5.9281,-5.8742,-5.9473,-5.9281,-5.8511,-5.7434,-5.9007,-5.9595,-5.9435,-5.8627,-5.905,-5.9819,0.0,-5.6568,-5.7531,-5.5758,-5.489,-5.4563,-5.3995,-5.3604,-5.3318,-5.323,-5.3203,-5.3188,-5.2968,-5.3041,-5.313,-5.2968,-5.3482,-5.4038,-5.3781,-5.4596,-5.5449,0.0,0.0,0.0,0.0,0.0,0.0,0.0,0.0,-5.8981,-5.7668,-5.6659,-5.5972,-5.5742,-5.5703,0.0,-5.5703,0.0,0.0,0.0,-5.4495,-5.3619,-5.2933,-5.2692,-5.2731,0.0,0.0,0.0,-5.6983,-5.7214,-5.7335,-5.7295,-5.5845,-5.4989,-5.4764,-5.4094,-5.3585,-5.3203,-5.3203,-5.3203,-5.3203,-5.3203,-5.3203,-5.3209,-5.3506,-5.3506,-5.34,-5.3683,-5.3624,-5.3359,-5.3359,-5.3403,-5.3702,-5.6712,-5.7923,-5.9061,-5.9061,-5.9869,-6.075,-6.1374,-6.2952,-6.5849,-7.0717,-7.3818,-7.6726,-7.9599,-8.0586,-8.0671,-7.9738,-7.9629,-7.8978,-7.7459,-7.7837,-7.7879,-7.7308,-7.5784,-7.4053,-7.2091,-6.909,-6.6397,-6.4051,-6.1743,-6.0742,-6.0935,-5.9127,-5.855,-5.8973,-5.8973,-5.8434,-5.7627,-5.8588,-5.9276,-5.969,-5.8685,-5.9088,0.0,-5.7066,-5.6435,-5.6834,-5.5155,-5.4404,-5.4118,-5.3701,-5.34,-5.3203,-5.3203,-5.3203,-5.3203,-5.3203,-5.3203,-5.3203,-5.3203,-5.3555,-5.3775,-5.3314,-5.3885,-5.4509,-5.4436,-5.5228,-5.6232,0.0,0.0,0.0,0.0,0.0,0.0,-5.7806,-5.6841,-5.6137,-5.5742,-5.6011,-5.6126,0.0,-5.5626,0.0,0.0,-5.4164,-5.3203,-5.3203,-5.2741,0.0,0.0,0.0,0.0,-5.755,-5.7896,-5.8029,-5.7848,-5.62,-5.5174,-5.4788,-5.3953,-5.3404,-5.3203,-5.3203,-5.3203,-5.3203,-5.3203,-5.3203,-5.3246,-5.3444,-5.3383,-5.3246,-5.385,-5.3937,-5.3775,-5.4106,-5.4032,-5.3849,-5.8143,-5.9391,-6.0456,-6.0126,-6.2879,-6.4787,-6.3613,-6.453,-6.6586,-7.011,-7.2863,-7.4992,-7.6276,-7.7745,-7.8552,-7.8442,-7.7837,-7.6949,-7.5868,-7.7922,-7.8698,-7.7562,-7.8054,-7.6878,-7.3745,-7.0937,-6.7667,-6.382,-6.2551,-6.1204,-5.9819,-5.8896,-5.8511,-5.8627,-5.8511,-5.8396,-5.8319,-5.8319,-5.8859,-5.9674,-5.8641,-5.8649,-5.9126,-5.7183,-5.6359,-5.604,-5.4625,-5.3963,-5.3739,-5.3318,-5.3203,-5.3203,-5.3203,-5.3203,-5.3203,-5.3203,-5.3203,-5.3203,-5.3203,-5.3203,-5.3203,-5.3203,-5.3203,-5.3408,-5.4216,-5.484,-5.5537,-5.6455,-5.7534,-5.8033,0.0,0.0,0.0,-5.7582,-5.7124,-5.6659,-5.5879,-5.6604,-5.6907,-5.6126,0.0,0.0,0.0,0.0,-5.3356,-5.3356,-5.3356,0.0,0.0,0.0,0.0,0.0,-5.8927,0.0,-5.8299,0.0,-5.521,-5.447,-5.3613,-5.3203,-5.3203,-5.3203,-5.3203,-5.3203,-5.3203,-5.3203,-5.3203,-5.3203,-5.324,-5.3424,-5.4142,-5.4473,-5.462,-5.5207,-5.4987,-5.4436,-5.8033,-5.9832,-6.075,-5.8767,-6.1704,-6.4861,-6.6586,-6.9779,-7.2275,-7.2973,-7.635,-7.8589,-7.8185,-7.8405,-7.8295,-7.7567,-7.79,-7.8042,-7.7808,-7.8664,-7.9021,-7.8617,-7.8062,-7.671,-7.4538,-7.0629,-6.7898,-6.6436,-6.2781,-6.1243,-6.1601,-6.0012,-5.9665,-6.0319,-5.9627,-5.8934,-5.8319,-5.8319,0.0,-5.803,-5.7818,-5.7967,-5.8229,-5.7186,-5.6144,-5.5285,-5.564,-5.4912,-5.3739,-5.3318,-5.3203,-5.3203,-5.3203,-5.3203,-5.3203,-5.3203,-5.3203,-5.3203,-5.3203,-5.3203,-5.3203,-5.3203,-5.3203,-5.3408,-5.4216,-5.3995,-5.4032,-5.55,-5.5992,-5.6116,-5.5948,0.0,0.0,0.0,0.0,0.0,0.0,0.0,-5.8011,-5.7857,0.0,-5.6137,0.0,0.0,0.0,0.0,0.0,0.0,0.0,0.0,0.0,0.0,0.0,0.0,0.0,0.0,0.0,-5.4967,-5.3785,-5.3203,-5.3203,-5.3203,-5.3203,-5.3203,-5.3203,-5.3203,-5.3203,-5.3203,-5.3592,-5.4216,-5.4326,-5.4803,-5.5317,-5.4803,-5.4509,-5.4473,-6.108,-6.1741,-6.2254,-6.2401,-6.5081,-6.7871,-6.9889,-7.3266,-7.4992,-7.3303,-7.4771,-7.5873,-7.5469,-7.6937,-7.7781,-7.7347,-7.7599,-7.7932,-7.8282,-7.8202,-7.822,-7.8445,-7.7631,-7.6465,-7.496,-7.0942,-6.8155,-6.673,-6.2933,-6.0813,-6.0379,-5.9775,-5.9704,-6.0089,-5.9459,-5.91,0.0,0.0,0.0,-5.8192,-5.7947,-5.8235,-5.8676,-5.762,-5.6818,-5.6215,-5.5508,-5.5036,-5.472,-5.4485,-5.3885,-5.3298,-5.3702,-5.3812,-5.3739,-5.3314,-5.3518,-5.3739,-5.3314,-5.3518,-5.3739,-5.3298,-5.3518,-5.3812,-5.3775,-5.4106,-5.4546,-5.4913,-5.5647,-5.6088,-5.5706,-5.5969,0.0,0.0,0.0,0.0,0.0,0.0,-5.8322,-5.7692,-5.728,-5.6857,0.0,0.0,0.0,0.0,0.0,0.0,0.0,0.0,0.0,0.0,0.0,0.0,0.0,0.0,0.0,-5.5965,-5.4491,-5.3812,-5.3812,-5.3408,-5.3203,-5.3203,-5.3203,-5.3203,-5.3203,-5.3665,-5.4289,-5.506,-5.5464,-5.5868,-5.6161,-5.5794,-5.5133,-5.4399,-6.442,-6.42,-6.4457,-6.6402,-6.8898,-7.1027,-7.2312,-7.5249,-7.6393,-7.3854,-7.3523,-7.3523,-7.3523,-7.5769,-7.7273,-7.7273,-7.7273,-7.751,-7.8035,-7.7347,-7.7073,-7.7518,-7.6737,-7.5799,-7.4657,-7.0969,-6.8016,-6.5972,-6.2747,-6.0327,-5.8845,-5.9358,-5.9533,-5.9367,0.0,0.0,0.0,0.0,-5.7521,-5.847,-5.811,-5.8406,-5.9009,-5.8005,-5.7509,-5.7151,-5.5675,-5.5354,-5.5669,-5.5978,-5.5023,-5.3812,-5.4473,-5.4656,-5.4509,-5.3922,-5.4179,-5.4509,-5.3885,-5.4069,-5.4289,-5.3849,-5.4069,-5.4289,-5.3812,-5.4546,-5.5207,-5.473,-5.5537,-5.6161,-5.5684,-5.6293,0.0,0.0,0.0,0.0,0.0,0.0,-5.8525,-5.7404,-5.7949,-5.7716,-5.6038,0.0,0.0,0.0,0.0,-5.4511,-5.4511,-5.5742,0.0,0.0,0.0,-5.8515,-5.8739,0.0,-5.6726,0.0,-5.4766,-5.4142,-5.4106,-5.3482,-5.3203,-5.3203,-5.3408,-5.3555,-5.3775,-5.4399,-5.5133,-5.5904,-5.6565,-5.6822,-5.6785,-5.6602,-5.5757,-5.4546,-6.6109,-6.6806,-6.7283,-6.754,-7.0183,-7.2349,-7.2496,-7.5249,-7.7163,-7.687,-7.6833,-7.6833,-7.6833,-7.7127,-7.7273,-7.7273,-7.7273,-7.7304,-7.7396,-7.6654,-7.613,-7.6014,-7.5219,-7.4284,-7.3242,-6.9841,-6.6955,-6.4576,-6.1971,-6.0058,0.0,-5.9688,-5.964,0.0,0.0,0.0,0.0,-5.6953,-5.7148,-5.7525,-5.7486,-5.774,-5.8119,-5.8,-5.75,-5.6926,-5.7469,-5.6748,-5.5816,-5.7262,-5.6712,-5.539,-5.5486,-5.5486,-5.5464,-5.539,-5.5449,-5.5464,-5.539,-5.4913,-5.4546,-5.5207,-5.4876,-5.4583,-5.5207,-5.4913,-5.4693,-5.5354,-5.5023,-5.4803,-5.5464,-5.5104,-5.489,0.0,0.0,0.0,0.0,0.0,-5.9022,-5.8202,0.0,0.0,0.0,0.0,0.0,0.0,0.0,-5.4511,-5.4511,-5.4664,-5.5224,-5.633,0.0,-5.69,-5.6593,-5.6034,0.0,-5.3555,-5.3408,-5.3314,-5.3314,-5.3203,-5.3203,-5.3261,-5.3959,-5.4693,-5.5354,-5.5486,-5.5941,-5.6712,-5.6785,-5.6822,-5.6712,-5.5978,-5.5611,-5.5354,-7.0036,-6.9596,0.0,0.0,0.0,0.0,0.0,-7.6466,-7.7273,-7.7273,-7.7273,-7.7273,-7.7273,-7.7273,-7.7273,-7.7273,-7.7273,-7.7273,-7.7273,-7.6093,-7.5331,-7.5281,-7.4053,-7.3082,-7.2525,-6.9927,-6.7282,0.0,0.0,0.0,0.0,0.0,0.0,0.0,0.0,-5.7261,-5.7586,-5.704,-5.7046,-5.7441,-5.7651,-5.7869,-5.7997,-5.7997,-5.7813,-5.7483,-5.7336,-5.7189,-5.7079,-5.7226,-5.6528,-5.5684,-5.6161,-5.6308,-5.6235,-5.5721,-5.5941,-5.6198,-5.5721,-5.5721,-5.5794,-5.5647,-5.5721,-5.5684,-5.5023,-5.539,-5.5537,-5.4399,-5.3922,-5.3775,-5.4106,-5.4289,-5.4509,0.0,0.0,0.0,0.0,0.0,0.0,-5.7469,0.0,-5.6913,0.0,0.0,0.0,0.0,0.0,-5.5549,-5.4549,-5.5434,0.0,-5.6276,0.0,-5.7674,-5.7727,-5.6799,-5.6014,-5.5332,-5.4399,-5.3922,-5.3922,-5.3445,-5.3482,-5.3959,-5.4766,-5.5023,-5.4913,-5.539,-5.5794,-5.6088,-5.6088,-5.6381,-5.6712,-5.5904,-5.5596,-5.5611,-7.312,0.0,-7.2386,0.0,-7.4698,-7.4698,-7.6943,-7.7273,-7.7273,-7.7273,-7.7273,-7.7273,-7.7273,-7.7273,-7.7273,-7.7273,-7.7273,-7.72,-7.6943,-7.5689,-7.4808,-7.4551,-7.323,0.0,-7.1932,-6.9942,-6.751,-6.4679,-6.2917,0.0,0.0,0.0,0.0,0.0,-5.6927,-5.6905,-5.7679,-5.7042,-5.7118,-5.7603,-5.7898,-5.7997,-5.7997,-5.7997,-5.7997,-5.7923,-5.7373,-5.7519,-5.7923,-5.7336,-5.6785,-5.6381,-5.6969,-5.7152,-5.7042,-5.6455,-5.6712,-5.7042,-5.6455,-5.6565,-5.6712,-5.6381,-5.6565,-5.6492,-5.5354,-5.5794,-5.5831,-5.3665,-5.3408,-5.3482,-5.3261,-5.3849,-5.4399,-5.4399,0.0,0.0,0.0,-5.6928,0.0,-5.6556,-5.6635,-5.63,-5.5185,-5.5922,0.0,0.0,0.0,0.0,0.0,0.0,0.0,0.0,0.0,0.0,0.0,-5.6897,-5.6198,-5.5721,-5.4583,-5.4069,-5.4032,-5.3702,-5.3995,-5.4803,-5.5611,-5.5611,-5.517,-5.5721,-5.5794,-5.5611,-5.5868,-5.6014,-5.6088,-5.5978,-5.5794,-5.5721,-7.4588,-7.4882,-7.5359,-7.698,-7.7237,-7.7237,-7.7273,-7.7273,-7.7273,-7.7273,-7.7273,-7.7273,-7.7273,-7.7273,-7.7273,-7.7273,-7.7273,-7.6943,-7.6166,-7.5359,-7.4551,0.0,0.0,-7.2129,-7.1321,-6.9743,-6.732,-6.4115,0.0,0.0,-5.8713,0.0,-5.8286,-5.7484,-5.7014,-5.6785,-5.6844,-5.6785,-5.7262,-5.7983,-5.7997,-5.7997,-5.7997,-5.7997,-5.7997,-5.7997,-5.7997,-5.7997,-5.7997,-5.7997,-5.796,-5.796,-5.796,-5.7997,-5.796,-5.796,-5.796,-5.796,-5.796,-5.7409,-5.7005,-5.7776,-5.7373,-5.6785,-5.6785,-5.6161,-5.5133,-5.3555,-5.3849,-5.4142,-5.3371,-5.3849,-5.4399,-5.4399,0.0,0.0,0.0,0.0,0.0,-5.5618,-5.6698,-5.6833,-5.5174,0.0,0.0,0.0,0.0,0.0,0.0,0.0,0.0,-5.5605,-5.68,0.0,-5.5633,-5.5633,-5.4803,-5.324,-5.3203,-5.3203,-5.3261,-5.4032,-5.4803,-5.5633,-5.6455,-5.6785,-5.6785,-5.6785,-5.6308,-5.5706,-5.6492,-5.5831,-5.462,-5.6198,-5.6271,-5.5721,-7.643,-7.654,-7.6686,-7.72,-7.7273,-7.7273,-7.7273,-7.7273,-7.7273,-7.7273,-7.7273,-7.7273,-7.7273,-7.7273,-7.7273,0.0,-7.6827,-7.6387,0.0,-7.4845,-7.3964,-7.3707,-7.2936,-7.1872,-7.0513,-6.9963,-6.7871,-6.409,0.0,0.0,0.0,-5.7663,-5.7294,-5.7014,-5.6875,-5.7116,-5.7629,-5.7629,-5.7776,-5.7997,-5.7997,-5.7997,-5.7997,-5.7997,-5.7997,-5.7997,-5.7997,-5.7997,-5.7997,-5.7997,-5.7997,-5.7997,-5.7997,-5.7997,-5.7997,-5.7997,-5.7997,-5.7997,-5.7997,-5.7813,-5.7666,-5.7923,-5.7813,-5.7483,-5.6932,-5.5757,-5.462,-5.4106,-5.3812,-5.3518,-5.324,-5.3408,-5.3592,-5.3592,-5.4252,0.0,0.0,0.0,0.0,-5.4766,-5.4899,-5.4764,0.0,-5.5085,0.0,0.0,0.0,0.0,0.0,0.0,0.0,0.0,-5.794,0.0,-5.7226,-5.6124,-5.5611,-5.5647,-5.3995,-5.3203,-5.324,-5.4583,-5.5354,-5.5647,-5.6455,-5.6492,-5.5941,-5.539,-5.5354,-5.5596,-5.528,-5.5537,-5.6124,-5.6602,-5.6638,-5.6528,-7.7273,-7.7273,-7.7273,-7.7273,-7.7273,-7.7273,-7.7273,-7.7273,-7.7273,-7.7273,-7.7273,-7.7273,-7.7273,-7.7273,0.0,-7.7273,-7.657,-7.5983,-7.5689,-7.4441,-7.356,-7.3266,-7.2496,-7.1431,-7.011,0.0,0.0,-6.453,-6.3613,-6.152,-5.8437,-5.796,-5.7556,-5.7262,-5.7262,-5.7703,-5.8437,-5.8143,-5.818,-5.8437,-5.8107,-5.7997,-5.7997,-5.7997,-5.7997,-5.7997,-5.7997,-5.7997,-5.7997,-5.7997,-5.7997,-5.7997,-5.7997,-5.7997,-5.7997,-5.7997,-5.7997,-5.7997,-5.7997,-5.7997,-5.7997,-5.7997,-5.7997,-5.7703,-5.6602,-5.5354,-5.4326,-5.3995,-5.3555,-5.3203,-5.3203,-5.3203,-5.3203,-5.3203,-5.3371,-5.3482,-5.3482,0.0,0.0,0.0,0.0,0.0,0.0,-5.428,0.0,0.0,0.0,0.0,0.0,0.0,0.0,-5.6962,-5.763,0.0,-5.7079,-5.6088,-5.5831,-5.6345,-5.484,-5.4106,-5.4142,-5.5464,-5.6051,-5.6088,-5.6895,-5.6785,-5.6014,-5.55,-5.5427,-5.5574,-5.539,-5.5721,-5.6418,-5.7042,-5.7079,-5.6932,-7.7273,-7.7273,0.0,0.0,-7.7273,0.0,-7.7273,-7.7273,-7.7273,-7.7273,-7.7273,-7.7273,-7.7273,-7.7237,-7.72,-7.72,0.0,0.0,0.0,-7.4074,-7.3266,-7.2532,-7.1798,-7.0991,-7.011,-6.9376,-6.776,-6.5301,-6.2768,-6.075,-5.9258,-5.9148,-5.8731,-5.7997,-5.7997,-5.8437,-5.9148,-5.8327,-5.8474,-5.9111,-5.8327,-5.7997,-5.7997,-5.7997,-5.7997,-5.7997,-5.7997,-5.7997,-5.7997,-5.7997,-5.7997,-5.7997,-5.7997,-5.7997,-5.7997,-5.7997,-5.7997,-5.7997,-5.7997,-5.7997,-5.7997,-5.7997,-5.7997,-5.7556,-5.5978,-5.506,-5.4326,-5.3408,-5.3261,-5.3298,-5.3203,-5.3203,-5.3203,-5.3203,-5.2527,-5.1977,-5.1977,0.0,0.0,0.0,0.0,0.0,0.0,-5.4363,-5.4069,0.0,0.0,0.0,0.0,0.0,-5.6586,-5.5155,-5.6187,-5.6455,-5.5684,-5.5633,-5.5596,-5.5596,-5.5669,-5.5669,-5.5633,-5.6418,-5.6822,-5.6859,-5.7593,-5.7483,-5.6822,-5.6748,-5.6308,-5.5757,-5.6528,-5.6381,-5.5941,-5.7446,-5.7519,-5.7005,0.0,0.0,-7.7273,-7.7273,-7.7273,-7.7273,-7.7273,-7.7273,-7.7273,-7.7273,-7.7273,-7.7273,-7.7273,-7.6754,-7.6387,-7.6387,-7.5652,-7.4845,-7.4037,-7.323,-7.2716,-7.2496,-7.2312,-7.1541,-7.011,-6.9926,-6.8348,-6.5301,-6.2218,-6.0493,-6.0089,-5.8877,-5.818,-5.7997,-5.7997,-5.8437,-5.9148,-5.8327,-5.8474,-5.9111,-5.8327,-5.7997,-5.7997,-5.7997,-5.7997,-5.7997,-5.7997,-5.7997,-5.7997,-5.7997,-5.7997,-5.7997,-5.7997,-5.7997,-5.7997,-5.7997,-5.7997,-5.7997,-5.7997,-5.7997,-5.7997,-5.7997,-5.7997,-5.7556,-5.5978,-5.5941,-5.5684,-5.3607,-5.3702,-5.3922,-5.3314,-5.3203,-5.3203,-5.3203,-5.2527,-5.1977,-5.1977,-5.1463,0.0,0.0,-5.2454,-5.3041,-5.4289,-5.3849,-5.3922,0.0,0.0,0.0,0.0,-5.5496,-5.6018,-5.5975,-5.6504,-5.6712,-5.6528,-5.5904,-5.5596,-5.5633,-5.6235,-5.6198,-5.5633,-5.6418,-5.6822,-5.6822,-5.7005,-5.6969,-5.6748,-5.6124,-5.6124,-5.6528,-5.6748,-5.7079,-5.7483,-5.785,-5.7886,-5.774,-7.7273,-7.7273,-7.7273,-7.7273,-7.7273,-7.7273,-7.7273,-7.7273,-7.7273,-7.7273,-7.7273,-7.7273,-7.7273,-7.6607,-7.5946,-7.5579,-7.4808,-7.4184,-7.3707,-7.2936,-7.2496,-7.2496,-7.1798,-7.0991,-7.011,-6.9376,-6.7797,-6.5301,-6.2768,-6.1117,-6.0382,-5.9501,-5.8914,-5.8547,-5.8143,-5.8841,-6.0236,-5.9061,-5.9024,-5.9698,-5.9281,-5.8657,-5.8033,-5.84,-5.8327,-5.7997,-5.7997,-5.7997,-5.7997,-5.7997,-5.7997,-5.7997,-5.7997,-5.7997,-5.7997,-5.7997,-5.7997,-5.7997,-5.7997,-5.7997,-5.7997,-5.7997,-5.7703,-5.7226,-5.6345,-5.6198,-5.5868,-5.4583,-5.462,-5.4693,-5.3922,-5.3739,-5.3518,-5.2784,-5.1977,-5.1463,-5.1463,-5.1096,0.0,-5.1903,-5.2637,-5.3445,-5.4326,-5.4326,-5.4509,-5.4987,0.0,0.0,-5.3885,-5.462,-5.4991,-5.4916,-5.5417,-5.5868,-5.6235,-5.6528,-5.6675,-5.6675,-5.7152,-5.7116,-5.6712,-5.7152,-5.7336,-5.7336,-5.7336,-5.7336,-5.7299,-5.6859,-5.6932,-5.7336,-5.7336,-5.7629,-5.7997,-5.7997,-5.7997,-5.7997,-7.7273,-7.7273,-7.7273,-7.7273,-7.7273,-7.7273,-7.7273,-7.7273,-7.7273,-7.7273,-7.7273,-7.7273,-7.7273,-7.6497,-7.5652,-7.4955,-7.4037,-7.3523,-7.3523,-7.2899,-7.2496,-7.2496,-7.1064,-7.022,-7.011,-6.8274,-6.6659,-6.5301,-6.3503,-6.1851,-6.0419,-6.0272,-5.9795,-5.8964,-5.8437,-5.9318,-6.1153,-5.9905,-5.9698,-6.0236,-6.0346,-5.9501,-5.8253,-5.8927,-5.8877,-5.8364,-5.8217,-5.8253,-5.8364,-5.8364,-5.8364,-5.8364,-5.8364,-5.8364,-5.8364,-5.8364,-5.829,-5.8143,-5.8033,-5.7997,-5.7997,-5.7997,-5.7483,-5.6969,-5.6822,-5.6381,-5.5868,-5.5669,-5.5684,-5.5537,-5.473,-5.4473,-5.3959,-5.2564,-5.1463,-5.0839,-5.0949,0.0,-5.0986,-5.205,-5.3371,-5.4363,-5.473,-5.528,-5.5317,-5.462,-5.4473,-5.4069,0.0,-5.3959,-5.4106,-5.3387,-5.4032,-5.4803,-5.5574,-5.7079,-5.7886,-5.7997,-5.7997,-5.7997,-5.7997,-5.7997,-5.7997,-5.7997,-5.7997,-5.7997,-5.7997,-5.7997,-5.7997,-5.7997,-5.7997,-5.7997,-5.7997,-5.7997,-5.7997,-5.7997,-7.7273,-7.7273,-7.7273,-7.7273,-7.7273,-7.7273,-7.7273,-7.7273,-7.7273,-7.7273,-7.7273,-7.7273,-7.7273,-7.5983,-7.5065,-7.4918,-7.356,-7.2679,-7.2679,-7.2569,-7.2496,-7.2496,-7.1615,-7.0807,-7.011,-6.7173,-6.5558,-6.5301,-6.2952,-6.13,-6.0382,-5.9698,-5.8988,-5.8217,-5.8767,-5.9221,-5.9588,-6.0052,-5.9905,-5.9441,-6.0126,-5.9832,-5.9038,-5.9148,-5.9515,-5.9942,-5.9281,-5.9465,-6.0015,-6.0015,-6.0015,-6.0015,-6.0015,-6.0015,-6.0015,-6.0015,-5.9575,-5.8877,-5.818,-5.7997,-5.7997,-5.7997,-5.7923,-5.7629,-5.6969,-5.7226,-5.7226,-5.5868,-5.6124,-5.6381,-5.5537,-5.484,-5.4326,-5.4069,-5.2197,-5.1059,-5.172,0.0,-5.0545,-5.2747,-5.3203,-5.4216,-5.6235,-5.5941,-5.5559,-5.5427,-5.4766,-5.4069,-5.3261,-5.3959,-5.4326,-5.4216,-5.4326,-5.4803,-5.5574,-5.6528,-5.7336,-5.7997,-5.7997,-5.7997,-5.7997,-5.7997,-5.7997,-5.7997,-5.7997,-5.7997,-5.7997,-5.7997,-5.7997,-5.7997,-5.7997,-5.7997,-5.7997,-5.7997,-5.7997,-5.7997,-7.7273,-7.7273,-7.7273,-7.7273,-7.7273,-7.7273,-7.7273,-7.7273,-7.7273,-7.7273,-7.7273,-7.7273,-7.7273,-7.6276,-7.5542,-7.5542,-7.4074,-7.3156,-7.3156,-7.2753,-7.2312,-7.1872,-7.1101,-7.0073,-6.8825,-6.6512,-6.5301,-6.5301,-6.2805,-6.119,-6.0382,-5.9588,-5.9245,-5.9281,-5.9221,-5.9918,-6.1092,-6.0603,-6.0456,-6.0529,-6.0896,-6.0566,-5.9905,-6.0346,-6.0456,-6.0346,-5.9979,-6.0089,-6.0419,-6.0419,-6.0419,-6.0419,-6.0419,-6.0419,-6.0419,-6.0419,-5.9832,-5.9001,-5.8217,-5.7997,-5.7997,-5.7997,-5.7997,-5.7886,-5.7519,-5.774,-5.7776,-5.7042,-5.7189,-5.7189,-5.6381,-5.5574,-5.4766,-5.3885,-5.2454,0.0,0.0,-5.1316,-5.1573,-5.3628,-5.4216,-5.5097,-5.6638,-5.6859,-5.6528,-5.5669,-5.5244,-5.4509,-5.3298,-5.3959,-5.4583,-5.5023,-5.506,-5.5023,-5.495,-5.6198,-5.7005,-5.7373,-5.7776,-5.7997,-5.7997,-5.7997,-5.7997,-5.7997,-5.7997,-5.7997,-5.7997,-5.7997,-5.7997,-5.7997,-5.7997,-5.7997,-5.7997,-5.7997,-5.7997,-5.7997,-7.7273,-7.7273,-7.7273,-7.7273,-7.7273,-7.7273,-7.7273,-7.7273,-7.7237,-7.7047,-7.7163,-7.7163,-7.676,-7.6203,-7.5763,-7.5542,-7.4221,-7.3413,-7.3413,-7.2826,-7.2165,-7.1329,-7.0367,-6.9155,-6.7724,-6.6109,-6.5301,-6.5301,-6.2989,-6.1374,-6.0382,-5.9979,-5.9905,-6.0126,-5.9869,-6.0676,-6.2218,-6.1337,-6.1117,-6.1337,-6.1741,-6.141,-6.075,-6.1374,-6.1337,-6.0933,-6.075,-6.0786,-6.097,-6.097,-6.097,-6.097,-6.097,-6.097,-6.097,-6.097,-6.0272,-5.9258,-5.8253,-5.7997,-5.7997,-5.7997,-5.7997,-5.7997,-5.7997,-5.7997,-5.7997,-5.7997,-5.7997,-5.7813,-5.7189,-5.6271,-5.5207,-5.3959,0.0,0.0,0.0,-5.2564,-5.3151,-5.4766,-5.55,-5.6124,-5.6748,-5.7373,-5.7042,-5.5427,-5.5317,-5.4766,-5.3555,-5.4069,-5.4693,-5.528,-5.55,-5.5207,-5.4399,-5.5794,-5.6602,-5.6822,-5.7629,-5.7997,-5.7997,-5.7997,-5.7997,-5.7997,-5.7997,-5.7997,-5.7997,-5.7997,-5.7997,-5.7997,-5.7997,-5.7997,-5.7997,-5.7997,-5.7997,-5.8033,-7.7273,-7.7273,-7.7273,-7.7273,-7.7273,-7.7273,-7.7273,-7.7273,-7.7017,-7.6276,-7.6864,-7.6723,-7.5249,-7.5028,-7.4698,-7.3927,-7.3083,-7.2606,-7.2606,-7.2532,-7.2165,-7.1329,-6.9816,-6.8568,-6.7724,-6.6109,-6.5301,-6.5301,-6.3576,-6.1924,-6.0419,-6.108,-6.0676,-5.9331,-6.0786,-6.1117,-6.0676,-6.201,-6.1814,-6.0639,-6.2108,-6.2254,-6.152,-6.1557,-6.2034,-6.2548,-6.1777,-6.1998,-6.2622,-6.2622,-6.2622,-6.2622,-6.2622,-6.2622,-6.2622,-6.2622,-6.152,-5.9979,-5.8437,-5.7997,-5.7997,-5.7997,-5.7997,-5.7997,-5.7997,-5.7997,-5.7997,-5.7997,-5.7997,-5.796,-5.7923,-5.6638,-5.5537,-5.5427,0.0,0.0,-5.4106,-5.4216,-5.484,-5.6455,-5.6675,-5.6748,-5.6785,-5.6859,-5.6235,-5.462,-5.4473,-5.4436,-5.4326,-5.4363,-5.4436,-5.4473,-5.5207,-5.5207,-5.4399,-5.5244,-5.6051,-5.6822,-5.7629,-5.7997,-5.7997,-5.7997,-5.7997,-5.7997,-5.7997,-5.7997,-5.7997,-5.7997,-5.7997,-5.7997,-5.7997,-5.7997,-5.7997,-5.7997,-5.7997,-5.8107,-7.7273,-7.7273,-7.7273,-7.7273,-7.7273,-7.7273,-7.7273,-7.7273,-7.698,-7.6203,-7.6387,-7.613,-7.5028,-7.4918,-7.4808,-7.4478,-7.3707,-7.323,-7.323,-7.2789,-7.1908,-7.0624,-6.9009,-6.8017,-6.7714,-6.6623,-6.5815,-6.5301,-6.3624,-6.2254,-6.1153,-6.0933,-6.0786,-6.0713,-6.1337,-6.1704,-6.1924,-6.1998,-6.1998,-6.1924,-6.1998,-6.2181,-6.2365,-6.2365,-6.2548,-6.2768,-6.2475,-6.2548,-6.278,-6.278,-6.278,-6.278,-6.278,-6.278,-6.267,-6.2218,-6.163,-6.0786,-5.9171,-5.84,-5.7997,-5.7997,-5.7997,-5.7997,-5.7997,-5.7997,-5.7997,-5.7997,-5.7997,-5.7997,-5.7997,-5.7079,-5.6345,-5.6345,0.0,-5.4803,-5.5097,-5.5133,-5.5574,-5.6675,-5.6822,-5.7005,-5.7483,-5.7556,-5.7079,-5.5978,-5.5904,-5.5684,-5.517,-5.5133,-5.5133,-5.5133,-5.495,-5.4473,-5.3665,-5.495,-5.5757,-5.6051,-5.7373,-5.7997,-5.7997,-5.7997,-5.7997,-5.7997,-5.7997,-5.7997,-5.7997,-5.7997,-5.7997,-5.7997,-5.7997,-5.7997,-5.7997,-5.7997,-5.7997,-5.8107,-7.6937,-7.7127,-7.7273,-7.7273,-7.7273,-7.7273,-7.7273,-7.7273,-7.6907,-7.5873,-7.5946,-7.5616,-7.4294,-7.4368,-7.4441,-7.4184,-7.3634,-7.3303,-7.3303,-7.2569,-7.1651,-7.0513,-6.8935,-6.8091,-6.8091,-6.7026,-6.6219,-6.5705,-6.4016,-6.2805,-6.1961,-6.141,-6.13,-6.1594,-6.1851,-6.2291,-6.2768,-6.2218,-6.2291,-6.2743,-6.2218,-6.2328,-6.278,-6.278,-6.278,-6.278,-6.278,-6.2989,-6.3172,-6.289,-6.2989,-6.3172,-6.289,-6.278,-6.2658,-6.1851,-6.1594,-6.13,-5.9942,-5.8988,-5.8327,-5.807,-5.7997,-5.7997,-5.7997,-5.7997,-5.7997,-5.7997,-5.7997,-5.7997,-5.7997,-5.7336,-5.6822,-5.6822,-5.6345,-5.5978,-5.5978,-5.6198,-5.6565,-5.7116,-5.7189,-5.7299,-5.7593,-5.7629,-5.7299,-5.6492,-5.6418,-5.6161,-5.5633,-5.5596,-5.5596,-5.5596,-5.4803,-5.4252,-5.3959,-5.506,-5.5721,-5.5978,-5.7336,-5.7997,-5.7997,-5.7997,-5.7997,-5.7997,-5.7997,-5.7997,-5.7997,-5.7997,-5.7997,-5.7997,-5.7997,-5.7997,-5.7997,-5.7997,-5.8143,-5.8474,-7.6093,-7.6754,-7.7273,-7.7273,-7.7273,-7.7273,-7.7273,-7.7273,-7.6723,-7.5139,-7.5579,-7.5175,-7.2753,-7.3193,-7.3377,-7.2569,-7.2496,-7.2496,-7.2496,-7.1762,-7.1293,-7.1293,-6.9779,-6.8898,-6.8898,-6.732,-6.6512,-6.6512,-6.4897,-6.3649,-6.278,-6.278,-6.2401,-6.163,-6.2438,-6.278,-6.278,-6.278,-6.278,-6.278,-6.278,-6.278,-6.2817,-6.2817,-6.2817,-6.2817,-6.278,-6.3392,-6.398,-6.3099,-6.3392,-6.3943,-6.3099,-6.2817,-6.2658,-6.1851,-6.163,-6.1447,-6.0639,-5.9832,-5.9001,-5.8217,-5.7997,-5.7997,-5.7997,-5.7997,-5.7997,-5.7997,-5.7997,-5.7997,-5.7997,-5.7336,-5.6822,-5.6822,-5.6822,-5.6822,-5.6822,-5.7483,-5.7997,-5.7997,-5.7997,-5.7703,-5.6895,-5.6822,-5.6492,-5.5706,-5.5611,-5.5611,-5.5633,-5.5633,-5.5633,-5.5596,-5.484,-5.4803,-5.5596,-5.5633,-5.6014,-5.6822,-5.7629,-5.7997,-5.7997,-5.7997,-5.7997,-5.7997,-5.7997,-5.7997,-5.7997,-5.7997,-5.7997,-5.7997,-5.7997,-5.7997,-5.7997,-5.7997,-5.851,-5.9184,-7.6717,-7.668,-7.6644,-7.72,-7.7273,-7.7273,-7.7273,-7.6827,-7.6093,-7.5065,-7.4625,-7.3927,-7.2642,-7.2716,-7.2753,-7.2532,-7.2496,-7.2496,-7.2496,-7.2275,-7.1908,-7.1293,-6.9779,-6.8898,-6.8898,-6.7871,-6.7063,-6.6512,-6.5448,-6.453,-6.3686,-6.3099,-6.2989,-6.3319,-6.2989,-6.3135,-6.3686,-6.3062,-6.3172,-6.3723,-6.3723,-6.4053,-6.4567,-6.4567,-6.4567,-6.4494,-6.3906,-6.4237,-6.4824,-6.398,-6.4273,-6.4897,-6.464,-6.4567,-6.442,-6.3576,-6.3356,-6.3025,-6.163,-6.108,-6.0566,-5.9208,-5.8437,-5.7997,-5.7997,-5.7997,-5.7997,-5.7997,-5.7997,-5.7997,-5.7997,-5.7813,-5.7629,-5.7629,-5.7629,-5.7629,-5.7629,-5.785,-5.7997,-5.7997,-5.7997,-5.7923,-5.7666,-5.7629,-5.7556,-5.7299,-5.7262,-5.7042,-5.6455,-5.6455,-5.6161,-5.5611,-5.5354,-5.5611,-5.6418,-5.6455,-5.6565,-5.6822,-5.7629,-5.7997,-5.7997,-5.7997,-5.7997,-5.7997,-5.7997,-5.7997,-5.7997,-5.7997,-5.7997,-5.7997,-5.7997,-5.7997,-5.7997,-5.7997,-5.851,-5.9184,-7.6136,-7.6497,-7.6754,-7.72,-7.7017,-7.6827,-7.6827,-7.6166,-7.5359,-7.4551,-7.4001,-7.3377,-7.2606,-7.2496,-7.2496,-7.2496,-7.2496,-7.2496,-7.2496,-7.2202,-7.1945,-7.1798,-6.9926,-6.8898,-6.8898,-6.8091,-6.7467,-6.6953,-6.6182,-6.5521,-6.5007,-6.42,-6.3906,-6.4053,-6.3539,-6.3429,-6.3539,-6.3025,-6.3319,-6.409,-6.409,-6.4567,-6.5301,-6.5301,-6.5301,-6.5264,-6.4751,-6.5081,-6.5668,-6.4861,-6.4897,-6.5301,-6.5301,-6.5301,-6.5154,-6.4347,-6.409,-6.3796,-6.2438,-6.1851,-6.1374,-6.0382,-5.9318,-5.8474,-5.8474,-5.8217,-5.7997,-5.7997,-5.7997,-5.7997,-5.7997,-5.7997,-5.7997,-5.7997,-5.7997,-5.7997,-5.7997,-5.7997,-5.7997,-5.7997,-5.7997,-5.7997,-5.7997,-5.7997,-5.7997,-5.7997,-5.7997,-5.7776,-5.7299,-5.6969,-5.6712,-5.6528,-5.6235,-5.6455,-5.7262,-5.7262,-5.7262,-5.7299,-5.7776,-5.7997,-5.7997,-5.7997,-5.7997,-5.7997,-5.7997,-5.7997,-5.8033,-5.8327,-5.829,-5.8033,-5.8364,-5.829,-5.8033,-5.8364,-5.8988,-5.9661,-7.4992,-7.6099,-7.7127,-7.7273,-7.6607,-7.6019,-7.6093,-7.5359,-7.4551,-7.378,-7.3634,-7.3303,-7.2569,-7.2496,-7.2496,-7.2496,-7.2496,-7.2496,-7.2496,-7.1762,-7.1615,-7.2275,-7.0183,-6.8935,-6.8788,-6.8054,-6.7687,-6.7687,-6.688,-6.6512,-6.6476,-6.5595,-6.4897,-6.431,-6.409,-6.3686,-6.3135,-6.2989,-6.3466,-6.431,-6.431,-6.4787,-6.5521,-6.5521,-6.5521,-6.5521,-6.5448,-6.5925,-6.6512,-6.5778,-6.5521,-6.5521,-6.5521,-6.5521,-6.5375,-6.453,-6.431,-6.409,-6.3172,-6.2365,-6.1777,-6.1741,-6.0566,-5.9404,-5.9294,-5.8694,-5.8107,-5.8107,-5.8033,-5.7997,-5.7997,-5.7997,-5.7997,-5.7997,-5.7997,-5.7997,-5.7997,-5.7997,-5.7997,-5.7997,-5.7997,-5.7997,-5.7997,-5.7997,-5.7997,-5.7997,-5.7997,-5.796,-5.7886,-5.7262,-5.7226,-5.7886,-5.7262,-5.7262,-5.7997,-5.7997,-5.7997,-5.7997,-5.7997,-5.7997,-5.7997,-5.7997,-5.7997,-5.7997,-5.7997,-5.7997,-5.807,-5.8877,-5.8731,-5.807,-5.8914,-5.8731,-5.8107,-5.8891,-5.9698,-6.0419,-7.5579,-7.5616,-7.5836,-7.7053,-7.6099,-7.5395,-7.6019,-7.4882,-7.3891,-7.3707,-7.3156,-7.2679,-7.2532,-7.2496,-7.2496,-7.2496,-7.2496,-7.2496,-7.2496,-7.1762,-7.1101,-7.0624,-7.011,-6.9229,-6.7981,-6.7797,-6.7687,-6.7687,-6.688,-6.6512,-6.6476,-6.5044,-6.4934,-6.5888,-6.3943,-6.4053,-6.5632,-6.4347,-6.464,-6.5962,-6.5962,-6.6439,-6.7173,-6.7173,-6.7173,-6.71,-6.6476,-6.6769,-6.7393,-6.7247,-6.7173,-6.7173,-6.7173,-6.7173,-6.7026,-6.6219,-6.5962,-6.5668,-6.42,-6.3686,-6.3392,-6.2732,-6.1814,-6.0896,-6.0272,-5.9538,-5.8927,-5.8927,-5.8437,-5.7997,-5.7997,-5.7997,-5.7997,-5.7997,-5.7997,-5.7997,-5.7997,-5.7997,-5.7997,-5.7997,-5.7997,-5.7997,-5.7997,-5.7997,-5.7997,-5.7997,-5.7997,-5.7703,-5.7079,-5.7483,-5.7519,-5.7079,-5.7483,-5.7813,-5.7997,-5.7997,-5.7997,-5.7997,-5.7997,-5.7997,-5.7997,-5.7997,-5.7997,-5.7997,-5.7997,-5.7997,-5.807,-5.8877,-5.8731,-5.807,-5.8914,-5.8731,-5.8107,-5.8891,-5.9698,-6.0419,-7.4771,-7.4918,-7.5175,-7.5989,-7.5139,-7.4478,-7.4882,-7.3891,-7.312,-7.312,-7.2753,-7.2496,-7.2496,-7.2496,-7.2496,-7.2496,-7.2496,-7.2496,-7.2496,-7.1394,-7.0881,-7.1211,-7.0146,-6.9302,-6.8825,-6.8458,-6.8091,-6.7687,-6.7283,-6.7063,-6.7026,-6.5815,-6.5705,-6.6439,-6.4751,-6.4714,-6.5888,-6.5044,-6.5375,-6.6512,-6.6512,-6.699,-6.7687,-6.7687,-6.7687,-6.7614,-6.721,-6.732,-6.7687,-6.7687,-6.7687,-6.7687,-6.7687,-6.7687,-6.754,-6.6733,-6.6512,-6.6145,-6.453,-6.409,-6.387,-6.3025,-6.2475,-6.1961,-6.1153,-6.0346,-5.9795,-5.9795,-5.9134,-5.8584,-5.8584,-5.8253,-5.7997,-5.7997,-5.7997,-5.7997,-5.7997,-5.7997,-5.7997,-5.7997,-5.7997,-5.7997,-5.7997,-5.7997,-5.7997,-5.7997,-5.7997,-5.7813,-5.7409,-5.7776,-5.7813,-5.7409,-5.7776,-5.7997,-5.7997,-5.7997,-5.7997,-5.7997,-5.7997,-5.7997,-5.7997,-5.7997,-5.8217,-5.8584,-5.8584,-5.8584,-5.8657,-5.9869,-5.9428,-5.8107,-5.9318,-5.9061,-5.8107,-5.8891,-5.9942,-6.1043,-7.3707,-7.4258,-7.4735,-7.4882,-7.4111,-7.3523,-7.367,-7.301,-7.2496,-7.2496,-7.2496,-7.2496,-7.2496,-7.2496,-7.2496,-7.2496,-7.2496,-7.2459,-7.2312,-7.0917,-7.0697,-7.2018,-7.0183,-6.9412,-7.0073,-6.9449,-6.8641,-6.7687,-6.7687,-6.7687,-6.7677,-6.688,-6.6549,-6.6659,-6.5742,-6.5448,-6.5705,-6.5558,-6.5962,-6.6696,-6.6696,-6.71,-6.7687,-6.7687,-6.7687,-6.7687,-6.7687,-6.7687,-6.7724,-6.7834,-6.7907,-6.7871,-6.7724,-6.7797,-6.7724,-6.6953,-6.6696,-6.6329,-6.4751,-6.431,-6.4053,-6.3062,-6.278,-6.2658,-6.1961,-6.119,-6.0603,-6.0603,-5.9869,-5.9184,-5.9184,-5.8547,-5.7997,-5.7997,-5.7997,-5.7997,-5.7997,-5.7997,-5.7997,-5.7997,-5.7997,-5.7997,-5.7997,-5.7997,-5.7997,-5.7997,-5.7997,-5.7997,-5.7997,-5.7997,-5.7997,-5.7997,-5.7997,-5.7997,-5.7997,-5.7997,-5.7997,-5.7997,-5.7997,-5.7997,-5.7997,-5.8143,-5.8584,-5.9184,-5.9331,-5.9331,-5.9294,-6.0933,-6.0162,-5.8143,-5.9758,-5.9428,-5.8107,-5.9061,-6.0419,-6.1887,-7.3707,-7.378,-7.4074,-7.4808,-7.367,-7.2899,-7.3597,-7.301,-7.2496,-7.2496,-7.2496,-7.2496,-7.2496,-7.2496,-7.2496,-7.2496,-7.2496,-7.2202,-7.1541,-7.0624,-7.0183,-7.0403,-7.011,-7.0,-7.011,-7.0,-6.9192,-6.7687,-6.7687,-6.7687,-6.7677,-6.688,-6.688,-6.7467,-6.5962,-6.6072,-6.732,-6.6623,-6.6806,-6.754,-6.754,-6.7577,-6.7687,-6.7687,-6.7687,-6.7687,-6.7687,-6.7687,-6.7797,-6.8495,-6.8752,-6.8605,-6.7907,-6.8164,-6.8568,-6.776,-6.754,-6.7173,-6.5558,-6.5154,-6.4787,-6.3184,-6.278,-6.2743,-6.2658,-6.2034,-6.1447,-6.1447,-6.0236,-5.9184,-5.9184,-5.8547,-5.7997,-5.7997,-5.7997,-5.7997,-5.7997,-5.7997,-5.7997,-5.7997,-5.7997,-5.7997,-5.7997,-5.7997,-5.7997,-5.7997,-5.7997,-5.7997,-5.7997,-5.7997,-5.7997,-5.7997,-5.7997,-5.7997,-5.7997,-5.7997,-5.7997,-5.7997,-5.7997,-5.7997,-5.8033,-5.8731,-5.9074,-5.9221,-5.9942,-5.9832,-5.9294,-6.0933,-6.0162,-5.8143,-5.9758,-5.9428,-5.818,-5.9685,-6.1263,-6.2548,-7.3046,-7.3046,-7.3156,-7.3523,-7.2973,-7.2606,-7.2973,-7.2716,-7.2496,-7.2496,-7.2496,-7.2496,-7.2496,-7.2496,-7.2496,-7.2496,-7.2496,-7.2349,-7.1982,-7.1211,-7.0991,-7.1431,-7.1027,-7.077,-7.077,-7.077,-7.022,-6.9045,-6.8128,-6.7907,-6.8348,-6.71,-6.6916,-6.7677,-6.6476,-6.6623,-6.7677,-6.732,-6.7357,-6.7687,-6.7687,-6.7687,-6.7687,-6.7687,-6.7981,-6.8421,-6.8862,-6.8752,-6.8421,-6.8788,-6.8898,-6.8752,-6.7944,-6.7944,-6.8164,-6.7797,-6.7687,-6.743,-6.6292,-6.5962,-6.5668,-6.4494,-6.42,-6.42,-6.42,-6.3576,-6.2842,-6.2365,-6.1337,-6.0529,-6.0529,-5.9538,-5.8694,-5.8694,-5.829,-5.7997,-5.7997,-5.7997,-5.7997,-5.7997,-5.7997,-5.7997,-5.7997,-5.7997,-5.7997,-5.7997,-5.7997,-5.7997,-5.7997,-5.7997,-5.7997,-5.7997,-5.7997,-5.7997,-5.7997,-5.7997,-5.7997,-5.7997,-5.8474,-5.8694,-5.8694,-5.9038,-5.9685,-6.0529,-6.0456,-6.0199,-5.9942,-6.0639,-5.9758,-5.8107,-5.9281,-5.9318,-5.8804,-5.9979,-6.086,-6.1557]},{"header":{"parameterUnit":"m.s-1","parameterCategory":1,"la1":30.6,"la2":28.766,"lo1":-90.7593,"lo2":-88.6598,"dy":0.0162,"dx":0.0183,"nx":116,"ny":114,"refTime":"2024-05-08T12:00:00:Z","depth":0,"parameterNumber":3,"parameterNumberName":"V-component_of_WINDS"},"data":[0.0,0.0,0.0,0.0,0.0,0.0,0.0,0.0,0.0,0.0,0.0,0.0,0.0,0.0,0.0,0.0,0.0,0.0,0.0,0.0,0.0,0.0,0.0,0.0,0.0,0.0,0.0,0.0,0.0,0.0,0.0,0.0,0.0,0.0,0.0,0.0,0.0,0.0,0.0,0.0,0.0,0.0,0.0,0.0,0.0,0.0,0.0,0.0,0.0,0.0,0.0,0.0,0.0,0.0,0.0,0.0,0.0,0.0,0.0,0.0,0.0,0.0,0.0,0.0,0.0,0.0,0.0,0.0,0.0,0.0,0.0,0.0,0.0,0.0,0.0,0.0,0.0,0.0,0.0,0.0,0.0,0.0,0.0,0.0,0.0,0.0,0.0,0.0,0.0,0.0,0.0,0.0,0.0,0.0,0.0,0.0,0.0,0.0,0.0,0.0,0.0,0.0,0.0,0.0,0.0,0.0,0.0,0.0,0.0,0.0,0.0,0.0,0.0,0.0,0.0,0.0,0.0,0.0,0.0,0.0,0.0,0.0,0.0,0.0,0.0,0.0,0.0,0.0,0.0,0.0,0.0,0.0,0.0,0.0,0.0,0.0,0.0,0.0,0.0,0.0,0.0,0.0,0.0,0.0,0.0,0.0,0.0,0.0,0.0,0.0,0.0,0.0,0.0,0.0,0.0,0.0,0.0,0.0,0.0,0.0,0.0,0.0,0.0,0.0,0.0,0.0,0.0,0.0,0.0,0.0,0.0,0.0,0.0,0.0,0.0,0.0,0.0,0.0,0.0,0.0,0.0,0.0,0.0,0.0,0.0,0.0,0.0,0.0,0.0,0.0,0.0,0.0,0.0,0.0,0.0,0.0,0.0,0.0,0.0,0.0,0.0,0.0,0.0,0.0,0.0,0.0,0.0,0.0,0.0,0.0,0.0,0.0,0.0,0.0,0.0,0.0,0.0,0.0,0.0,0.0,0.0,0.0,0.0,0.0,0.0,0.0,0.0,0.0,0.0,0.0,0.0,0.0,0.0,0.0,0.0,0.0,0.0,0.0,0.0,0.0,0.0,0.0,0.0,0.0,0.0,0.0,0.0,0.0,0.0,0.0,0.0,0.0,0.0,0.0,0.0,0.0,0.0,0.0,0.0,0.0,0.0,0.0,0.0,0.0,0.0,0.0,0.0,0.0,0.0,0.0,0.0,0.0,0.0,0.0,0.0,0.0,0.0,0.0,0.0,0.0,0.0,0.0,0.0,0.0,0.0,0.0,0.0,0.0,0.0,0.0,0.0,0.0,0.0,0.0,0.0,0.0,0.0,0.0,0.0,0.0,0.0,0.0,0.0,0.0,0.0,0.0,0.0,0.0,0.0,0.0,0.0,0.0,0.0,0.0,0.0,0.0,0.0,0.0,0.0,0.0,0.0,0.0,0.0,0.0,0.0,0.0,0.0,0.0,0.0,0.0,0.0,0.0,0.0,0.0,0.0,0.0,0.0,0.0,0.0,0.0,0.0,0.0,0.0,0.0,0.0,0.0,0.0,0.0,0.0,0.0,0.0,0.0,0.0,0.0,0.0,0.0,0.0,0.0,0.0,0.0,0.0,0.0,0.0,0.0,0.0,0.0,0.0,0.0,0.0,0.0,0.0,0.0,0.0,0.0,0.0,0.0,0.0,0.0,0.0,0.0,0.0,0.0,0.0,0.0,0.0,0.0,0.0,0.0,0.0,0.0,0.0,0.0,0.0,0.0,0.0,0.0,0.0,0.0,0.0,0.0,0.0,0.0,0.0,0.0,0.0,0.0,0.0,0.0,0.0,0.0,0.0,0.0,0.0,0.0,0.0,0.0,0.0,0.0,0.0,0.0,0.0,0.0,0.0,0.0,0.0,0.0,0.0,0.0,0.0,0.0,0.0,0.0,0.0,0.0,0.0,0.0,0.0,0.0,0.0,0.0,0.0,0.0,0.0,0.0,0.0,0.0,0.0,0.0,0.0,0.0,0.0,0.0,0.0,0.0,0.0,0.0,0.0,0.0,0.0,0.0,0.0,0.0,0.0,0.0,0.0,0.0,0.0,0.0,0.0,0.0,0.0,0.0,0.0,0.0,0.0,0.0,0.0,0.0,0.0,0.0,0.0,0.0,0.0,0.0,0.0,0.0,0.0,0.0,0.0,0.0,0.0,0.0,0.0,0.0,0.0,0.0,0.0,0.0,0.0,0.0,0.0,0.0,0.0,0.0,0.0,0.0,0.0,0.0,0.0,0.0,0.0,0.0,0.0,0.0,0.0,0.0,0.0,0.0,0.0,0.0,0.0,0.0,0.0,0.0,0.0,0.0,0.0,0.0,0.0,0.0,0.0,0.0,0.0,0.0,0.0,0.0,0.0,0.0,0.0,0.0,0.0,0.0,0.0,0.0,0.0,0.0,0.0,0.0,0.0,0.0,0.0,0.0,0.0,0.0,0.0,0.0,0.0,0.0,0.0,0.0,0.0,0.0,0.0,0.0,0.0,0.0,0.0,0.0,0.0,0.0,0.0,0.0,0.0,0.0,0.0,0.0,0.0,0.0,0.0,0.0,0.0,0.0,0.0,0.0,0.0,0.0,0.0,0.0,0.0,0.0,0.0,0.0,0.0,0.0,0.0,0.0,0.0,0.0,0.0,0.0,0.0,0.0,0.0,0.0,0.0,0.0,0.0,0.0,0.0,0.0,0.0,0.0,0.0,0.0,0.0,0.0,0.0,0.0,0.0,0.0,0.0,0.0,0.0,0.0,0.0,0.0,0.0,0.0,0.0,0.0,0.0,0.0,0.0,0.0,0.0,0.0,0.0,0.0,0.0,0.0,0.0,0.0,0.0,0.0,0.0,0.0,0.0,0.0,0.0,0.0,0.0,0.0,0.0,0.0,0.0,0.0,0.0,0.0,0.0,0.0,0.0,0.0,0.0,0.0,0.0,0.0,0.0,0.0,0.0,0.0,0.0,0.0,0.0,0.0,0.0,0.0,0.0,0.0,0.0,0.0,0.0,0.0,0.0,0.0,0.0,0.0,0.0,0.0,0.0,0.0,0.0,0.0,0.0,0.0,0.0,0.0,0.0,0.0,0.0,0.0,0.0,0.0,0.0,0.0,0.0,0.0,0.0,0.0,0.0,0.0,0.0,0.0,0.0,0.0,0.0,0.0,0.0,0.0,0.0,0.0,0.0,0.0,0.0,0.0,0.0,0.0,0.0,0.0,0.0,0.0,0.0,0.0,0.0,0.0,0.0,0.0,0.0,0.0,0.0,0.0,0.0,0.0,0.0,0.0,0.0,0.0,0.0,0.0,0.0,0.0,0.0,0.0,0.0,0.0,0.0,0.0,0.0,0.0,0.0,0.0,0.0,0.0,0.0,0.0,0.0,0.0,0.0,0.0,0.0,0.0,0.0,0.0,0.0,0.0,0.0,0.0,0.0,0.0,0.0,0.0,0.0,0.0,0.0,0.0,0.0,0.0,0.0,0.0,0.0,0.0,0.0,0.0,0.0,0.0,0.0,0.0,0.0,0.0,0.0,0.0,0.0,0.0,0.0,0.0,0.0,0.0,0.0,0.0,0.0,0.0,0.0,0.0,0.0,0.0,0.0,0.0,0.0,0.0,0.0,0.0,0.0,0.0,0.0,0.0,0.0,0.0,0.0,0.0,0.0,0.0,0.0,0.0,0.0,0.0,0.0,0.0,0.0,0.0,0.0,0.0,0.0,0.0,0.0,0.0,0.0,0.0,0.0,0.0,0.0,0.0,0.0,0.0,0.0,0.0,0.0,0.0,0.0,0.0,0.0,0.0,0.0,0.0,0.0,0.0,0.0,0.0,0.0,0.0,0.0,0.0,0.0,0.0,0.0,0.0,0.0,0.0,0.0,0.0,0.0,0.0,0.0,0.0,0.0,0.0,0.0,0.0,0.0,0.0,0.0,0.0,0.0,0.0,0.0,0.0,0.0,0.0,0.0,0.0,0.0,0.0,0.0,0.0,0.0,0.0,0.0,0.0,0.0,0.0,0.0,0.0,0.0,0.0,0.0,0.0,0.0,0.0,0.0,0.0,0.0,0.0,0.0,0.0,0.0,0.0,0.0,0.0,0.0,0.0,0.0,0.0,0.0,0.0,0.0,0.0,0.0,0.0,0.0,0.0,0.0,0.0,0.0,0.0,0.0,0.0,0.0,0.0,0.0,0.0,0.0,0.0,0.0,0.0,0.0,0.0,0.0,0.0,0.0,0.0,0.0,0.0,0.0,0.0,0.0,0.0,0.0,0.0,0.0,0.0,0.0,0.0,0.0,0.0,0.0,0.0,0.0,0.0,0.0,0.0,0.0,0.0,0.0,0.0,0.0,0.0,0.0,0.0,0.0,0.0,0.0,0.0,0.0,0.0,0.0,0.0,0.0,0.0,0.0,0.0,0.0,0.0,0.0,0.0,0.0,0.0,0.0,0.0,0.0,0.0,0.0,0.0,0.0,0.0,0.0,0.0,0.0,0.0,0.0,0.0,0.0,0.0,0.0,0.0,0.0,0.0,0.0,0.0,0.0,0.0,0.0,0.0,0.0,0.0,0.0,0.0,0.0,0.0,0.0,0.0,0.0,0.0,0.0,0.0,0.0,0.0,0.0,0.0,0.0,0.0,0.0,0.0,0.0,0.0,0.0,0.0,0.0,0.0,0.0,0.0,0.0,0.0,0.0,0.0,0.0,0.0,0.0,0.0,0.0,0.0,0.0,0.0,0.0,0.0,0.0,0.0,0.0,0.0,0.0,0.0,0.0,0.0,0.0,0.0,0.0,0.0,0.0,0.0,0.0,0.0,0.0,0.0,0.0,0.0,0.0,0.0,0.0,0.0,0.0,0.0,0.0,0.0,0.0,0.0,0.0,0.0,0.0,0.0,0.0,0.0,0.0,0.0,0.0,0.0,0.0,0.0,0.0,0.0,0.0,0.0,0.0,0.0,0.0,0.0,0.0,0.0,0.0,0.0,0.0,0.0,0.0,0.0,0.0,0.0,0.0,0.0,0.0,0.0,0.0,0.0,0.0,0.0,0.0,0.0,0.0,0.0,0.0,0.0,0.0,0.0,0.0,0.0,0.0,0.0,0.0,0.0,0.0,0.0,0.0,0.0,0.0,0.0,0.0,0.0,0.0,0.0,0.0,0.0,0.0,0.0,0.0,0.0,0.0,0.0,0.0,0.0,0.0,0.0,0.0,0.0,0.0,0.0,0.0,0.0,0.0,0.0,0.0,0.0,0.0,0.0,0.0,0.0,0.0,0.0,0.0,0.0,0.0,0.0,0.0,0.0,0.0,0.0,0.0,0.0,0.0,0.0,0.0,0.0,0.0,0.0,0.0,0.0,0.0,0.0,0.0,0.0,0.0,0.0,0.0,0.0,0.0,0.0,0.0,0.0,0.0,0.0,0.0,0.0,0.0,0.0,0.0,0.0,0.0,0.0,0.0,0.0,0.0,0.0,0.0,0.0,0.0,0.0,0.0,0.0,0.0,0.0,0.0,0.0,0.0,0.0,0.0,0.0,0.0,0.0,0.0,0.0,0.0,0.0,0.0,0.0,0.0,0.0,0.0,0.0,0.0,0.0,0.0,0.0,0.0,0.0,0.0,0.0,0.0,0.0,0.0,0.0,0.0,0.0,0.0,0.0,0.0,0.0,0.0,0.0,0.0,0.0,0.0,0.0,0.0,0.0,0.0,0.0,0.0,0.0,0.0,0.0,0.0,0.0,0.0,0.0,0.0,0.0,0.0,0.0,0.0,0.0,0.0,0.0,0.0,0.0,0.0,0.0,0.0,0.0,0.0,0.0,0.0,0.0,0.0,0.0,0.0,0.0,0.0,0.0,0.0,0.0,0.0,0.0,0.0,0.0,0.0,0.0,0.0,0.0,0.0,0.0,0.0,0.0,0.0,0.0,0.0,0.0,0.0,0.0,0.0,0.0,0.0,0.0,0.0,0.0,0.0,0.0,0.0,0.0,0.0,0.0,0.0,0.0,0.0,0.0,0.0,0.0,0.0,0.0,0.0,0.0,0.0,0.0,0.0,0.0,0.0,0.0,0.0,0.0,0.0,0.0,0.0,0.0,0.0,0.0,0.0,0.0,0.6596,0.0,0.0,0.0,0.0,0.0,0.0,0.0,0.0,0.0,0.0,0.0,0.0,0.0,0.0,0.0,0.0,0.0,0.0,0.0,0.0,0.0,0.0,0.0,0.0,0.0538,0.0,0.0,0.0,0.074,0.2551,0.0,0.0,0.0,0.0,0.0,0.1411,0.0471,0.0,0.0,0.0,0.0,0.0,0.0,0.0,0.0,0.0,0.0,0.0,0.0,0.0,0.0,0.0,0.0,0.0,0.0,0.0,0.0,0.0,0.0,0.0,0.0,0.0,0.0,0.0,0.0,0.0,0.0,0.0,0.0,0.0,0.0,0.0,0.0,0.0,0.0,0.0,0.0,0.0,0.0,0.0,0.0,0.0,0.0,0.0,0.0,0.0,0.0,0.0,0.0,0.0,0.0,0.0,0.0,0.0,0.0,0.0,0.0,0.0,0.0,0.0,0.0,0.0,0.0,0.0,0.0,0.0,0.0,0.0,0.0,0.0,0.0,0.0,0.0,0.0,0.0,0.0,0.9076,0.0,0.0,0.0,0.0,0.0,0.0,0.0,0.0,0.0,0.0,0.0,0.0,0.0,0.0,0.0,0.0,0.0,0.0,0.0,0.0,0.0,0.4433,0.2414,0.0874,0.0,0.0,0.0,0.0605,0.2148,0.2216,0.2216,0.2216,0.2216,0.1545,0.0,0.0,0.0,0.0,0.0,0.0,0.0,0.0,0.0,0.0,0.0,0.0,0.0,0.0,0.0,0.0,0.0,0.0,0.0,0.0,0.0,0.0,0.0,0.0,0.0,0.0,0.0,0.0,0.0,0.0,0.0,0.0,0.0,0.0,0.0,0.0,0.0,0.0,0.0,0.0,0.0,0.0,0.0,0.0,0.0,0.0,0.0,0.0,0.0,0.0,0.0,0.0,0.0,0.0,0.0,0.0,0.0,0.0,0.0,0.0,0.0,0.0,0.0,0.0,0.0,0.0,0.0,0.0,0.0,0.0,0.0,0.0,0.0,0.0,1.4095,1.4245,1.434,1.4183,1.4061,1.3946,1.3397,1.3024,1.2608,1.0638,0.0,0.0,0.0,0.0,0.0,0.0,0.0,0.0,0.0,0.0,0.0,0.0,0.0,0.0,0.0,0.0,0.0,0.0,0.0,0.4083,0.074,0.0135,0.0,0.0,0.0,0.0135,0.0336,0.0336,0.0336,0.0336,0.0336,0.0269,0.0,0.0,0.0,0.0,0.0,0.0,0.0,0.0,0.0,0.0,0.0,0.0,0.0,0.0,0.0,0.0,0.0,0.0,0.0,0.0,0.0,0.0,0.0,0.0,0.0,0.0,0.0,0.0,0.0,0.0,0.0,0.0,0.0,0.0,0.0,0.0,0.0,0.0,0.0,0.0,0.0,0.0,0.0,0.0,0.0,0.0,0.0,0.0,0.0,0.0,0.0,0.0,0.0,0.0,1.2868,1.301,0.0,0.0,0.0,0.0,0.0,0.0,0.0,0.0,0.0,0.0,0.0,0.0,0.0,1.3756,1.4333,1.474,1.4957,1.4984,1.5391,1.5533,1.5425,1.5276,1.5269,1.5357,1.5011,0.0,1.3098,1.2655,0.0,0.0,0.0,0.0,0.0,0.0,0.0,0.0,0.0,0.0,0.0,0.0,0.0,0.0,0.0,0.0,0.0,0.0,0.0,0.0,0.0,0.0,0.0,0.0,0.0,0.0,0.0,0.0,0.0,0.0,0.0,0.0,0.0,0.0,0.0,0.0,0.0,0.0,0.0,0.0,0.0,0.0,0.0,0.0,0.0,0.0,0.0,0.0,0.0,0.0,0.0,0.0,0.0,0.0,0.0,0.0,0.0,0.0,0.0,0.0,0.0,0.0,0.0,0.0,0.0,0.0,0.0,0.0,0.0,0.0,0.0,0.0,0.0,0.0,0.0,0.0,0.0,0.0,0.0,0.0,0.0,0.0,0.0,0.0,0.0,1.2678,1.3105,1.2827,1.3037,1.2963,0.0,0.0,0.0,0.0,0.0,0.0,0.0,0.0,0.0,1.436,1.438,1.4631,1.514,1.5418,1.5601,1.5689,1.5974,1.6117,1.613,1.6062,1.6029,1.6008,1.5872,1.5337,1.4502,1.3763,1.3254,1.2728,0.0,0.0,0.0,0.0,0.7243,0.8214,0.0,0.0,0.0,0.0,0.0,0.0,0.0,0.0,0.0,0.0,0.0,0.0,0.034,0.0,0.0,0.0,0.0,0.0,0.0,0.0,0.0,0.0,0.0,0.0,0.0,0.0,0.0,0.0,0.0,0.0,0.0,0.0,0.0,0.0,0.0,0.0,0.0,0.0,0.0,0.0,0.0,0.0,0.0,0.0,0.0,0.0,0.0,0.0,0.0,0.0,0.0,0.0,0.0,0.0,0.0,0.0,0.0,0.0,0.0,0.0,0.0,0.0,0.0,0.0,0.0,0.0,0.0,0.0,0.0,0.0,0.0,0.0,0.0,0.0,0.0,0.0,0.0,1.2969,1.3336,1.2847,1.3424,1.3519,0.0,0.0,0.0,0.0,0.0,0.0,1.4014,1.4272,1.4726,1.5404,1.5425,1.5642,1.609,1.6164,1.6252,1.6368,1.6442,1.6537,1.6639,1.6639,1.6558,1.6422,1.6381,1.6151,1.5723,1.459,1.4,1.3559,1.1547,1.0645,1.0381,0.9089,0.9412,1.0651,0.0,0.0,0.0,0.0,0.0,0.0,0.0,0.0,0.0,0.0,0.0,0.2139,0.0209,0.0,0.0,0.0,0.0,0.0,0.0,0.0,0.0,0.0,0.0,0.0,0.0,0.0,0.0,0.0,0.0,0.0,0.0,0.0,0.0,0.0,0.0,0.0,0.0,0.0,0.0,0.0,0.0,0.0,0.0,0.0,0.0,0.0,0.0,0.0,0.0,0.0,0.0,0.0,0.0,0.0,0.0,0.0,0.0,0.0,0.0,0.0,0.0,0.0,0.0,0.0,0.0,0.0,0.0,0.0,0.0,0.0,0.0,0.0,0.0,0.0,0.0,0.0,0.0,0.0,0.0,1.3593,1.4475,0.0,0.0,0.0,0.0,1.3797,1.4197,1.4645,1.5079,1.5255,1.575,1.6632,1.6659,1.6876,1.7324,1.7195,1.7127,1.7134,1.7005,1.6951,1.6958,1.6958,1.6876,1.672,1.6571,1.6422,1.6205,1.5289,1.4658,1.4204,1.3509,1.3104,1.2956,1.2749,1.2956,1.3191,0.0,0.0,0.0,0.0,0.0,0.0,0.0,0.1518,0.2048,0.0263,0.1604,0.1984,0.0212,0.0,0.0,0.0,0.0,0.0,0.0,0.0,0.0,0.0,0.0,0.0,0.0,0.0,0.0,0.0,0.0,0.0,0.0,0.0,0.0,0.0,0.0,0.0,0.0,0.0,0.0,0.0,0.0,0.178,0.0,0.0,0.0,0.0,0.0,0.0,0.0,0.0,0.0,0.0,0.0,0.0,0.0,0.0,0.0,0.0,0.0,0.0,0.0,0.0,0.0,0.0,0.0,0.0,0.0,0.0,0.0,0.0,0.0,0.0,0.0,0.0,0.0,0.0,0.0,0.0,0.0,1.4496,1.533,0.0,1.4774,1.4977,1.5113,1.5004,1.5499,1.592,1.6178,1.6422,1.6748,1.7168,1.7182,1.7256,1.7419,1.727,1.7195,1.7188,1.7046,1.6978,1.6978,1.6978,1.6842,1.6598,1.6544,1.6327,1.5988,1.5574,1.5248,1.4977,1.457,1.4204,1.3905,1.3946,1.3905,1.3844,0.0,0.0,0.0,0.0,0.0,0.0,0.0,0.1006,0.1335,0.013,0.1072,0.1316,0.0144,0.0,0.0,0.0,0.0,0.0,0.0,0.0,0.0,0.0,0.0,0.0,0.0,0.0,0.0,0.0,0.0,0.0,0.0,0.0,0.0,0.0,0.0,0.0,0.0,0.0,0.0,0.0069,0.0669,0.2811,0.5612,0.0,0.0,0.0,0.0,0.0,0.0,0.0,0.0,0.0,0.0,0.0,0.0,0.0,0.0,0.0,0.0,0.0,0.0,0.0,0.0,0.0,0.0,0.0,0.0,0.0,0.0,0.0,0.0,0.0,0.0,0.0,0.0,0.0,0.0,1.4333,1.5099,1.5052,1.5967,1.6334,1.5628,1.5927,1.6144,1.6096,1.6551,1.689,1.7046,1.7236,1.7412,1.7568,1.7568,1.7548,1.75,1.7344,1.7243,1.7188,1.7046,1.6978,1.6978,1.6931,1.6761,1.6517,1.6415,1.6178,1.5845,1.5696,1.5547,1.5377,1.5086,1.4787,1.4523,1.4516,1.4387,1.4231,0.0,0.0,0.0,0.0,0.0,0.0,0.0062,0.0062,0.0,0.0064,0.0,0.0,0.0,0.0,0.0,0.0,0.0,0.0,0.0,0.0,0.0,0.0,0.0,0.0,0.0,0.0,0.0,0.0,0.0,0.0,0.0,0.0,0.0,0.0,0.0,0.0,0.0,0.0,0.0,0.0138,0.1962,0.4027,0.6125,0.0,0.0,0.0,0.0,0.0,0.0,0.0,0.0,0.0,0.0,0.0,0.0,0.0,0.0,0.0,0.0,0.0,0.0,0.0,0.0,0.0,0.0,0.0,0.0,0.0,0.0,0.0,0.0,0.0,0.0,0.0,0.0,0.0,1.3871,1.478,1.5398,1.5262,1.6408,1.6876,1.6008,1.6707,1.7154,1.7019,1.727,1.75,1.765,1.765,1.7717,1.786,1.786,1.7792,1.765,1.75,1.7344,1.7188,1.7046,1.6978,1.6978,1.6822,1.6666,1.6503,1.6212,1.5995,1.5839,1.5683,1.5533,1.5371,1.5086,1.497,1.493,1.4624,1.4509,1.4482,0.0,0.0,0.0,0.0,0.0,0.0412,0.1629,0.0792,0.0433,0.1666,0.074,0.0,0.0,0.0,0.0,0.0,0.0,0.0,0.0,0.0,0.0,0.0,0.0,0.0,0.0,0.0,0.0,0.0,0.0,0.0,0.0,0.0,0.0,0.0,0.0,0.0,0.0,0.0,0.0,0.0145,0.2105,0.3981,0.5919,0.0,0.0,0.0,0.0,0.0,0.0,0.0,0.0,0.0,0.0,0.0,0.0,0.0,0.0,0.0,0.0,0.0,0.0,0.0,0.0,0.0,0.0,0.0,0.0,0.0,0.0,0.0,0.0,0.0,0.0,0.0,1.381,1.4367,1.4475,1.5486,1.632,1.6605,1.7256,1.7623,1.7487,1.7595,1.767,1.7623,1.7704,1.7758,1.7812,1.7812,1.7826,1.786,1.786,1.7792,1.765,1.75,1.7344,1.7188,1.7046,1.6978,1.6978,1.6822,1.6666,1.6503,1.6212,1.5934,1.5676,1.5418,1.5221,1.5092,1.5113,1.4991,1.478,1.4584,1.4448,1.4353,0.0,0.0,0.0,0.0,0.0,0.0581,0.2215,0.1084,0.0613,0.2302,0.1016,0.0,0.0,0.0,0.0,0.0,0.0,0.0,0.0,0.0,0.0,0.0,0.0,0.0,0.0,0.0,0.0,0.0,0.0,0.0,0.0,0.0,0.0,0.0,0.0,0.0,0.0,0.0,0.0,0.0228,0.3095,0.4915,0.6264,0.874,1.0417,1.1463,1.1097,1.1246,1.1558,1.1138,0.0,0.0,0.0,0.0,0.0,0.0,0.0,0.0,0.0,0.0,0.0,0.0,0.0,0.0,0.0,0.0,0.0,0.0,0.0,0.0,0.0,0.0,0.0,0.0,1.4543,1.5167,1.5445,1.6198,1.6856,1.7243,1.7629,1.7901,1.7989,1.7914,1.7901,1.7948,1.7948,1.7948,1.7948,1.7948,1.7935,1.786,1.786,1.7758,1.7555,1.7467,1.7311,1.71,1.7019,1.6944,1.6876,1.6727,1.6571,0.0,1.6056,1.5798,1.5608,1.5248,1.5045,0.0,0.0,0.0,0.0,0.0,1.4421,1.4292,0.0,0.0,0.0,0.0,0.0,0.0637,0.2508,0.1202,0.0673,0.2556,0.1149,0.0,0.0,0.0,0.0,0.0,0.0223,0.0363,0.0358,0.0143,0.0,0.0,0.0,0.0,0.0,0.0,0.0,0.0,0.0,0.0,0.0,0.0,0.0,0.0,0.0,0.0,0.0,0.0,0.0,0.0313,0.4174,0.5958,0.6833,1.0314,1.1918,1.221,1.1789,1.1701,1.1742,1.1538,0.0,0.0,0.0,0.0,0.0,0.0,0.0,0.0,0.0,0.0,0.0,0.0,0.0,0.0,0.0,0.0,0.0,0.0,0.0,0.0,0.0,0.0,0.0,0.0,1.5513,1.6062,1.651,1.6822,1.71,1.7365,1.765,1.7846,1.7846,1.7846,1.7935,1.8077,1.8091,1.8091,1.8091,0.0,0.0,0.0,0.0,1.7724,1.7426,1.7419,1.727,1.6978,1.6978,1.6897,1.6748,1.6592,1.6442,1.6286,1.5832,1.5642,1.5601,1.5133,1.4923,1.4882,1.476,1.4706,1.4672,1.4536,1.4407,0.0,0.0,0.0,0.0,0.0,0.0,0.1025,0.3986,0.1889,0.1087,0.4015,0.1875,0.0,0.0,0.0,0.0,0.0,0.1406,0.2315,0.2356,0.0857,0.0,0.0,0.0,0.0,0.0,0.0,0.0,0.0,0.0,0.0,0.0,0.0,0.0,0.0,0.0,0.0,0.0,0.0,0.0,0.0232,0.2645,0.4655,0.6535,1.0479,1.2033,1.2081,1.1864,1.2182,1.2623,1.2108,1.2237,1.2542,1.2155,1.1674,0.0,0.0,0.0,0.0,0.0,0.0,0.0,0.0,0.0,0.0,0.0,0.0,0.0,0.0,0.0,0.0,0.0,0.0,0.0,1.791,1.7046,1.6381,1.6829,1.7039,1.7175,1.7229,1.7507,1.7684,1.7684,1.7792,1.7935,1.8077,1.8091,1.8091,1.8091,1.8091,1.8023,1.786,1.786,1.7724,1.7426,1.7419,1.727,1.6978,0.0,0.0,1.6748,1.6592,1.6442,1.6286,1.5832,1.5642,1.5594,1.5018,1.4645,1.4434,1.4523,1.4482,1.438,1.4353,1.4326,1.4299,0.0,0.0,0.0,0.0,0.0616,0.198,0.4493,0.2759,0.2036,0.4539,0.2035,0.0,0.0,0.0,0.0,0.0,0.0912,0.1467,0.1426,0.0507,0.0,0.0,0.0,0.0,0.0,0.0,0.0,0.0,0.0,0.0,0.0,0.0,0.0,0.0,0.0,0.0,0.0,0.0,0.0,0.0156,0.2266,0.3663,0.5037,0.9213,1.1465,1.2393,1.2393,1.2637,1.2915,1.2617,1.2664,1.2807,1.2583,1.2203,1.1823,0.0,0.0,0.0,0.0,0.0,0.0,0.0,0.0,0.0,0.0,0.0,0.0,0.0,0.0,1.635,1.5698,0.0,1.8135,1.7712,1.6978,1.6639,1.6937,1.7039,1.7114,1.7182,1.7392,1.7561,1.754,1.7717,1.7846,1.8077,1.8158,1.8179,1.8091,1.8158,1.8111,1.786,1.786,1.7724,1.7426,1.7419,1.727,1.6978,1.6978,1.6897,1.6748,1.6592,1.6402,1.6178,1.5805,1.5594,1.5486,1.4957,1.4563,1.4306,1.438,1.436,1.4299,1.4299,1.4299,1.4278,0.0,0.0,0.0,0.0,0.1231,0.2824,0.4609,0.3345,0.2864,0.468,0.2061,0.0,0.0,0.0,0.0134,0.0536,0.02,0.0136,0.0574,0.0222,0.0,0.0,0.0,0.0,0.0,0.0,0.0,0.0,0.0,0.0,0.0,0.0,0.0,0.0,0.0,0.0,0.0,0.0,0.0,0.0158,0.1809,0.2749,0.346,0.6994,0.9655,1.1506,1.1727,1.1993,1.2275,1.2381,1.2536,1.2745,1.2834,1.2657,1.2372,1.2121,1.2142,0.0,0.0,0.0,0.0,0.0,0.0,0.0,0.0,1.1898,1.2135,1.2732,1.5213,1.6935,1.5607,1.7466,1.8743,1.7335,1.6906,1.6836,1.6965,1.6978,1.7026,1.7141,1.7283,1.7439,1.7589,1.7629,1.7772,1.807,1.8213,1.8213,1.8091,1.8213,1.8145,1.786,1.786,1.7724,1.7426,1.7419,1.727,1.6978,1.6978,1.6883,1.67,1.6578,1.6341,1.6022,1.5723,1.5472,1.5248,1.4889,1.4563,1.4299,1.4299,1.4299,1.4299,1.4299,1.4299,1.4258,0.0,0.0,0.0,0.0,0.1231,0.2824,0.4609,0.3345,0.2864,0.468,0.2044,0.0,0.0,0.0,0.0726,0.2438,0.1011,0.0699,0.2428,0.0994,0.0,0.0,0.0,0.0,0.0,0.0,0.0,0.0,0.0,0.0,0.0,0.0,0.0,0.0,0.0,0.0,0.0,0.0,0.0,0.0,0.0239,0.1433,0.3185,0.3785,0.5336,0.7198,0.7367,0.8433,0.9818,1.0078,1.1323,1.28,1.32,1.3125,1.2881,1.2847,1.2481,1.204,1.1837,1.183,1.1965,1.2318,1.2305,1.242,0.0,1.3288,1.337,1.3973,1.6298,1.83,1.8574,1.9237,1.9701,1.9763,1.8181,1.6958,1.6978,1.6978,1.6985,1.7005,1.7127,1.7277,1.7433,1.7568,1.7772,1.807,1.8111,1.8111,1.8091,1.8111,1.8036,1.786,1.786,1.7724,1.7426,1.7419,1.727,1.6978,1.6978,1.6829,1.6544,1.653,1.6286,1.5859,1.5567,1.5201,1.4808,1.476,1.4563,1.4299,1.4299,1.4299,1.4299,1.4299,1.4299,1.4278,0.0,0.0,0.0269,0.1154,0.2535,0.3842,0.466,0.4079,0.3852,0.4693,0.1989,0.0,0.0,0.0885,0.1394,0.1205,0.1377,0.138,0.1257,0.0462,0.0,0.0,0.0,0.0,0.0,0.0,0.0,0.0,0.0,0.0,0.0,0.0,0.0,0.0,0.0,0.0,0.0,0.0,0.0,0.0,0.0,0.0487,0.1291,0.1378,0.1933,0.3183,0.6912,0.8781,0.0,1.0837,1.1869,1.2644,1.2922,1.2929,1.2807,1.2718,1.2576,1.242,1.2264,1.2284,1.2379,1.2474,1.2651,1.2922,1.339,1.3512,1.3729,1.4414,1.698,1.8753,1.7697,1.9131,1.9995,1.8633,1.7748,1.7107,1.7107,1.7032,1.6944,1.6856,1.6978,1.7127,1.727,1.7426,1.7602,1.7826,1.7989,1.8057,1.7968,1.8036,1.7982,1.7738,1.7738,1.7595,1.729,1.729,1.7182,1.6978,1.689,1.6781,1.6646,1.6476,1.6151,1.571,1.5323,1.4997,1.4733,1.4645,1.4482,1.4299,1.4299,1.4299,1.4292,1.4197,1.4163,1.4136,0.0,0.0,0.0485,0.1961,0.3488,0.4684,0.5236,0.5219,0.5068,0.4734,0.2377,0.0679,0.0679,0.1787,0.2033,0.0802,0.1797,0.1767,0.0073,0.0,0.0,0.0,0.0,0.0,0.0,0.0,0.0,0.0,0.0,0.0,0.0,0.0,0.0,0.0,0.0,0.0,0.0,0.0,0.0,0.0,0.0,0.0,0.0,0.0,0.0319,0.1328,0.5893,0.7843,0.8602,1.0601,1.1684,1.2237,1.2474,1.2576,1.2589,1.2474,1.2461,1.2474,1.2447,1.2556,1.2678,1.2739,1.3085,1.3458,1.3614,1.3797,1.4109,1.4733,1.6755,1.7979,1.6519,1.8158,1.9141,1.7473,1.7161,1.7148,1.7188,1.7032,1.6863,1.6707,1.6748,1.6849,1.6992,1.7222,1.7439,1.7629,1.7846,1.7914,1.7812,1.7914,1.7846,1.7595,1.7589,1.746,1.7195,1.7195,1.7121,1.6978,1.6822,1.6727,1.6673,1.63,1.5947,1.5615,1.5167,1.4882,1.4726,1.4577,1.4428,1.4299,1.4299,1.4272,1.4217,1.4061,1.4034,1.4027,0.0,0.0,0.0492,0.1965,0.3488,0.5013,0.6601,0.6839,0.6305,0.4913,0.3352,0.2401,0.2401,0.2462,0.2462,0.2401,0.25,0.182,0.0143,0.0,0.0,0.0,0.0,0.0,0.0,0.0,0.0,0.0,0.0,0.0,0.0,0.0,0.0,0.0,0.0,0.0,0.0,0.0,0.0,0.0,0.0,0.0,0.0,0.0,0.1102,0.2617,0.285,0.4027,0.5862,0.7886,0.9875,1.1504,1.1945,1.2182,1.2305,1.2298,1.2088,1.1925,1.2216,1.24,1.2651,1.3227,1.3709,1.4082,1.4238,1.4496,1.4794,1.5106,1.5513,1.5875,1.6225,1.6551,1.6953,1.7148,1.708,1.7032,1.7175,1.6937,1.67,1.6544,1.6408,1.6388,1.653,1.6937,1.7324,1.7629,1.765,1.7554,1.765,1.7554,1.7589,1.7433,1.7426,1.7351,1.7195,1.7195,1.7121,1.6978,1.6822,1.6673,1.651,1.5927,1.5649,1.5615,1.5167,1.4882,1.4726,1.4577,1.4428,1.4299,1.4299,1.4211,1.4061,1.3905,1.3939,1.4027,0.0,0.0,0.0765,0.327,0.4179,0.5337,0.7868,0.7414,0.6235,0.4763,0.2385,0.0,0.0,0.0,0.0,0.0,0.2477,0.1793,0.0141,0.0,0.0,0.0,0.0,0.0,0.0,0.0,0.0,0.0,0.0,0.0,0.0,0.0,0.0,0.0,0.0,0.0,0.0,0.0,0.0,0.0,0.0,0.0855,0.221,0.2211,0.3383,0.5077,0.0,0.6849,0.7427,0.9337,1.0428,1.1124,1.1274,1.1423,1.1565,1.1667,1.1972,1.2298,1.24,1.2834,1.337,1.3871,1.4258,1.4577,1.4828,1.4964,1.5059,1.516,1.5262,1.5384,1.5533,1.5886,1.6252,1.6558,1.6734,1.691,1.7161,1.7107,1.691,1.6564,1.6659,1.6653,1.6402,1.6693,0.0,1.7324,1.7439,1.75,1.75,1.75,1.7426,1.727,1.727,1.7202,1.7053,1.7053,1.7026,1.6978,1.672,1.6415,1.6069,1.5771,1.5527,1.5316,1.497,1.4733,1.4577,1.4428,1.434,1.4299,1.4299,1.4204,1.4055,1.3899,1.3817,1.3749,0.0,0.0431,0.159,0.4039,0.4956,0.0,0.0,0.0,0.0,0.0,0.0,0.0,0.0,0.0,0.0,0.0,0.0,0.176,0.0137,0.0,0.0,0.0,0.0,0.0,0.0,0.0,0.0,0.0,0.0,0.0,0.0,0.0,0.0,0.0,0.0,0.0449,0.1254,0.1157,0.1592,0.2284,0.2126,0.2925,0.4138,0.4126,0.5173,0.0,0.805,0.8643,0.912,1.0311,1.0311,0.9844,0.9844,1.0036,1.0436,1.1197,1.1925,1.2494,1.282,1.3336,1.3905,1.4414,1.4719,1.495,1.514,1.5147,1.5092,1.5038,1.4943,1.4882,1.4936,1.5092,1.5384,1.5906,1.6103,1.6368,1.6876,1.691,1.6788,1.6551,1.6653,1.6646,1.6408,1.651,1.6741,1.7087,1.7256,1.7338,1.7338,1.7338,1.727,1.7121,1.7114,1.7073,1.6985,1.6978,1.6924,1.6815,1.651,1.6185,1.5845,1.5588,1.5371,1.516,1.4808,1.4604,1.4502,1.436,1.4299,1.4299,1.4299,1.417,1.398,1.3878,1.3715,1.3526,0.0,0.0,0.2707,0.0,0.0,0.0,0.0,0.0,0.0,0.0,0.0,0.0,0.0,0.0,0.0,0.0,0.0,0.0,0.0131,0.0,0.0,0.0,0.0,0.0,0.0,0.0,0.0,0.0,0.0,0.0,0.0,0.0,0.0,0.0,0.0,0.1338,0.3553,0.3223,0.4377,0.6434,0.5972,0.5776,0.574,0.5602,0.6646,0.8139,0.82,0.9256,1.0717,1.0717,0.9516,0.7984,0.8056,0.8287,0.8944,1.0992,1.1993,1.2549,1.3424,1.3892,1.4272,1.4869,1.5113,1.5201,1.5194,1.5079,1.4916,1.4733,1.4455,1.4278,1.4387,1.4204,1.4326,1.5221,1.5282,1.5527,1.6422,1.6435,1.6402,1.6517,1.6429,1.6395,1.651,1.6415,1.6517,1.6937,0.0,1.7175,1.7182,1.7182,1.7121,1.6985,1.6978,1.6978,1.6978,1.6971,1.6815,1.651,1.6218,1.5995,1.5825,1.5384,1.5174,1.5133,1.4699,1.4509,1.4489,1.4353,1.4299,1.4299,1.4292,1.4109,1.3838,1.3831,1.3648,1.3376,0.0,0.0,0.0,0.0,0.0,0.0,0.0,0.0,0.0,0.0,0.0,0.0,0.0,0.0,0.0,0.0,0.0,0.0,0.0128,0.0,0.0,0.0,0.0,0.0,0.0,0.0,0.0,0.0,0.0,0.0,0.0,0.0,0.0,0.0,0.0,0.1075,0.2925,0.2851,0.3905,0.5653,0.5537,0.6487,0.7903,0.7839,0.8981,1.0544,1.0537,1.0587,1.0717,1.0717,0.9502,0.8089,0.8377,0.8622,0.9287,1.1579,1.2759,1.341,1.3973,1.4509,1.5018,1.5506,1.5574,1.5493,1.5377,1.5153,1.4801,1.4197,1.3743,1.337,1.3071,1.3322,1.3831,1.4611,1.5269,1.5961,1.6754,1.6924,1.6897,1.6714,1.6856,1.6849,1.6551,1.6693,1.6809,0.0,1.6842,1.691,1.7026,1.7032,1.7019,1.6985,1.6978,1.6978,1.6978,1.687,1.6659,1.6361,1.6171,1.5947,1.5683,1.5337,1.5059,1.4841,1.4611,1.4448,1.4353,1.4312,1.4299,1.4292,1.4177,1.4014,1.3831,1.3722,1.3559,1.3363,0.0,0.0,0.0,0.0,0.0,0.0,0.0,0.0,0.0,0.0,0.0,0.0,0.0,0.0,0.0,0.0,0.0,0.0,0.0,0.0,0.0,0.0,0.0,0.0,0.0,0.0,0.0,0.0,0.0,0.0,0.0,0.0,0.0,0.0,0.0,0.1588,0.4303,0.413,0.5658,0.0,0.0,0.8649,0.9646,0.9598,1.0183,1.1097,1.1097,1.1016,1.0799,1.0166,0.8552,0.6994,0.7572,0.7813,0.8613,1.2067,1.3532,1.4116,1.4563,1.512,1.5608,1.573,1.5744,1.5608,1.5126,1.4787,1.4346,1.3519,1.2996,1.2589,1.2264,1.2542,1.3078,1.3892,1.4719,1.5574,1.6463,1.6768,1.689,1.6856,1.6998,1.6998,1.6748,1.6815,1.687,1.6849,1.6849,1.689,1.6978,1.6978,1.6978,1.6978,1.6978,1.6951,1.6876,1.6666,1.6476,1.6307,1.6022,1.5798,1.5628,1.5187,1.4896,1.4726,0.0,1.4373,1.4299,1.4299,1.4299,1.4285,1.4129,1.398,1.3824,1.3682,1.3492,1.3268,0.0,0.0,0.0,0.0,0.0,0.0,0.0,0.0,0.0,0.0,0.4422,0.4412,0.4555,0.2034,0.0,0.0,0.0,0.0,0.0,0.0,0.0,0.0,0.0,0.0,0.0,0.0,0.0,0.0,0.0,0.0,0.0,0.0,0.0,0.0,0.0,0.2313,0.6128,0.5856,0.8049,1.1647,1.126,1.1029,1.0833,0.0,1.0717,1.0717,1.0717,1.0887,1.0882,0.9391,0.74,0.5638,0.6704,0.6919,0.7781,1.2539,1.4312,1.4726,1.5181,1.5696,1.6056,1.5818,1.5791,1.5601,1.474,1.4251,1.3729,1.2827,1.2284,1.1918,1.1748,1.1891,1.2345,1.3302,1.4068,1.493,1.6042,1.6402,1.6659,1.6944,1.6998,1.7005,1.6985,1.6876,1.6856,1.6971,1.6978,1.6978,1.6978,1.6978,1.6978,1.6978,1.6958,1.6876,1.672,1.6449,1.63,1.6273,1.5845,1.5642,1.5615,1.5018,1.474,1.4726,0.0,0.0,1.4299,1.4299,1.4299,1.4285,1.4109,1.396,1.3824,1.3661,1.3431,1.318,0.0,0.0,0.0,0.0,0.0,0.0,0.0,0.0,0.0,0.0,0.35,0.2735,0.0,0.0,0.0,0.0,0.0,0.0,0.0,0.0,0.0,0.0,0.0,0.0,0.0,0.0,0.0,0.0,0.0,0.0,0.0,0.0,0.0,0.0,0.0,0.2047,0.5522,0.5487,0.7594,1.0907,1.0826,1.0785,1.0758,1.0731,0.0,0.0,1.0717,1.0751,1.0596,0.9334,0.7475,0.624,0.9182,0.8829,0.8329,1.348,1.5092,1.535,1.5805,1.6096,1.6286,1.6354,1.6022,1.5506,1.4848,1.4089,1.3261,1.2366,1.1823,1.1423,1.1082,1.1525,1.2284,1.3559,1.4292,1.5194,1.6625,1.6761,1.6775,1.6958,1.7087,1.7107,1.6992,1.706,1.708,1.6985,1.6978,1.6978,1.6978,1.6978,1.6978,1.6978,1.6856,1.6714,1.6564,1.6395,1.6246,1.6117,1.5791,1.5642,1.5615,1.5018,1.474,1.4726,0.0,0.0,1.4299,1.4299,1.4299,1.4272,1.3994,1.3865,1.381,1.3539,1.3403,1.3322,0.0,0.0,0.0,0.0,0.0,0.0,0.0,0.8904,0.8026,0.685,0.5374,0.4267,0.3909,0.2237,0.1885,0.0,0.0,0.0,0.0,0.0,0.0,0.0,0.0,0.0,0.0,0.0,0.0,0.0,0.0,0.0,0.0,0.0,0.0,0.0068,0.0957,0.2923,0.5432,0.6341,0.8287,1.0717,1.0717,1.0717,1.0717,0.0,0.0,0.0,0.9305,0.8784,0.8079,0.7683,0.6169,0.4956,0.8121,0.8393,0.8335,1.236,1.4661,1.5839,1.6212,1.6483,1.6639,1.6544,1.613,1.5493,1.4496,1.3702,1.2854,1.1714,1.1314,1.109,1.0873,1.1314,1.2006,1.2888,1.3532,1.4421,1.5845,1.6049,1.6252,1.6795,1.6992,1.7053,1.6985,1.7039,1.7053,1.6985,1.6978,1.6978,1.6978,1.6978,1.6978,1.6978,1.6754,1.6598,1.6524,1.63,1.6151,1.6076,1.5859,1.571,1.5622,1.5099,1.4814,1.4726,1.4428,0.0,1.4299,1.4299,1.4299,1.4278,1.4048,1.3912,1.3817,1.36,1.3417,1.3254,0.0,0.0,0.0,0.0,0.0,0.0,0.9734,0.8763,0.8135,0.8526,0.77,0.6736,0.5978,0.2805,0.1817,0.0,0.0,0.0,0.0,0.0,0.0,0.0,0.0,0.0,0.0,0.0,0.0,0.0,0.0,0.0,0.0,0.0,0.0,0.0,0.2083,0.389,0.603,0.7431,0.9039,0.0,0.0,1.0717,0.0,0.0,0.0,0.0,0.0,0.6994,0.5771,0.6173,0.4842,0.3469,0.5813,0.7041,0.8177,1.1279,1.4021,1.6151,1.6483,1.6768,1.6917,1.6639,1.6185,1.5466,1.4143,1.3336,1.2501,1.1212,1.0853,1.0793,1.0744,1.1131,1.1667,1.2244,1.2752,1.3559,1.4943,1.5323,1.5757,1.6558,1.6849,1.6978,1.6978,1.6978,1.6978,1.6978,1.6978,0.0,1.6978,1.6978,1.6965,1.6931,1.6666,1.651,1.6476,1.6212,1.6069,1.6029,1.5879,1.5716,1.5527,1.5113,1.4835,1.4679,1.4414,0.0,0.0,1.4299,1.4299,1.4278,1.4095,1.3946,1.3817,1.3648,1.3424,1.32,0.0,0.0,0.0,0.0,0.0,0.0,0.9734,0.9928,0.9676,0.8796,0.8836,0.8831,0.8431,0.5318,0.3179,0.0,0.0,0.0,0.0,0.0,0.0,0.0,0.0,0.0,0.0,0.0,0.0,0.0,0.0,0.0,0.0,0.0,0.0,0.0,0.0,0.4557,0.7764,0.7964,0.0,0.0,0.0,0.0,0.0,0.0,0.0,0.0,0.0,0.6907,0.5494,0.6136,0.4703,0.2873,0.3701,0.5632,0.8247,1.1382,1.4073,1.6178,1.6612,1.6856,1.6937,1.6768,1.6191,1.5337,1.4116,1.3166,1.2244,1.1103,1.0772,1.0738,1.0724,1.0813,1.1335,1.2325,1.2644,1.3288,1.478,1.535,1.5798,1.6293,1.672,1.6978,1.6978,1.6978,1.6978,1.6978,1.6978,0.0,1.6978,1.6978,1.6917,1.6775,1.6612,1.6463,1.6334,1.6164,1.6008,1.5872,1.573,1.5506,1.5215,1.4903,1.4679,1.4523,1.4367,0.0,0.0,1.4299,1.4299,1.4272,1.3973,1.3851,1.3804,1.3526,1.3403,1.3342,0.0,0.0,0.0,0.0,0.0,0.0,0.9856,0.9985,1.0149,1.0687,1.0989,1.1194,1.1121,0.7884,0.5333,0.4429,0.1682,0.0,0.0,0.0,0.0,0.0,0.0,0.0,0.0,0.0,0.0,0.0,0.0,0.0,0.0,0.0,0.0,0.0,0.0,0.6694,0.8097,0.9172,0.0,0.0,0.0,0.0,0.0,0.0,0.0,0.0,0.0,0.0,0.3636,0.2822,0.184,0.1092,0.1334,0.3133,0.5813,0.873,1.2428,1.5683,1.6313,1.6727,1.6944,1.6788,1.6049,1.5072,1.3966,1.2949,1.1965,1.1009,1.0765,1.0717,1.0717,1.0772,1.0629,1.0042,1.0817,1.1575,1.1691,1.2978,1.4319,1.5493,1.6029,1.6483,1.6937,1.6978,1.6978,1.6978,1.6897,0.0,1.6842,1.6842,1.6775,1.6619,1.6469,1.6368,1.6307,1.6157,1.6001,1.5852,1.5798,1.556,1.5174,1.497,1.4746,1.4502,1.436,0.0,0.0,1.4299,1.4245,1.415,1.4027,1.3871,1.3702,1.358,1.3478,1.3356,0.0,0.0,0.0,0.0,0.0,0.9178,0.9876,0.9971,1.0432,1.1755,1.2149,1.2393,1.2637,0.9146,0.6459,0.5762,0.2202,0.0,0.0,0.0,0.0,0.0,0.0,0.0,0.0,0.0,0.0,0.0,0.0,0.0,0.0,0.0,0.3001,0.3645,0.0,0.0,0.0,0.0,0.0,0.0,0.0,0.0,0.0,0.0,0.0,0.0,0.0,0.0,0.0,0.0,0.0,0.0,0.0,0.1585,0.398,0.6734,1.0635,1.4367,1.5727,1.6374,1.6686,1.6578,1.5832,1.4848,1.3804,1.2786,1.1823,1.0962,1.0751,1.0717,1.0717,1.0717,1.0159,0.8595,0.9255,0.9926,0.964,1.0999,1.2706,1.4534,1.5181,1.5757,1.651,1.6781,1.691,1.691,0.0,0.0,1.6619,1.6578,1.6524,1.6463,1.6361,1.6266,1.6178,1.6069,1.5913,1.5723,1.5676,1.5445,1.5045,1.4903,1.4692,1.4441,0.0,0.0,0.0,1.4251,1.417,1.4061,1.3973,1.381,1.3627,1.358,1.3492,1.3356,0.0,0.0,0.0,0.0,0.0,0.908,0.9734,1.008,1.0602,1.1504,1.1748,1.2006,1.2454,0.8607,0.6061,0.6271,0.2412,0.0,0.0,0.0,0.0,0.0,0.0,0.0,0.0,0.0,0.0,0.0,0.0,0.0,0.007,0.1864,0.3629,0.5471,0.0,0.0,0.0,0.0,1.0717,0.0,0.0,0.0,1.1193,0.0,0.0,0.0,0.0,0.0,0.0,0.0,0.0,0.0,0.0,0.1317,0.343,0.6312,0.9188,1.2036,1.4698,1.575,1.609,1.609,1.5527,1.4699,1.3641,1.2705,1.185,1.1029,1.0759,1.0717,1.0717,1.0717,1.0159,0.8595,0.8433,0.8779,0.951,1.0049,1.1195,1.3521,1.4251,1.4821,1.5581,1.632,1.6754,1.6754,0.0,0.0,1.632,1.6171,1.6157,1.6307,1.6307,1.6164,1.5957,1.5859,1.571,1.5411,1.5262,1.5031,1.474,1.4584,1.4434,0.0,0.0,0.0,0.0,1.4136,1.4075,1.4041,1.3749,1.3634,1.3614,1.3458,1.3403,1.3356,0.0,0.0,0.0,0.0,0.0,0.0,0.932,0.9537,0.9985,1.0887,1.1219,1.1626,1.2284,0.8706,0.6199,0.6279,0.2406,0.0,0.0,0.0,0.0,0.0,0.0,0.0,0.0,0.0,0.0,0.0,0.0,0.0,0.0074,0.3203,0.4914,0.5543,0.8611,1.0277,0.0,1.0717,1.0778,1.0799,0.0,1.0839,1.1002,0.0,0.0,0.0,0.0,0.0,0.0,0.0,0.0,0.0,0.0,0.0,0.0,0.3688,0.7329,1.0876,1.1795,1.3464,1.4814,1.4604,1.4068,1.3431,1.2786,1.2101,1.145,1.0907,1.0751,1.0717,1.0717,1.0717,0.9747,0.6782,0.8606,0.9549,0.7202,0.9682,1.2295,1.3658,1.5147,1.6178,1.6524,0.0,1.6748,0.0,0.0,0.0,0.0,1.5913,1.5845,1.5995,1.59,1.5757,1.5554,1.5554,1.5404,1.5113,1.5059,1.4882,1.4584,1.4536,0.0,0.0,0.0,0.0,0.0,1.4021,1.3912,1.3885,1.3587,1.3471,1.3458,1.3302,1.3247,1.322,0.0,0.0,0.0,0.0,0.0,0.0,0.9211,0.9367,0.9707,1.0378,1.0724,1.1199,1.1952,0.843,0.6044,0.6315,0.2452,0.0,0.0,0.0,0.0,0.0,0.0,0.0,0.0,0.0,0.0,0.0,0.0,0.0461,0.14,0.4443,0.6177,0.6843,0.9852,1.1023,0.0,1.0778,1.0793,1.0873,1.0779,1.0799,1.0873,0.0,0.0,0.0,0.0,0.0,0.0,0.0,0.0,0.0,0.0,0.0,0.0,0.0,0.5657,0.8813,0.9924,1.2014,1.3777,1.3695,1.3227,1.2698,1.2366,1.1782,1.0998,0.9985,0.9746,0.9709,0.9709,0.9178,0.7973,0.5753,0.7461,0.8282,0.6138,0.9014,1.1912,1.3637,1.5215,1.6198,0.0,1.6476,0.0,0.0,0.0,0.0,0.0,1.5581,1.5452,1.5594,1.5567,1.5479,1.5323,1.5269,1.5126,1.4882,1.4828,1.4699,1.4509,1.4455,0.0,0.0,0.0,0.0,0.0,1.3885,1.3729,1.3654,1.3471,1.3363,1.3302,1.3207,1.3173,1.3146,0.0,0.0,0.0,0.0,0.0,0.0,0.0,0.9483,0.9686,0.9916,1.0276,1.0738,1.1463,0.7891,0.5611,0.6191,0.2401,0.0,0.0,0.0,0.0,0.0,0.0,0.0,0.0,0.0,0.0,0.0,0.0,0.1261,0.3657,0.5463,0.7239,0.8966,1.0825,1.1294,1.0731,1.0806,1.0873,1.088,1.0867,1.0873,0.0,0.0,0.0,0.0,0.0,0.0,0.0,0.0,0.0,0.0,0.0,0.0,0.0,0.0,0.0,0.0,0.0,1.1101,1.2895,1.3159,1.2807,1.2359,1.2223,1.1653,0.0,0.8832,0.8308,0.8169,0.8174,0.6769,0.557,0.546,0.5389,0.5553,0.599,0.8053,1.0626,1.3521,1.4692,1.5228,1.5228,1.5852,0.0,0.0,0.0,0.0,0.0,1.5187,1.5018,1.5147,1.5276,1.5276,1.5133,1.5004,1.4862,1.4706,1.4563,1.4496,1.4489,1.436,0.0,0.0,0.0,0.0,0.0,1.3736,1.3532,1.3397,1.3376,1.3281,1.3159,1.3146,1.3139,1.3105,0.0,0.0,0.0,0.0,0.0,0.0,0.0,0.0,0.0,0.0,0.9971,1.031,1.0711,0.7536,0.5471,0.0,0.0,0.0,0.0,0.0,0.0,0.0,0.0,0.0,0.0,0.0,0.0,0.0,0.0,0.1231,0.3664,0.5556,0.7393,0.9192,1.1001,1.1389,1.0724,1.0758,1.0839,1.0873,1.0819,1.0846,0.0,0.0,0.0,0.0,0.803,0.6898,0.0,0.0,0.0,0.0,0.0,0.0,0.0,0.0,0.2811,0.5429,0.6218,0.0,1.1572,1.1531,1.1345,1.1237,0.0,1.1055,1.0819,1.0264,1.0073,1.0079,1.0187,0.87,0.6994,0.5736,0.5655,0.5257,0.3889,0.7574,1.148,1.4403,1.5289,1.5696,1.5696,1.5757,0.0,0.0,0.0,0.0,0.0,1.4916,1.4808,1.4841,1.4767,1.4706,1.4672,1.4638,1.455,1.4401,1.4367,1.4346,1.4346,1.4319,0.0,0.0,0.0,0.0,1.4041,1.3627,1.3431,1.3376,1.3152,1.3044,1.2996,1.2874,1.2834,1.2827,0.0,0.0,0.0,0.0,0.0,0.0,0.0,0.0,0.0,0.0,0.9883,1.0215,1.0378,0.7412,0.542,0.0,0.0,0.0,0.0,0.0,0.0,0.0,0.0,0.0,0.0,0.0,0.0,0.0,0.0,0.1746,0.5107,0.6208,0.8143,1.0727,1.12,1.1165,1.0724,1.0799,1.0833,1.0846,1.0833,0.0,0.0,0.0,0.0,0.0,0.9238,0.864,0.0,0.7003,0.6664,0.6298,0.0,0.0,0.0,0.0,0.3041,0.5119,0.5257,0.8081,1.1077,1.1138,1.1097,1.1063,1.1138,1.0989,1.0551,0.9661,0.9396,0.9396,0.9527,0.7964,0.6388,0.5617,0.5578,0.5695,0.6045,0.8702,1.1726,1.4499,1.5269,1.552,0.0,0.0,0.0,0.0,0.0,0.0,0.0,1.4658,1.457,1.4631,1.4489,1.4448,1.4509,1.4448,1.4373,1.4299,1.4299,1.4299,1.4299,1.4231,1.4197,0.0,0.0,0.0,1.3838,1.3451,1.3261,1.318,1.3024,1.2915,1.2847,1.2759,1.2732,1.2718,0.0,0.0,0.0,0.0,0.0,0.0,0.0,0.0,0.0,0.0,0.0,0.0,0.0,0.0,0.0,0.0,0.0,0.0,0.0,0.0,0.0,0.0,0.0,0.0,0.0,0.0,0.0,0.0,0.0,0.2157,0.6372,0.6762,0.8961,1.2461,1.144,1.088,1.0731,1.0793,1.0772,1.0731,1.0793,0.0,0.0,0.0,0.0,0.0,0.0,0.0,0.0,0.8785,0.8171,0.7641,0.5776,0.0,0.0,0.0,0.0,0.0,0.5206,0.8025,1.0988,1.1212,1.1192,1.1158,1.1267,1.0995,1.0246,0.8701,0.8294,0.8262,0.844,0.6664,0.5345,0.583,0.5388,0.6085,0.9016,0.9869,1.1324,1.4243,1.4936,0.0,0.0,0.0,0.0,0.0,0.0,0.0,0.0,1.4434,1.4353,1.4475,1.4367,1.436,1.4475,1.436,1.4299,1.4299,1.4299,1.4285,1.4265,1.4129,1.4061,0.0,0.0,0.0,1.3573,1.3288,1.3078,1.2922,1.2901,1.28,1.2657,1.2637,1.263,1.261,0.0,0.0,0.0,0.0,0.0,0.0,0.0,0.0,0.0,0.0,0.0,0.0,0.0,0.0,0.0,0.0,0.0,0.0,0.0,0.0,0.0,0.0,0.0,0.0,0.0,0.0,0.0,0.0,0.0,0.14,0.4136,0.6124,0.9009,1.2481,1.1938,1.1335,1.0724,1.0744,1.0744,1.0724,1.0744,0.0,0.0,0.0,0.0,0.0,0.0,0.0,0.0,0.8624,0.8056,0.7426,0.4194,0.0,0.0,0.0,0.0,0.0,0.5566,0.8441,1.1212,1.0744,1.0806,1.0887,1.0846,1.0772,1.0651,1.0319,1.03,1.0326,1.0409,0.7693,0.5975,0.7898,0.5516,0.4437,0.7107,0.7707,0.9517,1.3876,0.0,0.0,0.0,0.0,0.0,0.0,0.0,0.0,0.0,1.4326,1.4312,1.4333,1.4312,1.4312,1.4333,1.4312,1.4299,1.4299,1.4299,1.4231,1.4109,1.4082,1.4,0.0,0.0,1.3553,1.3424,1.3247,1.301,1.2752,1.2623,1.2481,1.2338,1.221,1.2162,1.2162,0.0,0.0,0.0,0.0,0.0,0.0,0.0,0.0,0.0,0.0,0.0,0.0,0.0,0.0,0.0,0.0,0.0,0.0,0.0,0.0,0.0,0.0,0.0,0.0,0.0,0.0,0.0,0.0,0.0,0.1842,0.5461,0.8746,1.1009,1.2366,1.183,1.1267,1.0717,1.0717,1.0717,1.0717,0.0,0.0,0.0,0.0,0.0,0.0,0.0,0.0,0.0,0.0,0.596,0.4653,0.2036,0.0,0.0,0.0,0.0,0.0,0.525,0.8066,1.086,1.0663,1.1084,1.147,1.1151,1.1016,1.0934,1.086,0.9965,0.9279,0.934,0.7121,0.5263,0.5406,0.3205,0.2762,0.6431,0.7131,0.8961,0.0,0.0,0.0,0.0,0.0,0.0,0.0,0.0,0.0,0.0,0.0,1.4299,1.4299,1.4299,1.4299,1.4299,1.4299,1.4299,1.4299,1.4217,1.4143,1.4068,1.3905,1.3797,1.3715,0.0,1.3342,1.3261,1.303,1.2854,1.2705,1.2474,1.2345,1.2271,1.2121,1.2135,1.2135,0.0,0.0,0.0,0.0,0.0,0.0,0.0,0.0,0.0,0.0,0.0,0.0,0.0,0.0,0.0,0.0,0.0,0.0,0.0,0.0,0.0,0.0,0.0,0.0,0.0,0.0,0.0,0.0,0.0,0.2385,0.7052,1.061,1.2357,1.2318,1.1748,1.1206,1.0717,1.0717,1.0717,1.0717,0.0,0.0,0.0,0.0,0.0,0.0,0.0,0.0,0.0,0.0,0.0,0.0,0.0,0.0,0.0,0.0,0.2341,0.49,0.5042,0.773,1.0582,1.0738,1.1294,1.1755,1.1586,1.1402,1.1267,1.126,1.0022,0.8829,0.8242,0.6609,0.4538,0.2384,0.1802,0.276,0.641,0.7413,0.9366,1.3561,0.0,0.0,0.0,0.0,0.0,0.0,0.0,0.0,0.0,0.0,1.4231,1.4197,1.4231,1.4231,1.419,1.419,1.4211,1.4245,1.4129,1.4034,1.396,1.3736,1.3593,1.3512,1.3275,1.3132,1.3051,1.2827,1.2691,1.2603,1.2338,1.2196,1.2121,1.1999,1.1959,1.1959,0.0,0.0,0.0,0.0,0.0,0.0,0.0,0.0,0.0,0.0,0.0,0.0,0.0,0.0,0.0,0.0,0.0,0.0,0.0,0.0,0.0,0.0,0.0,0.0,0.0,0.0,0.0,0.0,0.0,0.2404,0.7126,0.9221,1.1038,1.2467,1.2006,1.1396,1.0717,1.0717,1.0717,1.0717,1.0717,0.0,0.0,0.0,0.0,0.0,0.0,0.0,0.0,0.0,0.0,0.0,0.0,0.0,0.0,0.0,0.2314,0.5016,0.5422,0.8081,1.0744,1.0826,1.0914,1.1199,1.1864,1.1789,1.1701,1.2108,1.1999,1.1135,0.9064,0.7076,0.452,0.0817,0.3492,0.6262,0.6812,0.0,0.0,0.0,0.0,0.0,0.0,0.0,0.0,0.0,0.0,0.0,0.0,0.0,0.0,1.3878,1.4014,1.4021,1.3878,1.3871,1.3946,1.4089,1.4075,1.3926,1.3661,1.3641,1.3471,1.3207,1.318,1.3017,1.2759,1.2739,1.2569,1.2305,1.2142,1.1911,1.1667,1.1653,1.1653,1.1653,0.0,0.0,0.0,0.0,0.0,0.0,0.0,0.0,0.0,0.0,0.0,0.0,0.0,0.0,0.0,0.0,0.0,0.0,0.1864,0.0626,0.0,0.0,0.0,0.0,0.0,0.0,0.0,0.0,0.2942,0.5227,0.6762,1.0226,1.1928,1.2067,1.1613,1.1206,1.0786,1.0758,1.0772,1.0786,1.0758,1.0717,0.0,0.0,0.0,0.0,0.0,0.0,0.0,0.0,0.3435,0.0929,0.0193,0.0,0.0,0.0,0.2331,0.491,0.5107,0.7857,1.0731,1.0792,1.0948,1.1226,1.1789,1.1904,1.1993,1.2345,1.1523,0.9563,0.6049,0.3645,0.1723,0.0244,0.249,0.4979,0.6534,0.0,0.0,0.0,0.0,0.0,0.0,0.0,0.0,0.0,0.0,0.0,0.0,0.0,0.0,1.3844,1.3899,1.3899,1.3838,1.3838,1.3824,1.3797,1.3797,1.3736,1.362,1.3431,1.3281,1.3159,1.2976,1.2834,1.2725,1.263,1.2467,1.2264,1.2013,1.1796,1.1619,1.1619,1.1619,1.1619,0.0,0.0,0.0,0.0,0.0,0.0,0.0,0.0,0.0,0.0,0.0,0.0,0.0,0.0,0.0,0.0,0.0,0.0,0.2807,0.103,0.0,0.0,0.0,0.0,0.0,0.0,0.0,0.0,0.4756,0.6858,0.6554,1.0978,1.2678,1.202,1.1572,1.1294,1.1076,1.0948,1.0894,1.0867,1.0778,1.0717,0.0,0.0,0.0,0.0,0.0,0.0,0.0,0.0,0.2986,0.0,0.0,0.0,0.0,0.0,0.1949,0.429,0.4811,0.7287,0.9804,1.0491,1.0799,1.1131,1.1816,1.2094,1.2338,1.2827,1.0791,0.7924,0.4954,0.1998,0.0,0.0,0.2373,0.4748,0.0,0.0,0.0,0.0,0.0,0.0,0.0,0.0,0.0,0.0,0.0,0.0,0.0,0.0,0.0,0.0,1.3749,1.3729,1.3634,1.3627,1.3559,1.3417,1.3417,1.3444,1.3478,1.322,1.3051,1.2949,1.2745,1.2603,1.2508,1.2406,1.2277,1.2121,1.1864,1.1701,1.1619,1.1619,1.1592,1.1545,0.0,0.0,0.0,0.0,0.0,0.0,0.0,0.0,1.0717,1.0717,0.0,0.0,0.0,0.0,0.0,0.0,0.0,0.0,0.2875,0.1029,0.0,0.0,0.0,0.0,0.0,0.0,0.0,0.0,0.479,0.6852,0.6548,1.1052,1.2922,1.2467,1.2026,1.1748,1.1592,1.1287,1.1077,1.0867,1.0778,1.0717,1.0717,0.0,0.0,0.0,0.0,0.0,0.0,0.0,0.2992,0.0,0.0,0.0,0.0,0.0,0.1224,0.2892,0.4622,0.6218,0.7901,0.9961,1.0493,1.0812,1.202,1.24,1.2752,1.3654,1.0166,0.6855,0.6543,0.2972,0.0,0.0,0.367,0.6499,0.0,0.0,0.0,0.0,0.0,0.0,0.0,0.0,0.0,0.0,0.0,0.0,0.0,0.0,0.0,0.0,1.3546,1.3478,1.3173,1.3173,1.3098,1.2963,1.3036,1.303,1.3166,1.3024,1.2793,1.2501,1.2501,1.2332,1.2135,1.2135,1.1972,1.1816,1.1674,1.1619,1.1619,1.1619,1.1518,1.1389,0.0,0.0,0.0,0.0,0.0,0.0,0.0,0.0,1.0717,1.0717,1.0717,0.0,0.0,0.0,0.0,0.0,0.0,0.0,0.4715,0.2833,0.1255,0.0067,0.0,0.0,0.0,0.0,0.0,0.0,0.4394,0.6304,0.5952,1.0406,1.2094,1.1558,1.1531,1.1436,1.1287,1.1097,1.0921,1.0867,1.0778,1.0717,1.0717,0.0,0.0,0.0,0.0,0.0,0.0,0.0,0.0,0.0,0.0392,0.0,0.0264,0.1391,0.2911,0.4537,0.6256,0.8117,0.9729,1.0337,1.0812,1.1328,1.2115,1.2325,1.2576,1.337,1.1247,0.8762,0.6956,0.4267,0.1779,0.023,0.3481,0.6169,0.0,0.0,0.0,0.0,0.0,0.0,0.0,0.0,0.0,0.0,0.0,0.0,0.0,0.0,0.0,0.0,1.3288,1.3261,1.3173,1.3071,1.3003,1.3043,1.2739,1.2773,1.3017,1.2759,1.2589,1.2488,1.2284,1.2142,1.2054,1.1945,1.187,1.1816,1.1674,1.1552,1.1457,1.1457,1.1362,1.1233,0.0,0.0,0.0,0.0,0.0,0.0,0.0,0.0,1.0649,1.0711,1.0717,1.0717,0.0,0.0,0.0,0.0,0.0,0.0,0.6427,0.3951,0.2078,0.1061,0.0333,0.0,0.0,0.0,0.0,0.0,0.3485,0.5337,0.5693,0.9418,1.1337,1.1619,1.183,1.1809,1.1599,1.1389,1.1096,1.0867,1.0778,1.0717,1.0717,0.0,0.0,0.0,0.0,0.0,0.0,0.0,0.0,0.0,0.0586,0.0,0.0328,0.2075,0.3191,0.4353,0.693,0.8408,0.946,1.0412,1.0989,1.1477,1.2142,1.2569,1.2949,1.3397,1.1072,0.8473,0.6949,0.4112,0.153,0.0228,0.3343,0.0,0.0,0.0,0.0,0.0,0.0,0.0,0.0,0.0,0.0,0.0,0.0,0.0,0.0,0.0,0.0,0.0,1.3085,1.3057,1.2996,1.2854,1.2752,1.2691,1.2447,1.2427,1.2674,1.2413,1.2291,1.2216,1.1925,1.1762,1.1694,1.1606,1.1565,1.1558,1.147,1.1382,1.1301,1.1301,1.1206,1.1077,0.0,0.0,0.9876,0.9977,0.0,0.0,0.0,0.0,0.0,0.0,1.0711,1.0717,0.0,0.0,0.0,0.0,0.0,0.7987,0.7792,0.4781,0.2925,0.2744,0.1134,0.0273,0.0287,0.0075,0.0,0.0,0.2388,0.4244,0.5666,0.8398,1.065,1.2223,1.2515,1.2474,1.2169,1.1877,1.1423,1.0826,1.0772,1.0717,1.0717,1.0717,0.0,0.0,0.0,0.0,0.0,0.0,0.0,0.0,0.0846,0.0258,0.0579,0.2397,0.28,0.3482,0.7167,0.7954,0.8176,1.0411,1.1131,1.147,1.2169,1.2969,1.3566,1.3553,1.0264,0.7342,0.6756,0.3379,0.0449,0.0076,0.0,0.0,0.0,0.0,0.0,0.0,0.0,0.0,0.0,0.0,0.0,0.0,0.0,0.0,0.0,0.0,0.0,0.0,1.2981,1.2834,1.2691,1.2535,1.2393,0.0,1.2094,1.2013,1.2074,1.2026,1.1952,1.1775,1.1491,1.1294,1.1234,1.1234,1.1234,1.1234,1.1234,1.1158,1.1145,1.1145,1.105,1.086,0.0,0.0,0.991,1.0181,0.0,0.0,0.0,0.0,0.0,0.0,1.0643,0.0,0.0,0.0,0.0,0.0,1.0083,0.9224,0.7868,0.6995,0.601,0.4807,0.319,0.2386,0.2687,0.089,0.0,0.0,0.1909,0.3776,0.5507,0.7968,0.9966,1.1599,1.1891,1.1796,1.1396,1.1212,1.0928,1.0595,1.0683,1.0717,1.0717,1.0717,1.0717,0.0,0.0,0.0,0.0,0.0,0.0,0.0,0.2716,0.2059,0.2303,0.3922,0.5277,0.6758,0.8973,0.9685,1.0052,1.0927,1.1667,1.2291,1.2569,1.2881,1.3071,1.2949,1.2443,1.0894,0.7189,0.5761,0.3991,0.0525,0.0,0.0,0.0,0.0,0.0,0.0,0.0,0.0,0.0,0.0,0.0,0.0,0.0,0.0,0.0,0.0,0.0,1.2433,1.2433,1.242,1.2386,1.223,1.2081,0.0,1.1782,1.1653,1.1545,1.1775,1.1735,1.1477,1.1294,1.1261,1.1234,1.1234,1.1234,1.1234,1.1234,1.109,1.0927,1.0927,1.09,1.0772,0.0,0.0,0.0,0.0,0.0,0.0,0.0,0.0,0.0,0.0,0.0,1.0582,1.05,1.05,0.0,0.0,1.0256,0.9784,0.8896,0.8068,0.6955,0.5558,0.4642,0.3853,0.3207,0.2027,0.0929,0.0,0.0912,0.2771,0.5427,0.6848,0.8913,1.1511,1.1809,1.1694,1.1267,1.1192,1.09,1.0507,1.0656,1.0717,1.0711,1.0636,1.0656,1.0711,1.0636,0.0,0.0,0.0,0.0,0.0,0.0,0.0,0.2983,0.5489,0.6671,0.7664,0.9671,1.0324,1.0548,1.1212,1.1782,1.2244,1.2467,1.2637,1.2698,1.2549,1.1963,1.0782,0.8324,0.6215,0.4282,0.0,0.0,0.0,0.0,0.0,0.0,0.0,0.0,0.0,0.0,0.0,0.0,0.0,0.0,0.0,0.0,1.1884,1.2033,1.2176,1.2182,1.2149,1.2074,1.1925,1.1775,1.1619,1.147,1.1362,1.1287,1.1443,1.1389,1.1172,1.1097,1.1016,1.0948,1.0948,1.0948,1.0948,1.0948,1.0907,1.0772,1.0772,1.0785,1.0717,0.0,0.0,0.0,0.0,0.0,0.0,0.0,0.0,0.0,0.0,0.0,1.048,1.046,1.0351,1.027,0.0,0.0,0.0,0.9984,0.883,0.7671,0.6594,0.6211,0.5236,0.3452,0.3039,0.1891,0.0,0.0337,0.2213,0.5453,0.5796,0.8002,1.1592,1.1809,1.1674,1.1274,1.1274,1.0955,1.0466,1.0622,1.0683,1.0663,1.0514,1.0548,1.0663,1.0534,1.0575,1.0392,0.8824,0.0,0.0,0.0,0.0,0.3883,0.6754,0.7556,0.7983,0.9888,1.0212,1.0202,1.1372,1.1524,1.1529,1.2114,1.2338,1.2393,1.2277,1.0986,0.9821,0.9377,0.6355,0.0,0.0,0.0,0.0,0.0,0.0,0.0,0.0,0.0,0.0,0.0,0.0,0.0,0.0,0.0,0.0,1.1531,1.1565,1.1694,1.1938,1.1945,1.187,1.1714,1.1599,1.1463,1.1314,1.1158,1.1084,1.1084,1.1084,1.1036,1.088,1.0853,1.0772,1.0717,1.0717,1.0717,1.0717,1.0717,1.0717,1.0717,1.0717,1.0717,1.0717,0.0,0.0,0.0,0.0,0.0,0.0,0.0,0.0,0.0,0.0,1.0419,1.0446,1.0324,1.029,1.0229,1.0031,0.9997,0.9984,0.9984,0.0,0.0,1.046,0.883,0.7233,0.5627,0.3711,0.1847,0.0,0.1594,0.3535,0.573,0.583,0.7818,1.1416,1.1328,1.1104,1.0812,1.0812,1.0616,1.0324,1.0466,1.0521,1.0507,1.0365,1.0399,1.0521,1.05,1.0507,1.0521,1.0234,0.8898,0.0,0.0,0.0,0.6832,0.7322,0.8404,0.9531,0.9928,0.9358,0.9075,1.1208,1.0639,1.0025,1.1749,1.2108,1.2115,1.2094,1.2083,1.1453,0.9367,0.0,0.0,0.0,0.0,0.0,0.0,0.0,0.0,0.0,0.0,0.0,0.0,0.0,0.0,0.0,0.0,0.0,1.1219,1.1348,1.1443,1.1477,1.1484,1.1409,1.1253,1.1233,1.1151,1.0934,1.0853,1.0778,1.0778,1.0778,1.0839,1.0873,1.0806,1.0738,1.0717,1.0717,1.0717,1.0717,1.0717,1.0717,1.0717,1.0717,1.0717,1.0717,0.0,0.0,0.0,0.0,0.0,0.0,0.0,0.0,0.0,0.0,0.0,1.0351,1.029,1.0202,1.0059,0.9822,0.9876,0.9896,0.9984,1.0175,1.0446,1.0894,1.0085,0.8417,0.583,0.4845,0.2881,0.0,0.176,0.3715,0.595,0.6764,0.8756,1.1511,1.1362,1.1124,1.0766,1.0663,1.0521,1.0399,1.0378,1.0473,1.0582,1.027,1.029,1.048,1.0399,1.0371,1.0371,1.0371,0.9139,0.777,0.8576,0.0,0.0,0.0,0.9268,0.989,1.0209,0.924,0.8644,1.0901,1.0167,0.9429,1.1391,1.1877,1.1911,1.183,1.1918,1.1649,0.0,0.0,0.0,0.0,0.0,0.0,0.0,0.0,0.0,0.0,0.0,0.0,0.0,0.0,0.0,0.0,0.0,1.086,1.1036,1.1104,1.1179,1.126,1.126,1.1192,1.1043,1.1043,1.0968,1.0819,1.0663,1.0636,1.0717,1.0548,1.0602,1.0752,1.0751,1.067,1.0595,1.0595,1.0548,1.048,1.0561,1.0595,1.0602,1.069,1.0717,1.0717,0.0,0.0,0.0,0.0,0.0,0.0,0.0,0.0,0.0,0.0,0.0,1.0283,1.0283,0.0,0.0,0.0,0.9707,0.9815,0.9869,0.9943,1.0139,1.0534,1.0622,0.9024,0.5537,0.5554,0.3728,0.0,0.218,0.4234,0.6144,0.8203,1.0076,1.1775,1.1511,1.1226,1.0867,1.0704,1.0609,1.0595,1.0405,1.0466,1.0622,1.0249,1.0243,1.0426,1.0358,1.0283,1.0229,1.027,0.9324,0.8346,0.9422,0.8958,0.0,0.0,0.0,0.9849,1.0222,0.9114,0.8372,1.0476,0.9775,0.9027,1.0959,1.1558,1.1633,0.0,1.1504,1.1491,0.0,0.0,0.0,0.0,0.0,0.0,0.0,0.0,0.0,0.0,0.0,0.0,0.0,0.0,0.0,0.0,0.0,1.0609,1.0806,1.086,1.0995,1.1104,1.107,1.0982,1.0766,1.0732,1.0724,1.0609,1.0493,1.05,1.0602,1.0378,1.0399,1.0609,1.0609,1.0541,1.0439,1.0439,1.0378,1.029,1.0399,1.046,1.0507,1.0622,1.0683,1.0717,0.0,0.0,0.0,0.0,0.0,0.0,0.0,0.0,0.0,0.0,0.0,1.0283,1.0283,1.0141,0.9869,0.9639,0.9618,0.9625,0.9632,0.9835,0.9997,1.0017,1.0351,0.0,0.5231,0.5301,0.3619,0.0,0.3551,0.562,0.6356,0.9806,1.175,1.223,1.1653,1.1226,1.088,1.086,1.0853,1.0833,1.0602,1.0487,1.0487,1.0331,1.0276,1.031,1.0432,1.0304,1.0017,1.0229,1.0017,0.9707,0.9761,0.9761,0.9674,0.0,0.0,0.0,0.9815,0.865,0.7917,0.9993,0.93,0.855,1.0467,1.1097,1.1199,1.1185,1.1185,0.0,0.0,0.0,0.0,0.0,0.0,0.0,0.0,0.0,0.0,0.0,0.0,0.0,0.0,0.0,0.0,0.0,0.0,1.0561,1.0724,1.0799,1.0887,1.0894,1.0819,1.067,1.0514,1.0385,1.031,1.0304,1.0297,1.0297,1.0304,1.029,1.029,1.0304,1.0304,1.0297,1.029,1.029,1.029,1.0283,1.029,1.0371,1.0493,1.05,1.0595,1.0717,0.0,0.0,0.0,0.0,0.0,0.0,0.0,0.0,0.0,0.0,0.0,0.0,0.0,1.0017,0.9829,0.9496,0.9462,0.9544,0.9734,0.9842,0.9883,0.9984,1.0249,0.9227,0.6781,0.5863,0.4181,0.1602,0.3916,0.5315,0.5912,0.9369,1.1179,1.143,1.1504,1.1423,1.1206,1.0819,1.0711,1.0765,1.0371,1.0378,1.0588,1.0154,1.0107,1.0276,1.0222,1.0073,0.9924,1.008,0.9992,0.9822,0.9822,0.9761,0.9673,0.9625,0.9612,0.9659,0.9842,0.8508,0.7582,0.9662,0.9026,0.8356,1.011,1.0853,1.1111,1.0921,1.0955,0.0,0.0,0.0,0.0,0.0,0.0,0.0,0.0,0.0,0.0,0.0,0.0,0.0,0.0,0.0,0.0,0.0,0.0,0.0,1.0568,1.0717,1.0758,1.0656,1.0602,1.0507,1.0358,1.0304,1.0283,1.0276,1.0181,1.0181,1.0276,1.0073,1.0039,1.0127,1.0025,1.0039,1.0134,1.0134,1.0073,0.9998,1.0093,1.0161,1.0229,1.0419,1.0527,1.0588,0.0,0.0,0.0,0.0,0.0,1.0636,1.0392,1.031,1.0263,1.0202,0.0,0.0,0.0,0.0,0.9944,0.9496,0.9456,0.9544,0.9734,0.9795,0.9869,0.9909,1.0168,0.9418,0.7604,0.6701,0.528,0.3323,0.5029,0.6029,0.6496,0.9384,1.0826,1.1029,1.128,1.1362,1.1287,1.0887,1.0778,1.0833,1.0378,1.0405,1.0683,1.0331,1.0263,1.0351,1.0351,1.0092,0.9849,0.995,0.9856,0.9754,0.9802,0.9686,0.953,0.953,0.9496,0.9496,0.9693,0.8729,0.8107,0.9564,0.9131,0.8688,0.9923,1.0507,1.0744,1.0602,0.0,0.0,0.0,0.0,0.0,0.0,0.0,0.0,0.0,0.0,0.0,0.0,0.0,0.0,0.0,0.0,0.0,0.0,0.0,0.0,1.0412,1.0561,1.0575,1.0426,1.0371,1.027,1.0127,1.0127,1.0127,1.0127,1.0019,1.0025,1.012,0.9917,0.9876,0.9903,0.9863,0.9876,0.9909,0.9909,0.9849,0.9829,0.9869,0.9943,1.0011,1.027,1.0378,1.0432,0.0,0.0,1.0717,1.0717,1.0717,1.067,1.0514,1.0378,1.0337,1.0466,0.0,0.0,0.0,0.0,0.0,0.9666,0.9625,0.9618,0.9618,0.9747,0.9822,0.9822,1.0114,0.9431,0.749,0.7811,0.6987,0.4977,0.689,0.7873,0.8047,0.9827,1.0853,1.1193,1.0995,1.1009,1.1138,1.1145,1.122,1.1179,1.067,1.0588,1.0744,1.0806,1.0744,1.0527,1.0759,1.0489,0.999,0.999,0.9795,0.9646,0.9774,0.9618,0.9395,0.9381,0.9337,0.9221,0.0,0.0,0.0,0.9734,0.9707,0.968,0.9896,0.9977,1.0031,1.0236,0.0,0.0,0.0,0.0,0.0,0.0,0.0,0.0,0.0,0.0,0.0,0.0,0.0,0.0,0.0,0.0,0.0,0.0,0.0,1.0114,1.0326,1.047,1.0483,1.0283,1.0127,0.9916,0.9829,0.9822,0.9822,0.9822,0.9822,0.9822,0.9822,0.9822,0.9822,0.9822,0.9822,0.9822,0.9822,0.9822,0.9822,0.9822,0.9822,0.9849,0.9977,0.9984,1.0148,1.0276,0.0,1.0717,1.0717,1.0717,1.0717,1.067,1.0514,1.046,1.0412,0.0,0.0,0.0,1.0127,1.0051,1.0107,1.0093,0.9992,0.9869,0.9869,0.9863,0.9822,0.9822,1.0012,0.9771,0.9147,0.8222,0.7411,0.6686,0.7239,0.7531,0.7624,0.94,1.0213,1.0365,1.0541,1.0582,1.0541,1.0751,1.0839,1.0826,1.0588,1.0649,1.0786,1.0575,1.0473,1.0487,1.0473,1.0358,1.0202,1.0024,0.993,0.9835,0.972,0.968,0.9659,0.9442,0.9429,0.9483,0.9483,0.0,0.0,0.0,0.0,0.0,0.9408,0.9734,0.997,0.0,0.0,0.0,0.0,0.0,0.0,0.0,0.0,0.0,0.0,0.0,0.0,0.0,0.0,0.0,0.0,0.0,0.0,0.0,0.9903,1.0557,1.1775,1.1996,1.1568,1.0347,1.0127,0.9963,0.9923,0.9876,0.9822,0.9822,0.9822,0.9822,0.9822,0.9822,0.9822,0.9822,0.9822,0.9822,0.9822,0.9822,0.9822,0.9822,0.9822,0.9849,0.9835,0.995,1.0011,1.0127,1.0717,1.0717,1.0738,1.0739,1.0745,1.0806,1.0778,1.0663,1.0582,0.0,0.0,0.0,1.0243,1.0236,1.0243,1.0276,1.0141,0.9984,0.9984,0.9842,0.9822,0.9822,0.9903,0.9943,0.9856,0.9118,0.8619,0.8485,0.8485,0.8456,0.8404,0.9413,0.9896,0.9903,1.0202,1.0222,1.0114,1.0473,1.0622,1.0609,1.0466,1.0582,1.0833,1.0636,1.0568,1.0582,1.0568,1.0521,1.0432,1.0215,1.0038,0.9923,0.9625,0.9612,0.97,0.953,0.9449,0.9435,0.9496,0.934,0.9262,0.9422,0.0,0.0,0.9228,0.9422,0.9652,0.0,0.0,0.0,0.0,0.0,0.0,0.0,0.0,0.0,0.0,0.0,0.0,0.0,0.0,0.0,0.0,0.0,0.0,0.9829,0.9842,1.0348,1.1333,1.2237,1.1964,1.0347,1.0127,0.9984,0.9984,0.9835,0.9822,0.9822,0.9822,0.9822,0.9822,0.9822,0.9822,0.9822,0.9822,0.9822,0.9822,0.9822,0.9822,0.9822,0.9822,0.9822,0.9829,0.9862,0.9896,0.9903,0.0,1.085,1.0958,1.09,1.1205,1.1457,1.1186,1.1117,1.0999,0.0,1.0724,1.0548,1.0561,1.0555,1.0493,1.0365,1.0195,1.0031,1.0011,0.9917,0.9822,0.9822,0.9889,0.9963,0.9963,1.0161,1.0161,0.9963,0.9963,0.9896,0.9822,0.9822,0.9822,0.9829,0.9903,0.9889,0.9849,1.0263,1.0439,1.0432,1.0358,1.0493,1.0758,1.0813,1.0772,1.0738,1.0806,1.0766,1.0677,1.0378,1.0168,0.9889,0.9557,0.9503,0.9585,0.9605,0.9415,0.9289,0.9367,0.9306,0.9323,0.9544,0.9401,0.0,0.9214,0.9248,0.9275,0.0,0.0,0.0,0.0,0.0,0.0,0.0,0.0,0.0,0.0,0.0,0.0,0.0,0.0,0.0,0.0,0.9988,0.9841,0.9585,1.0058,1.0243,1.0019,1.183,1.2113,1.032,1.0141,1.0004,0.9984,0.9856,0.9836,0.9822,0.9822,0.9822,0.9822,0.9822,0.9822,0.9822,0.9822,0.9822,0.9822,0.9822,0.9822,0.9822,0.9822,0.9822,0.9822,0.9822,0.9822,0.9822,1.0717,1.1828,1.2363,1.0958,1.3303,1.4348,1.1389,1.2202,1.2681,1.1303,1.0968,1.09,1.1023,1.0928,1.0779,1.0819,1.0568,1.0358,1.0243,0.9971,0.9822,0.9822,0.9849,0.9863,0.9863,0.9897,0.9897,0.9863,0.9863,0.9849,0.9822,0.9822,0.9822,0.9822,0.9849,0.9849,0.9836,0.9984,1.0071,1.0098,1.05,1.0744,1.0826,1.0799,1.0744,1.0724,1.0751,1.0744,1.0677,1.0378,1.0093,0.9849,0.9761,0.9591,0.9449,0.9571,0.9564,0.953,0.9557,0.9544,0.9537,0.9598,0.9564,0.0,0.9268,0.9435,0.9625,0.0,0.0,0.0,0.0,0.0,0.0,0.0,0.0,0.0,0.0,0.0,0.0,0.0,0.0,0.0,0.0,0.9143,0.9294,0.7978,1.1471,1.2526,0.9985,1.2743,1.3031,1.0156,1.0188,1.0175,0.999,0.9957,0.9883,0.9822,0.9822,0.9822,0.9822,0.9822,0.9822,0.9822,0.9822,0.9822,0.9822,0.9822,0.9822,0.9822,0.9822,0.9822,0.9822,0.9822,0.9822,0.9822,1.3144,1.4116,1.4611,1.3787,1.5063,1.5768,1.425,1.4674,1.4611,1.2897,1.176,1.1138,1.1063,1.1056,1.0995,1.0779,1.0622,1.0432,1.029,1.0066,0.9897,0.9822,0.9822,0.9897,1.0046,0.9897,0.9897,1.0053,0.9897,0.9822,0.9822,0.9822,0.9781,0.972,0.9869,0.989,0.9842,1.0141,1.027,1.029,1.0514,1.0649,1.0717,1.0717,1.067,1.0616,1.069,1.067,1.0561,1.0263,1.0114,1.0025,0.9869,0.9774,0.9727,0.9808,0.9727,0.9625,0.9693,0.9666,0.9625,0.97,0.9659,0.0,0.0,0.9442,0.9537,0.9371,0.0,0.0,0.0,0.0,0.0,0.0,0.0,0.0,0.0,0.0,0.0,0.0,0.0,0.0,0.0,0.7542,0.7424,0.7423,1.1883,1.3228,1.0004,1.2986,1.3337,1.0108,1.0127,1.0127,0.9984,0.9909,0.9897,0.9822,0.9822,0.9822,0.9822,0.9822,0.9822,0.9822,1.0657,1.102,1.102,1.102,1.102,1.0899,1.0119,0.9822,0.9822,0.9822,0.9822,0.9822,1.5759,1.6392,1.6699,1.6496,1.688,1.7107,1.6975,1.7025,1.633,1.4345,1.26,1.1375,1.1042,1.1151,1.1145,1.0995,1.0656,1.0453,1.0453,1.0175,0.9876,0.9788,0.9808,0.9924,1.0148,0.9937,0.9944,1.0195,0.9944,0.9822,0.9822,0.9822,0.9774,0.97,0.9822,0.9883,0.993,1.0263,1.0405,1.0412,1.05,1.0534,1.0548,1.067,1.0622,1.0507,1.0602,1.0555,1.0412,1.0175,1.0154,1.0195,0.9978,0.9937,0.9916,1.0004,0.9883,0.968,0.9829,0.9802,0.9754,0.9808,0.9802,0.9727,0.0,0.0,0.0,0.0,0.0,0.0,0.0,0.0,0.0,0.0,0.0,0.0,0.0,0.0,0.0,0.0,0.0,0.0,0.0,0.5878,0.5722,0.7307,1.1583,1.2868,0.9943,1.2656,1.2978,1.0067,0.997,0.997,0.9943,0.9849,0.9849,0.9822,0.9822,0.9943,1.024,1.024,1.0422,1.0778,1.2097,1.2629,1.2629,1.2337,1.2217,1.2037,1.0422,0.9822,0.9822,0.9822,0.9997,1.024,1.6183,1.7173,1.7776,1.6244,1.8759,1.9927,1.6691,1.7653,1.7564,1.4283,1.2585,1.1721,1.1558,1.1436,1.1511,1.1877,1.0928,1.0521,1.1029,1.0297,0.9781,0.9639,0.9754,0.9781,0.9686,0.9774,0.9836,0.9876,0.9836,0.9822,0.9822,0.9822,0.9883,0.993,0.9761,0.9869,1.0222,1.0134,1.0038,1.0071,1.0534,1.0697,1.0697,1.0711,1.0622,1.048,1.0371,1.0317,1.0297,1.0263,1.0175,1.0031,1.0195,0.9964,0.9741,1.0134,1.0039,0.9829,0.9923,1.0114,1.0141,0.9883,1.0107,1.0283,0.9863,0.0,1.0249,0.9829,0.0,0.0,0.0,0.0,0.0,0.0,0.0,0.0,0.0,0.0,0.0,0.0,0.0,0.0,0.0,0.0,0.5598,0.7301,1.0574,1.1675,0.9883,1.1518,1.1647,0.9903,0.9916,0.9923,0.9849,0.9903,0.9896,0.9822,0.9822,1.0536,1.1916,1.1916,1.2689,1.4063,1.4242,1.4302,1.4242,1.2808,1.2217,1.2037,1.0422,0.9822,0.9822,0.9822,1.0717,1.1916,1.8963,1.967,2.0002,1.9048,2.0234,2.0824,1.9475,1.8463,1.7333,1.5838,1.3435,1.1843,1.187,1.1735,1.1721,1.1911,1.1396,1.105,1.1036,1.0602,1.0236,1.0012,0.9971,0.9964,0.9998,0.9883,0.9863,0.9889,0.9863,0.9822,0.9822,0.9822,0.9856,0.9856,0.9822,0.9971,1.0154,1.0263,1.0304,1.0331,1.0609,1.067,1.0588,1.0588,1.0493,1.0337,1.01,1.0073,1.0252,1.1086,1.1503,1.1846,1.2676,1.2891,1.2926,1.2934,1.2786,1.2586,1.2673,1.211,1.1495,1.1503,1.091,1.0344,1.0236,1.029,1.0317,0.0,0.0,0.0,0.0,0.0,0.0,0.0,0.9727,0.0,0.0,0.0,0.0,0.0,0.0,0.0,0.0,0.0,0.0,0.0,0.0,1.1916,1.1261,1.1856,1.1916,1.1201,1.0365,0.9883,0.9822,0.9883,0.9883,0.9822,1.0568,1.1399,1.2209,1.2981,1.3819,1.4658,1.5607,1.5961,1.5961,1.5241,1.4421,1.3407,1.1796,1.0596,0.9943,1.0838,1.1615,1.2337,2.0882,2.1096,2.1176,2.1122,2.1042,2.1096,2.139,1.9189,1.733,1.6907,1.4269,1.237,1.2176,1.2026,1.2054,1.2305,1.2006,1.1667,1.1335,1.1016,1.0656,1.0236,1.0148,1.0148,1.0215,0.9998,0.9876,0.9984,0.9937,0.9883,0.9883,0.9883,0.9924,1.0005,0.993,1.0017,1.0179,1.0378,1.046,1.0507,1.0656,1.0609,1.0432,1.0385,1.0304,1.0181,0.9917,0.989,1.0156,1.172,1.2471,0.0,1.443,1.5013,1.5125,1.4841,1.4691,1.462,1.456,0.0,0.0,0.0,0.0,0.0,0.0,0.0,0.0,0.0,0.0,0.0,0.0,0.0,0.9849,0.9747,0.0,0.9822,0.0,0.0,0.0,0.0,0.0,0.0,0.0,0.0,0.0,0.0,0.0,0.0,1.1491,1.1579,1.1611,1.1555,1.0465,0.9863,0.9822,0.9822,0.9997,1.0482,1.1427,1.2497,1.3577,1.4534,1.5317,1.5972,1.7149,1.7689,1.7618,1.7208,1.602,1.4421,1.2808,1.1495,1.0596,1.1796,1.2457,1.3108,2.0575,2.0468,2.0454,2.1015,2.0882,2.0788,2.1082,1.9678,1.8094,1.6638,1.505,1.3657,1.2457,1.2277,1.2623,1.3498,1.2773,1.2264,1.225,1.1558,1.0819,1.0024,1.0195,1.0209,0.9997,0.9984,0.9984,0.9984,1.0046,1.0046,0.9977,0.9977,1.0195,1.0453,1.0019,1.0154,1.0683,1.0405,1.0365,1.0507,1.0656,1.0548,1.027,1.012,0.9997,0.997,0.9876,0.0,0.0,1.1824,1.2373,0.0,0.0,0.0,0.0,0.0,0.0,0.0,0.0,0.0,0.0,1.2855,0.0,0.0,0.0,0.0,1.0663,0.0,0.0,0.0,1.029,1.0141,0.9977,0.997,0.9856,0.0,0.0,0.0,0.0,0.0,0.0,0.0,0.0,0.0,0.0,0.0,0.0,0.0,0.9685,0.9944,1.0033,0.9883,0.9964,0.9909,0.9822,0.9822,1.0596,1.2097,1.2148,1.3815,1.6844,1.6903,1.7735,1.9243,1.9301,1.9301,1.9185,1.763,1.602,1.4421,1.2808,1.2157,1.2157,1.2157,1.3168,1.4777,2.0307,2.0307,2.0233,2.0494,2.0615,2.0842,2.1323,1.9977,1.8518,1.7556,1.5898,1.443,1.3624,1.3376,1.3437,1.3743,1.3403,1.301,1.261,1.2067,1.1599,1.1246,1.09,1.0697,1.0577,1.0446,1.0297,1.0202,1.01,1.01,1.0202,1.0038,1.0154,1.0344,1.0195,1.0181,1.022,1.0378,1.0392,1.0358,1.0412,1.0487,1.0521,0.0,0.9897,0.989,0.9842,1.0482,0.0,1.331,1.4681,1.5942,1.7446,1.8019,1.8056,1.7813,1.7823,0.0,0.0,0.0,1.6563,1.5775,0.0,0.0,0.0,0.0,0.0,0.0,0.0,0.0,0.0,1.0304,1.0168,1.0004,0.9943,0.9876,0.0,0.0,0.0,0.0,0.0,0.0,0.0,0.0,0.0,0.0,0.0,0.0,0.0,1.0232,1.0258,1.1374,1.0411,1.0358,1.1382,1.0301,1.114,1.3765,1.3622,1.4741,1.702,1.7852,1.8711,1.943,1.943,1.943,1.9301,1.7677,1.6668,1.602,1.4421,1.3765,1.3765,1.3765,1.4837,1.6455,2.0347,2.0307,2.0267,2.0374,2.0628,2.0962,2.1336,2.092,2.0191,1.9287,1.8349,1.7551,1.6943,1.6596,1.6438,1.6631,1.6409,1.5596,1.4027,1.3841,1.3232,1.185,1.1518,1.1294,1.1116,1.0887,1.0609,1.0358,1.031,1.031,1.0351,1.0202,1.0209,1.0351,1.0304,1.0222,1.0148,1.1084,1.1063,1.0351,1.0304,1.0392,0.0,0.0,0.989,1.0033,0.0,1.1322,1.2509,1.4718,1.6239,1.7482,1.8946,1.9492,1.9586,1.9292,1.9292,1.9345,1.9239,1.8711,0.0,1.7373,1.6803,0.0,1.5643,0.0,0.0,0.0,0.0,0.0,0.0,1.0863,1.029,1.0017,0.9984,0.9936,0.0,0.9741,0.0,0.0,0.0,0.0,0.0,0.0,0.0,0.0,0.8864,0.0,0.0,0.0,1.0286,1.1408,1.0504,1.075,1.2258,1.1232,1.2269,1.5429,1.5269,1.6157,1.7864,1.8685,1.9185,1.943,1.943,1.943,1.9301,1.8286,1.7501,1.6903,1.5843,1.5429,1.5429,1.5429,1.6549,1.8155,2.0655,2.0454,2.0361,2.0655,2.0909,2.1096,2.1149,2.2392,2.2834,2.158,2.2205,2.2567,2.1989,2.1397,2.1227,2.1679,2.1276,1.968,1.6459,1.6555,1.5257,1.2039,1.2033,1.1959,1.1667,1.1348,1.0975,1.0534,1.0649,1.0643,1.0514,1.0351,1.0358,1.0487,1.0351,1.0283,1.0417,1.2321,1.2107,1.048,1.0337,1.029,1.0263,0.9944,1.0074,1.0552,1.1744,1.2277,1.2808,1.5961,1.7032,1.7384,1.8939,1.943,1.9319,1.9025,1.9145,1.9305,1.9025,1.9158,1.9089,1.7649,0.0,0.0,0.0,0.0,1.5694,0.0,0.0,0.0,0.0,0.0,1.0656,1.0232,1.0046,0.9923,0.9842,0.9822,0.9822,0.0,0.0,0.0,0.0,0.8323,0.7991,0.9141,0.9429,0.953,0.0,0.0,0.9977,0.9984,1.0188,1.0951,1.239,1.2258,1.3825,1.6985,1.6973,1.7864,1.943,1.943,1.943,1.943,1.943,1.943,1.9372,1.9301,1.8402,1.7091,1.702,1.7032,1.7149,1.7149,1.8261,1.9786,2.0347,2.0641,2.0909,2.0989,2.0882,2.1002,2.1657,2.2645,2.2962,2.2189,2.3038,2.3225,2.2193,2.1937,2.1716,2.1487,1.9836,1.8313,1.7272,1.5455,1.4026,1.318,1.2779,1.2467,1.2277,1.1769,1.1389,1.1158,1.0751,1.0649,1.0759,1.0453,1.0358,1.0487,1.0453,1.0317,1.0127,1.087,1.0911,1.048,1.0337,1.0412,1.0548,0.0,1.074,1.2097,1.217,1.2988,1.4302,1.6315,1.7806,1.8881,1.9243,1.943,1.9359,1.9279,1.9305,1.9403,1.9279,1.9466,1.9535,1.8979,1.9133,1.9296,0.0,0.0,0.0,0.0,0.0,0.0,0.0,0.0,1.4024,1.2389,1.0885,0.9869,0.9829,0.9822,0.0,0.9822,0.0,0.0,0.0,0.9242,0.9033,0.9334,0.935,0.9357,0.0,0.0,0.0,0.9984,1.0024,1.0885,1.2636,1.2317,1.3901,1.7136,1.7056,1.7864,1.943,1.943,1.943,1.943,1.943,1.943,1.9301,1.8098,1.8098,1.8648,1.7443,1.7747,1.8765,1.8765,1.9108,1.9546,2.0641,2.1082,2.1496,2.1496,2.179,2.2111,2.2338,2.2913,2.3399,2.3661,2.461,2.5022,2.4621,2.4734,2.4856,2.4569,2.3304,2.1439,1.9044,1.7613,1.5933,1.3718,1.3363,1.3057,1.2712,1.2182,1.1708,1.1294,1.0887,1.0711,1.0744,1.0426,1.0324,1.0399,1.0399,1.0304,1.0161,1.0331,1.0919,1.167,1.0678,1.0419,0.0,1.0834,1.161,1.273,1.388,1.4896,1.5902,1.7513,1.8648,1.943,1.943,1.943,1.943,1.943,1.943,1.943,1.943,1.9492,1.9573,1.947,1.9613,1.984,1.9813,1.9219,1.8815,0.0,0.0,0.0,0.0,0.0,0.0,1.3213,1.1178,0.9835,0.9829,0.9876,0.9897,0.0,0.9808,0.0,0.0,0.9551,0.9381,0.9381,0.93,0.0,0.0,0.0,0.0,1.0148,1.0209,1.1411,1.3888,1.3557,1.5042,1.8332,1.8118,1.8519,1.943,1.943,1.943,1.943,1.943,1.943,1.9314,1.8402,1.8577,1.9314,1.8542,1.877,1.9573,1.9693,1.9666,1.9599,2.1162,2.1617,2.2004,2.1884,2.2886,2.3581,2.3153,2.3487,2.4235,2.5518,2.652,2.7295,2.7762,2.8297,2.8591,2.8551,2.8042,2.584,2.1397,2.1153,1.9075,1.4288,1.4202,1.3902,1.3003,1.2508,1.1932,1.1253,1.1029,1.0792,1.0548,1.0385,1.0317,1.0337,1.0317,1.0297,1.0283,1.0283,1.1441,1.3093,1.1332,1.087,1.1292,1.2416,1.2882,1.3389,1.6116,1.7079,1.7267,1.8881,1.943,1.943,1.943,1.943,1.943,1.943,1.943,1.943,1.943,1.943,1.943,1.943,1.943,1.9439,1.9733,1.996,2.0214,2.0548,1.96,1.8716,0.0,0.0,0.0,1.3824,1.1752,1.0246,1.0168,1.0108,0.997,0.9897,0.0,0.0,0.0,0.0,0.9408,0.9408,0.9408,0.0,0.0,0.0,0.0,0.0,1.0656,0.0,1.5145,0.0,1.6616,1.949,1.9447,1.943,1.943,1.943,1.943,1.943,1.943,1.943,1.943,1.943,1.9444,1.9511,1.9706,1.9826,1.988,2.0094,2.0013,1.9813,2.1122,2.1777,2.2111,2.139,2.2458,2.3607,2.4235,2.5398,2.6306,2.656,2.7789,2.8604,2.8457,2.8537,2.8497,2.8328,2.6443,2.4888,2.4067,2.2278,1.9885,1.698,1.6771,1.5607,1.3227,1.2454,1.1972,1.1714,1.107,1.0799,1.0793,1.0582,1.0521,1.0636,1.0514,1.0392,1.0283,1.0283,0.0,1.2931,1.262,1.3383,1.4788,1.4923,1.5636,1.6639,1.7477,1.7446,1.7267,1.8881,1.943,1.943,1.943,1.943,1.943,1.943,1.943,1.943,1.943,1.943,1.943,1.943,1.943,1.9439,1.9733,1.9653,1.9666,2.0201,2.0103,1.9872,1.9881,0.0,0.0,0.0,0.0,0.0,0.0,0.0,1.0229,1.0202,0.0,0.9835,0.0,0.0,0.0,0.0,0.0,0.0,0.0,0.0,0.0,0.0,0.0,0.0,0.0,0.0,0.0,1.7661,1.8848,1.943,1.943,1.943,1.943,1.943,1.943,1.943,1.943,1.943,1.9506,1.9733,1.9773,1.9947,2.0134,1.9947,1.984,1.9826,2.2231,2.2472,2.2659,2.2712,2.3688,2.4703,2.5438,2.6667,2.7295,2.668,2.7215,2.7615,2.7468,2.8003,2.831,2.8248,2.7194,2.5981,2.4776,2.3443,2.1692,1.9286,1.8996,1.7653,1.4995,1.5322,1.472,1.3122,1.2589,1.2234,1.201,1.1011,1.0527,1.0595,1.1423,1.1221,0.0,0.0,0.0,1.3101,1.3979,1.4925,1.5859,1.659,1.7236,1.786,1.864,1.8816,1.8775,1.9562,1.9613,1.9399,1.9546,1.9586,1.9559,1.947,1.9479,1.9559,1.947,1.9479,1.9559,1.9399,1.9479,1.9586,1.9573,1.9693,1.9853,1.9987,2.0254,2.0414,2.0207,1.8863,0.0,0.0,0.0,0.0,0.0,0.0,1.1337,1.0238,1.01,1.0025,0.0,0.0,0.0,0.0,0.0,0.0,0.0,0.0,0.0,0.0,0.0,0.0,0.0,0.0,0.0,1.8998,1.943,1.9586,1.9586,1.9439,1.943,1.943,1.943,1.943,1.943,1.9533,1.976,2.004,2.0187,2.0334,2.0441,2.0307,2.0067,1.98,2.3447,2.3367,2.346,2.4168,2.5077,2.5852,2.6319,2.7388,2.7899,2.6881,2.676,2.676,2.676,2.7671,2.8221,2.8221,2.8221,2.7448,2.5543,2.5132,2.3932,2.1589,2.1191,1.9868,1.7322,1.8106,1.7353,1.5003,1.4558,1.3928,1.3046,1.174,1.1034,1.107,0.0,0.0,0.0,0.0,1.4876,1.4308,1.5706,1.6541,1.713,1.8289,1.8686,1.8776,1.9715,2.0147,2.0193,2.0374,2.0027,1.9586,1.9826,1.9893,1.984,1.9626,1.972,1.984,1.9613,1.9679,1.976,1.9599,1.9679,1.976,1.9586,1.9853,2.0094,1.992,2.0214,2.0441,2.0267,1.9246,0.0,0.0,0.0,0.0,0.0,0.0,1.3042,1.1353,1.1002,1.0762,1.0386,0.0,0.0,0.0,0.0,0.9612,0.9612,0.9829,0.0,0.0,0.0,1.4454,1.6221,0.0,1.9187,0.0,1.9933,1.9706,1.9693,1.9466,1.943,1.943,1.9439,1.9492,1.9573,1.98,2.0067,2.0347,2.0588,2.0681,2.0668,2.0601,2.0294,1.9853,2.4062,2.4315,2.4489,2.4583,2.5545,2.6333,2.6386,2.7388,2.8181,2.8073,2.806,2.806,2.806,2.8167,2.8221,2.8221,2.8221,2.8136,2.7883,2.7522,2.6306,2.3785,2.3446,2.2092,1.9454,1.8714,1.7862,1.6926,1.6388,1.5044,0.0,1.3028,1.2881,0.0,0.0,0.0,0.0,1.5194,1.6252,1.7862,1.7987,1.911,2.0652,2.0753,2.0645,2.0509,2.0846,2.0655,2.0247,2.0842,2.0641,2.016,2.0127,2.0127,2.0187,2.016,2.0113,2.0187,2.016,1.9987,1.9853,2.0094,1.9973,1.9867,2.0094,1.9987,1.9907,2.0147,2.0027,1.9947,2.0187,1.992,1.9707,0.0,0.0,0.0,0.0,0.0,1.547,1.5052,0.0,0.0,0.0,0.0,0.0,0.0,0.0,0.9612,0.9612,0.9639,1.0485,1.2295,0.0,1.598,1.7437,1.9157,0.0,1.9492,1.9439,1.947,1.947,1.943,1.943,1.9386,1.9639,1.9907,2.0147,2.0127,2.0361,2.0641,2.0668,2.0681,2.0641,2.0374,2.0241,2.0147,2.5491,2.5331,0.0,0.0,0.0,0.0,0.0,2.7926,2.8221,2.8221,2.8221,2.8221,2.8221,2.8221,2.8221,2.8221,2.8221,2.8221,2.8221,2.7696,2.7046,2.6013,2.5499,2.4099,2.1569,2.2048,2.1214,0.0,0.0,0.0,0.0,0.0,0.0,0.0,0.0,1.6284,1.57,1.7711,1.8467,1.8387,1.95,2.0422,2.1109,2.1109,2.1042,2.0922,2.0869,2.0815,2.0775,2.0828,2.0575,2.0267,2.0441,2.0494,2.0468,2.0281,2.0361,2.0454,2.0281,2.0281,2.0307,2.0254,2.0281,2.0267,2.0027,2.016,2.0214,1.98,1.9626,1.9573,1.9693,1.976,1.984,0.0,0.0,0.0,0.0,0.0,0.0,1.5533,0.0,1.2552,0.0,0.0,0.0,0.0,0.0,0.9795,0.9618,0.9774,0.0,1.254,0.0,1.6402,1.8132,1.9696,2.0388,2.0207,1.98,1.9626,1.9626,1.9452,1.9466,1.9639,1.9933,2.0027,1.9987,2.016,2.0307,2.0414,2.0414,2.0521,2.0641,2.0347,2.0167,2.0241,2.6613,0.0,2.6346,0.0,2.7188,2.7188,2.81,2.8221,2.8221,2.8221,2.8221,2.8221,2.8221,2.8221,2.8221,2.8221,2.8221,2.8194,2.81,2.7549,2.7228,2.7134,2.6653,0.0,2.372,2.4596,2.3741,2.1016,2.0747,0.0,0.0,0.0,0.0,0.0,1.7812,1.801,1.7359,1.9711,2.0086,1.9274,2.0574,2.1109,2.1109,2.1109,2.1109,2.1082,2.0882,2.0935,2.1082,2.0869,2.0668,2.0521,2.0735,2.0802,2.0762,2.0548,2.0641,2.0762,2.0548,2.0588,2.0641,2.0521,2.0588,2.0561,2.0147,2.0307,2.0321,1.9533,1.9439,1.9466,1.9386,1.9599,1.98,1.98,0.0,0.0,0.0,1.8703,0.0,1.6887,1.5175,1.3972,1.3759,1.2334,0.0,0.0,0.0,0.0,0.0,0.0,0.0,0.0,0.0,0.0,0.0,2.0009,2.0454,2.0281,1.9867,1.9679,1.9666,1.9546,1.9653,1.9947,2.0241,2.0241,2.008,2.0281,2.0307,2.0241,2.0334,2.0388,2.0414,2.0374,2.0307,2.0281,2.7148,2.7255,2.7428,2.8114,2.8207,2.8207,2.8221,2.8221,2.8221,2.8221,2.8221,2.8221,2.8221,2.8221,2.8221,2.8221,2.8221,2.81,2.7722,2.7428,2.7134,0.0,0.0,2.6253,2.5959,2.5384,2.4502,2.3257,0.0,0.0,1.8512,0.0,1.8308,1.8125,1.991,2.0668,2.0619,2.0668,2.0842,2.1032,2.1109,2.1109,2.1109,2.1109,2.1109,2.1109,2.1109,2.1109,2.1109,2.1109,2.1096,2.1096,2.1096,2.1109,2.1096,2.1096,2.1096,2.1096,2.1096,2.0895,2.0748,2.1029,2.0882,2.0668,2.0668,2.0441,2.0067,1.9492,1.9599,1.9706,1.9426,1.9599,1.98,1.98,0.0,0.0,0.0,0.0,0.0,2.0106,1.8902,1.7851,1.7396,0.0,0.0,0.0,0.0,0.0,0.0,0.0,0.0,1.5094,1.7162,0.0,2.018,2.018,1.9947,1.9444,1.943,1.943,1.9386,1.9666,1.9947,2.018,2.0548,2.0668,2.0668,2.0668,2.0494,2.0207,2.0561,2.0321,1.988,2.0454,2.0481,2.0281,2.7913,2.7953,2.8006,2.8194,2.8221,2.8221,2.8221,2.8221,2.8221,2.8221,2.8221,2.8221,2.8221,2.8221,2.8221,0.0,2.7963,2.7802,0.0,2.7241,2.6921,2.6827,2.6547,2.6159,2.5665,2.5464,2.4703,2.3327,0.0,0.0,0.0,2.0066,1.9938,1.991,2.042,2.0788,2.0975,2.0975,2.1029,2.1109,2.1109,2.1109,2.1109,2.1109,2.1109,2.1109,2.1109,2.1109,2.1109,2.1109,2.1109,2.1109,2.1109,2.1109,2.1109,2.1109,2.1109,2.1109,2.1109,2.1042,2.0989,2.1082,2.1042,2.0922,2.0722,2.0294,1.988,1.9693,1.9586,1.9479,1.9444,1.9439,1.9506,1.9506,1.9746,0.0,0.0,0.0,0.0,1.9933,1.8369,1.7267,0.0,1.5795,0.0,0.0,0.0,0.0,0.0,0.0,0.0,0.0,1.7438,0.0,2.0828,2.0428,2.0241,2.0254,1.9653,1.943,1.9444,1.9867,2.0147,2.0254,2.0548,2.0561,2.0361,2.016,2.0147,2.0167,2.012,2.0214,2.0428,2.0601,2.0615,2.0575,2.8221,2.8221,2.8221,2.8221,2.8221,2.8221,2.8221,2.8221,2.8221,2.8221,2.8221,2.8221,2.8221,2.8221,0.0,2.8221,2.7869,2.7655,2.7549,2.7094,2.6774,2.6667,2.6386,2.5999,2.5518,0.0,0.0,2.3487,2.3153,2.2392,2.1269,2.1096,2.0949,2.0842,2.0842,2.1002,2.1269,2.1162,2.1176,2.1269,2.1149,2.1109,2.1109,2.1109,2.1109,2.1109,2.1109,2.1109,2.1109,2.1109,2.1109,2.1109,2.1109,2.1109,2.1109,2.1109,2.1109,2.1109,2.1109,2.1109,2.1109,2.1109,2.1109,2.1002,2.0601,2.0147,1.9773,1.9653,1.9492,1.943,1.943,1.943,1.943,1.943,1.9426,1.9466,1.9466,0.0,0.0,0.0,0.0,0.0,0.0,1.7114,0.0,0.0,0.0,0.0,0.0,0.0,0.0,1.6334,1.8309,0.0,2.0775,2.0414,2.0321,2.0508,1.996,1.9693,1.9706,2.0187,2.0401,2.0414,2.0708,2.0668,2.0388,2.0201,2.0174,2.0227,2.016,2.0281,2.0535,2.0762,2.0775,2.0722,2.8221,2.8221,0.0,0.0,2.8221,0.0,2.8221,2.8221,2.8221,2.8221,2.8221,2.8221,2.8221,2.8207,2.8194,2.8194,0.0,0.0,0.0,2.6961,2.6667,2.64,2.6132,2.5838,2.5518,2.5251,2.4663,2.3768,2.2846,2.2111,2.1641,2.1601,2.1376,2.1109,2.1109,2.1269,2.1601,2.1229,2.1283,2.1588,2.1229,2.1109,2.1109,2.1109,2.1109,2.1109,2.1109,2.1109,2.1109,2.1109,2.1109,2.1109,2.1109,2.1109,2.1109,2.1109,2.1109,2.1109,2.1109,2.1109,2.1109,2.1109,2.1109,2.0949,2.0374,2.004,1.9773,1.9439,1.9386,1.9399,1.943,1.943,1.943,1.943,1.9118,1.8918,1.8918,0.0,0.0,0.0,0.0,0.0,0.0,1.9786,1.9679,0.0,0.0,0.0,0.0,0.0,1.8113,1.7456,1.9553,2.0548,2.0267,2.018,2.0167,2.0167,2.0193,2.0193,2.018,2.0535,2.0681,2.0695,2.0962,2.0922,2.0681,2.0655,2.0494,2.0294,2.0575,2.0521,2.0361,2.0909,2.0935,2.0748,0.0,0.0,2.8221,2.8221,2.8221,2.8221,2.8221,2.8221,2.8221,2.8221,2.8221,2.8221,2.8221,2.7936,2.7802,2.7802,2.7535,2.7241,2.6947,2.6653,2.6466,2.6386,2.6319,2.6039,2.5518,2.5451,2.4877,2.3768,2.2645,2.2017,2.1871,2.143,2.1176,2.1109,2.1109,2.1269,2.1601,2.1229,2.1283,2.1588,2.1229,2.1109,2.1109,2.1109,2.1109,2.1109,2.1109,2.1109,2.1109,2.1109,2.1109,2.1109,2.1109,2.1109,2.1109,2.1109,2.1109,2.1109,2.1109,2.1109,2.1109,2.1109,2.1109,2.0949,2.0374,2.0361,2.0267,1.9578,1.9546,1.9626,1.947,1.943,1.943,1.943,1.9118,1.8918,1.8918,1.8731,0.0,0.0,1.9092,1.9305,1.976,1.9599,1.9626,0.0,0.0,0.0,0.0,1.9516,1.9084,1.7582,1.9594,2.0641,2.0575,2.0347,2.0167,2.018,2.0468,2.0454,2.018,2.0535,2.0681,2.0681,2.0748,2.0735,2.0655,2.0428,2.0428,2.0575,2.0655,2.0775,2.0922,2.1056,2.1069,2.1015,2.8221,2.8221,2.8221,2.8221,2.8221,2.8221,2.8221,2.8221,2.8221,2.8221,2.8221,2.8221,2.8221,2.7883,2.7642,2.7509,2.7228,2.7001,2.6827,2.6547,2.6386,2.6386,2.6132,2.5838,2.5518,2.5251,2.4676,2.3768,2.2846,2.2245,2.1977,2.1657,2.1443,2.1309,2.1162,2.1416,2.1924,2.1496,2.1483,2.1802,2.1577,2.1349,2.1122,2.1256,2.1229,2.1109,2.1109,2.1109,2.1109,2.1109,2.1109,2.1109,2.1109,2.1109,2.1109,2.1109,2.1109,2.1109,2.1109,2.1109,2.1109,2.1109,2.1002,2.0828,2.0508,2.0454,2.0334,1.9867,1.988,1.9907,1.9626,1.9559,1.9479,1.9212,1.8918,1.8731,1.8731,1.8597,0.0,1.8891,1.9158,1.9452,1.9773,1.9773,1.984,2.0013,0.0,0.0,1.9613,1.988,1.9541,1.8441,1.9624,2.0334,2.0468,2.0575,2.0628,2.0628,2.0802,2.0788,2.0641,2.0802,2.0869,2.0869,2.0869,2.0869,2.0855,2.0695,2.0722,2.0869,2.0869,2.0975,2.1109,2.1109,2.1109,2.1109,2.8221,2.8221,2.8221,2.8221,2.8221,2.8221,2.8221,2.8221,2.8221,2.8221,2.8221,2.8221,2.8221,2.7843,2.7535,2.7281,2.6947,2.676,2.676,2.6533,2.6386,2.6386,2.5865,2.5558,2.5518,2.485,2.4262,2.3768,2.3113,2.2512,2.1991,2.1937,2.1764,2.1534,2.1269,2.159,2.2258,2.1804,2.1802,2.1924,2.1964,2.1657,2.1203,2.1521,2.143,2.1243,2.1189,2.1203,2.1243,2.1243,2.1243,2.1243,2.1243,2.1243,2.1243,2.1243,2.1216,2.1162,2.1122,2.1109,2.1109,2.1109,2.0922,2.0735,2.0681,2.0521,2.0334,2.0193,2.0267,2.0214,1.992,1.9826,1.9639,1.9132,1.8731,1.8504,1.8544,0.0,1.8557,1.8945,1.9426,1.9786,1.992,2.012,2.0134,1.988,1.9826,1.9679,0.0,1.9639,1.9693,1.9497,1.9666,1.9947,2.0227,2.0775,2.1069,2.1109,2.1109,2.1109,2.1109,2.1109,2.1109,2.1109,2.1109,2.1109,2.1109,2.1109,2.1109,2.1109,2.1109,2.1109,2.1109,2.1109,2.1109,2.1109,2.8221,2.8221,2.8221,2.8221,2.8221,2.8221,2.8221,2.8221,2.8221,2.8221,2.8221,2.8221,2.8221,2.7655,2.7321,2.7268,2.6774,2.6453,2.6453,2.6413,2.6386,2.6386,2.6066,2.5772,2.5518,2.4449,2.3861,2.3768,2.2913,2.2311,2.1977,2.1802,2.147,2.1189,2.139,2.1628,2.1762,2.1857,2.1804,2.1708,2.1884,2.1777,2.1561,2.1601,2.1735,2.1817,2.1577,2.1643,2.1844,2.1844,2.1844,2.1844,2.1844,2.1844,2.1844,2.1844,2.1683,2.143,2.1176,2.1109,2.1109,2.1109,2.1082,2.0975,2.0735,2.0828,2.0828,2.0334,2.0428,2.0521,2.0214,1.996,1.9773,1.9679,1.8998,1.8584,1.8824,0.0,1.8397,1.9199,1.943,1.9733,2.0468,2.0361,2.0153,2.0174,1.9933,1.9679,1.9386,1.9639,1.9773,1.9733,1.9773,1.9947,2.0227,2.0575,2.0869,2.1109,2.1109,2.1109,2.1109,2.1109,2.1109,2.1109,2.1109,2.1109,2.1109,2.1109,2.1109,2.1109,2.1109,2.1109,2.1109,2.1109,2.1109,2.1109,2.8221,2.8221,2.8221,2.8221,2.8221,2.8221,2.8221,2.8221,2.8221,2.8221,2.8221,2.8221,2.8221,2.7762,2.7495,2.7495,2.6961,2.6627,2.6627,2.648,2.6319,2.6159,2.5879,2.5504,2.505,2.4209,2.3768,2.3768,2.2859,2.2271,2.1977,2.1762,2.1563,2.1577,2.1628,2.1882,2.2311,2.2058,2.2004,2.2031,2.2164,2.2044,2.1804,2.1964,2.2004,2.1964,2.183,2.1871,2.1991,2.1991,2.1991,2.1991,2.1991,2.1991,2.1991,2.1991,2.1777,2.1547,2.1189,2.1109,2.1109,2.1109,2.1109,2.1069,2.0935,2.1015,2.1029,2.0762,2.0815,2.0815,2.0521,2.0227,1.9933,1.9613,1.9092,0.0,0.0,1.8677,1.8771,1.9519,1.9733,2.0054,2.0615,2.0695,2.0575,2.0193,2.0107,1.984,1.9399,1.9639,1.9867,2.0027,2.004,2.0027,2.0,2.0454,2.0748,2.0882,2.1029,2.1109,2.1109,2.1109,2.1109,2.1109,2.1109,2.1109,2.1109,2.1109,2.1109,2.1109,2.1109,2.1109,2.1109,2.1109,2.1109,2.1109,2.8221,2.8221,2.8221,2.8221,2.8221,2.8221,2.8221,2.8221,2.8207,2.8043,2.8181,2.8181,2.8033,2.7736,2.7575,2.7495,2.7014,2.672,2.672,2.6507,2.6266,2.605,2.5611,2.517,2.4649,2.4062,2.3768,2.3768,2.2926,2.2338,2.1977,2.183,2.1804,2.1884,2.179,2.2084,2.2645,2.2325,2.2245,2.2325,2.2472,2.2352,2.2111,2.2338,2.2325,2.2178,2.2111,2.2124,2.2191,2.2191,2.2191,2.2191,2.2191,2.2191,2.2191,2.2191,2.1937,2.1641,2.1203,2.1109,2.1109,2.1109,2.1109,2.1109,2.1109,2.1109,2.1109,2.1109,2.1109,2.1042,2.0815,2.0481,2.0094,1.9639,0.0,0.0,0.0,1.9132,1.9345,1.9933,2.0201,2.0428,2.0655,2.0882,2.0762,2.0174,2.0134,1.9933,1.9492,1.9679,1.9907,2.012,2.0201,2.0094,1.98,2.0307,2.0601,2.0681,2.0975,2.1109,2.1109,2.1109,2.1109,2.1109,2.1109,2.1109,2.1109,2.1109,2.1109,2.1109,2.1109,2.1109,2.1109,2.1109,2.1109,2.1122,2.8221,2.8221,2.8221,2.8221,2.8221,2.8221,2.8221,2.8221,2.8127,2.7762,2.7976,2.802,2.7388,2.7308,2.7188,2.6907,2.66,2.6426,2.6426,2.64,2.6266,2.605,2.5411,2.4957,2.4649,2.4062,2.3768,2.3768,2.314,2.2539,2.1991,2.2231,2.2084,2.1668,2.2124,2.2245,2.2084,2.2646,2.2498,2.2071,2.2605,2.2659,2.2392,2.2405,2.2579,2.2766,2.2485,2.2565,2.2792,2.2792,2.2792,2.2792,2.2792,2.2792,2.2792,2.2792,2.2392,2.183,2.1269,2.1109,2.1109,2.1109,2.1109,2.1109,2.1109,2.1109,2.1109,2.1109,2.1109,2.1096,2.1082,2.0615,2.0214,2.0174,0.0,0.0,1.9693,1.9733,1.996,2.0548,2.0628,2.0655,2.0668,2.0695,2.0468,1.988,1.9826,1.9813,1.9773,1.9786,1.9813,1.9826,2.0094,2.0094,1.98,2.0107,2.0401,2.0681,2.0975,2.1109,2.1109,2.1109,2.1109,2.1109,2.1109,2.1109,2.1109,2.1109,2.1109,2.1109,2.1109,2.1109,2.1109,2.1109,2.1109,2.1149,2.8221,2.8221,2.8221,2.8221,2.8221,2.8221,2.8221,2.8221,2.8114,2.7736,2.7802,2.7709,2.7308,2.7268,2.7228,2.7108,2.6827,2.6653,2.6653,2.6493,2.6172,2.5705,2.5117,2.4756,2.4562,2.4249,2.3955,2.3768,2.3236,2.2659,2.2258,2.2178,2.2124,2.2098,2.2325,2.2458,2.2539,2.2565,2.2565,2.2539,2.2565,2.2632,2.2699,2.2699,2.2766,2.2846,2.2739,2.2766,2.2928,2.2928,2.2928,2.2928,2.2928,2.2928,2.2887,2.2645,2.2432,2.2124,2.1537,2.1256,2.1109,2.1109,2.1109,2.1109,2.1109,2.1109,2.1109,2.1109,2.1109,2.1109,2.1109,2.0775,2.0508,2.0508,0.0,1.9947,2.0054,2.0067,2.0227,2.0628,2.0681,2.0748,2.0922,2.0949,2.0775,2.0374,2.0347,2.0267,2.008,2.0067,2.0067,2.0067,2.0,1.9826,1.9533,2.0,2.0294,2.0401,2.0882,2.1109,2.1109,2.1109,2.1109,2.1109,2.1109,2.1109,2.1109,2.1109,2.1109,2.1109,2.1109,2.1109,2.1109,2.1109,2.1109,2.1149,2.8003,2.8167,2.8221,2.8221,2.8221,2.8221,2.8221,2.8221,2.8087,2.7615,2.7642,2.7522,2.7041,2.7068,2.7094,2.7001,2.68,2.668,2.668,2.6413,2.6079,2.5665,2.509,2.4783,2.4783,2.4396,2.4102,2.3915,2.33,2.2859,2.2552,2.2352,2.2311,2.2418,2.2512,2.2672,2.2846,2.2645,2.2672,2.2914,2.2645,2.2686,2.2928,2.2928,2.2928,2.2928,2.2928,2.2926,2.2993,2.2968,2.2926,2.2993,2.2968,2.2928,2.2806,2.2512,2.2418,2.2311,2.1817,2.147,2.1229,2.1136,2.1109,2.1109,2.1109,2.1109,2.1109,2.1109,2.1109,2.1109,2.1109,2.0869,2.0681,2.0681,2.0508,2.0374,2.0374,2.0454,2.0588,2.0788,2.0815,2.0855,2.0962,2.0975,2.0855,2.0561,2.0535,2.0441,2.018,2.0167,2.0167,2.0167,1.9947,1.9746,1.9639,2.004,2.0281,2.0374,2.0869,2.1109,2.1109,2.1109,2.1109,2.1109,2.1109,2.1109,2.1109,2.1109,2.1109,2.1109,2.1109,2.1109,2.1109,2.1109,2.1162,2.1283,2.7696,2.7936,2.8221,2.8221,2.8221,2.8221,2.8221,2.8221,2.802,2.7348,2.7509,2.7362,2.648,2.664,2.6707,2.6413,2.6386,2.6386,2.6386,2.6119,2.6037,2.6037,2.5398,2.5077,2.5077,2.4502,2.4209,2.4209,2.3621,2.3166,2.2928,2.2928,2.2712,2.2432,2.2726,2.2928,2.2928,2.2928,2.2928,2.2928,2.2928,2.2928,2.2941,2.2941,2.2941,2.2941,2.2928,2.3073,2.3287,2.2966,2.3073,2.3273,2.2966,2.2941,2.2806,2.2512,2.2432,2.2365,2.2071,2.1777,2.1547,2.1189,2.1109,2.1109,2.1109,2.1109,2.1109,2.1109,2.1109,2.1109,2.1109,2.0869,2.0681,2.0681,2.0681,2.0681,2.0681,2.0922,2.1109,2.1109,2.1109,2.1002,2.0708,2.0681,2.0561,2.0207,2.0241,2.0241,2.018,2.018,2.018,2.0167,1.996,1.9947,2.0167,2.018,2.0388,2.0681,2.0975,2.1109,2.1109,2.1109,2.1109,2.1109,2.1109,2.1109,2.1109,2.1109,2.1109,2.1109,2.1109,2.1109,2.1109,2.1109,2.1296,2.1614,2.7923,2.7909,2.7896,2.8194,2.8221,2.8221,2.8221,2.7963,2.7696,2.7321,2.7161,2.6907,2.644,2.6466,2.648,2.64,2.6386,2.6386,2.6386,2.6306,2.6172,2.6037,2.5398,2.5077,2.5077,2.4703,2.4409,2.4209,2.3821,2.3487,2.318,2.2966,2.2926,2.3046,2.2926,2.2979,2.318,2.2953,2.2993,2.3193,2.3193,2.3313,2.35,2.35,2.35,2.3474,2.326,2.338,2.3594,2.3287,2.3394,2.3621,2.3527,2.35,2.3447,2.314,2.306,2.2939,2.2432,2.2231,2.2044,2.155,2.1269,2.1109,2.1109,2.1109,2.1109,2.1109,2.1109,2.1109,2.1109,2.1042,2.0975,2.0975,2.0975,2.0975,2.0975,2.1056,2.1109,2.1109,2.1109,2.1082,2.0989,2.0975,2.0949,2.0855,2.0842,2.0762,2.0548,2.0548,2.0441,2.0241,2.0147,2.0241,2.0535,2.0548,2.0588,2.0681,2.0975,2.1109,2.1109,2.1109,2.1109,2.1109,2.1109,2.1109,2.1109,2.1109,2.1109,2.1109,2.1109,2.1109,2.1109,2.1109,2.1296,2.1614,2.7805,2.7843,2.7936,2.8194,2.8127,2.7963,2.7963,2.7722,2.7428,2.7134,2.6934,2.6707,2.6426,2.6386,2.6386,2.6386,2.6386,2.6386,2.6386,2.6279,2.6186,2.6132,2.5451,2.5077,2.5077,2.4783,2.4556,2.4369,2.4088,2.3848,2.3661,2.3367,2.326,2.3313,2.3126,2.3086,2.3126,2.2939,2.3046,2.3327,2.3327,2.35,2.3768,2.3768,2.3768,2.3754,2.3567,2.3688,2.3901,2.3607,2.3621,2.3768,2.3768,2.3768,2.3714,2.342,2.3327,2.322,2.2726,2.2512,2.2338,2.1977,2.159,2.1283,2.1283,2.1189,2.1109,2.1109,2.1109,2.1109,2.1109,2.1109,2.1109,2.1109,2.1109,2.1109,2.1109,2.1109,2.1109,2.1109,2.1109,2.1109,2.1109,2.1109,2.1109,2.1109,2.1109,2.1029,2.0855,2.0735,2.0641,2.0575,2.0468,2.0548,2.0842,2.0842,2.0842,2.0855,2.1029,2.1109,2.1109,2.1109,2.1109,2.1109,2.1109,2.1109,2.1122,2.1229,2.1216,2.1122,2.1243,2.1216,2.1122,2.1243,2.147,2.1789,2.7295,2.7792,2.8167,2.8221,2.7883,2.7669,2.7696,2.7428,2.7134,2.6854,2.68,2.668,2.6413,2.6386,2.6386,2.6386,2.6386,2.6386,2.6386,2.6119,2.6066,2.6306,2.5545,2.509,2.5037,2.477,2.4636,2.4636,2.4342,2.4209,2.4195,2.3875,2.3621,2.3407,2.3327,2.318,2.2979,2.2926,2.31,2.3407,2.3407,2.3581,2.3848,2.3848,2.3848,2.3848,2.3821,2.3995,2.4209,2.3941,2.3848,2.3848,2.3848,2.3848,2.3794,2.3487,2.3407,2.3327,2.2993,2.2699,2.2485,2.2472,2.2044,2.1695,2.1655,2.1363,2.1149,2.1149,2.1122,2.1109,2.1109,2.1109,2.1109,2.1109,2.1109,2.1109,2.1109,2.1109,2.1109,2.1109,2.1109,2.1109,2.1109,2.1109,2.1109,2.1109,2.1109,2.1096,2.1069,2.0842,2.0828,2.1069,2.0842,2.0842,2.1109,2.1109,2.1109,2.1109,2.1109,2.1109,2.1109,2.1109,2.1109,2.1109,2.1109,2.1109,2.1136,2.143,2.1376,2.1136,2.1443,2.1376,2.1149,2.1507,2.1802,2.1991,2.7509,2.7522,2.7602,2.814,2.7792,2.7442,2.7669,2.7255,2.6894,2.6827,2.6627,2.6453,2.64,2.6386,2.6386,2.6386,2.6386,2.6386,2.6386,2.6119,2.5879,2.5705,2.5518,2.5197,2.4743,2.4676,2.4636,2.4636,2.4342,2.4209,2.4195,2.3674,2.3634,2.3981,2.3273,2.3313,2.3888,2.342,2.3527,2.4008,2.4008,2.4182,2.4449,2.4449,2.4449,2.4422,2.4195,2.4302,2.4529,2.4476,2.4449,2.4449,2.4449,2.4449,2.4396,2.4102,2.4008,2.3901,2.3367,2.318,2.3073,2.2832,2.2498,2.2164,2.1937,2.167,2.1521,2.1521,2.1269,2.1109,2.1109,2.1109,2.1109,2.1109,2.1109,2.1109,2.1109,2.1109,2.1109,2.1109,2.1109,2.1109,2.1109,2.1109,2.1109,2.1109,2.1109,2.1002,2.0775,2.0922,2.0935,2.0775,2.0922,2.1042,2.1109,2.1109,2.1109,2.1109,2.1109,2.1109,2.1109,2.1109,2.1109,2.1109,2.1109,2.1109,2.1136,2.143,2.1376,2.1136,2.1443,2.1376,2.1149,2.1507,2.1802,2.1991,2.7215,2.7268,2.7362,2.7752,2.7348,2.7108,2.7255,2.6894,2.6613,2.6613,2.648,2.6386,2.6386,2.6386,2.6386,2.6386,2.6386,2.6386,2.6386,2.5985,2.5798,2.5919,2.5531,2.5224,2.505,2.4917,2.4783,2.4636,2.4489,2.4409,2.4396,2.3955,2.3915,2.4182,2.3567,2.3554,2.3981,2.3674,2.3794,2.4209,2.4209,2.4382,2.4636,2.4636,2.4636,2.4609,2.4462,2.4502,2.4636,2.4636,2.4636,2.4636,2.4636,2.4636,2.4583,2.4289,2.4209,2.4075,2.3487,2.3327,2.3247,2.2939,2.2739,2.2552,2.2258,2.1964,2.1764,2.1764,2.1523,2.1323,2.1323,2.1203,2.1109,2.1109,2.1109,2.1109,2.1109,2.1109,2.1109,2.1109,2.1109,2.1109,2.1109,2.1109,2.1109,2.1109,2.1109,2.1042,2.0895,2.1029,2.1042,2.0895,2.1029,2.1109,2.1109,2.1109,2.1109,2.1109,2.1109,2.1109,2.1109,2.1109,2.1189,2.1323,2.1323,2.1323,2.1349,2.179,2.163,2.1149,2.159,2.1496,2.1149,2.1507,2.1817,2.2218,2.6827,2.7028,2.7201,2.7255,2.6974,2.676,2.6814,2.6573,2.6386,2.6386,2.6386,2.6386,2.6386,2.6386,2.6386,2.6386,2.6386,2.6373,2.6319,2.5812,2.5732,2.6213,2.5545,2.5264,2.5504,2.5277,2.4983,2.4636,2.4636,2.4636,2.4549,2.4342,2.4222,2.4262,2.3928,2.3821,2.3915,2.3861,2.4008,2.4275,2.4275,2.4422,2.4636,2.4636,2.4636,2.4636,2.4636,2.4636,2.4649,2.469,2.4716,2.4703,2.4649,2.4676,2.4649,2.4369,2.4275,2.4142,2.3567,2.3407,2.3313,2.2953,2.2928,2.2806,2.2552,2.2271,2.2058,2.2058,2.179,2.1614,2.1614,2.1309,2.1109,2.1109,2.1109,2.1109,2.1109,2.1109,2.1109,2.1109,2.1109,2.1109,2.1109,2.1109,2.1109,2.1109,2.1109,2.1109,2.1109,2.1109,2.1109,2.1109,2.1109,2.1109,2.1109,2.1109,2.1109,2.1109,2.1109,2.1109,2.1109,2.1162,2.1323,2.1614,2.1668,2.1668,2.1655,2.2178,2.1897,2.1162,2.175,2.163,2.1149,2.1496,2.1991,2.2525,2.6827,2.6854,2.6961,2.7228,2.6814,2.6533,2.6787,2.6573,2.6386,2.6386,2.6386,2.6386,2.6386,2.6386,2.6386,2.6386,2.6386,2.6279,2.6039,2.5705,2.5545,2.5625,2.5518,2.5478,2.5518,2.5478,2.5184,2.4636,2.4636,2.4636,2.4549,2.4342,2.4342,2.4556,2.4008,2.4048,2.4502,2.4249,2.4315,2.4583,2.4583,2.4596,2.4636,2.4636,2.4636,2.4636,2.4636,2.4636,2.4676,2.493,2.5024,2.497,2.4716,2.481,2.4957,2.4663,2.4583,2.4449,2.3861,2.3714,2.3581,2.3075,2.2928,2.2914,2.2806,2.2579,2.2365,2.2365,2.1924,2.1614,2.1614,2.1309,2.1109,2.1109,2.1109,2.1109,2.1109,2.1109,2.1109,2.1109,2.1109,2.1109,2.1109,2.1109,2.1109,2.1109,2.1109,2.1109,2.1109,2.1109,2.1109,2.1109,2.1109,2.1109,2.1109,2.1109,2.1109,2.1109,2.1109,2.1109,2.1122,2.1376,2.1574,2.1628,2.1817,2.1777,2.1655,2.2178,2.1897,2.1162,2.175,2.163,2.1176,2.1724,2.2298,2.2766,2.6587,2.6587,2.6627,2.676,2.656,2.6426,2.656,2.6466,2.6386,2.6386,2.6386,2.6386,2.6386,2.6386,2.6386,2.6386,2.6386,2.6333,2.6199,2.5919,2.5838,2.5999,2.5852,2.5758,2.5758,2.5758,2.5558,2.513,2.4796,2.4716,2.4877,2.4422,2.4356,2.4549,2.4195,2.4249,2.4549,2.4502,2.4516,2.4636,2.4636,2.4636,2.4636,2.4636,2.4743,2.4903,2.5064,2.5024,2.4903,2.5037,2.5077,2.5024,2.473,2.473,2.481,2.4676,2.4636,2.4543,2.4128,2.4008,2.3901,2.3474,2.3367,2.3367,2.3367,2.314,2.2873,2.2699,2.2325,2.2031,2.2031,2.167,2.1363,2.1363,2.1216,2.1109,2.1109,2.1109,2.1109,2.1109,2.1109,2.1109,2.1109,2.1109,2.1109,2.1109,2.1109,2.1109,2.1109,2.1109,2.1109,2.1109,2.1109,2.1109,2.1109,2.1109,2.1109,2.1109,2.1283,2.1363,2.1363,2.1561,2.1724,2.2031,2.2004,2.1911,2.1817,2.2071,2.175,2.1149,2.1577,2.159,2.1403,2.183,2.2151,2.2405]}]]